[[{"header":{"parameterUnit":"m.s-1","parameterCategory":1,"la1":30.6,"la2":28.766,"lo1":-90.7593,"lo2":-88.6598,"dx":0.0162,"dy":0.0183,"nx":116,"ny":114,"refTime":"2022-12-23T06:00:00:Z","depth":0,"parameterNumber":2,"parameterNumberName":"U-component_of_WINDS"},"data":[0.0,0.0,0.0,0.0,0.0,0.0,0.0,0.0,0.0,0.0,0.0,0.0,0.0,0.0,0.0,0.0,0.0,0.0,0.0,0.0,0.0,0.0,0.0,0.0,0.0,0.0,0.0,0.0,0.0,0.0,0.0,0.0,0.0,0.0,0.0,0.0,0.0,0.0,0.0,0.0,0.0,0.0,0.0,0.0,0.0,0.0,0.0,0.0,0.0,0.0,0.0,0.0,0.0,0.0,0.0,0.0,0.0,0.0,0.0,0.0,0.0,0.0,0.0,0.0,0.0,0.0,0.0,0.0,0.0,0.0,0.0,0.0,0.0,0.0,0.0,0.0,0.0,0.0,0.0,0.0,0.0,0.0,0.0,0.0,0.0,0.0,0.0,0.0,0.0,0.0,0.0,0.0,0.0,0.0,0.0,0.0,0.0,0.0,0.0,0.0,0.0,0.0,0.0,0.0,0.0,0.0,0.0,0.0,0.0,0.0,0.0,0.0,0.0,0.0,0.0,0.0,0.0,0.0,0.0,0.0,0.0,0.0,0.0,0.0,0.0,0.0,0.0,0.0,0.0,0.0,0.0,0.0,0.0,0.0,0.0,0.0,0.0,0.0,0.0,0.0,0.0,0.0,0.0,0.0,0.0,0.0,0.0,0.0,0.0,0.0,0.0,0.0,0.0,0.0,0.0,0.0,0.0,0.0,0.0,0.0,0.0,0.0,0.0,0.0,0.0,0.0,0.0,0.0,0.0,0.0,0.0,0.0,0.0,0.0,0.0,0.0,0.0,0.0,0.0,0.0,0.0,0.0,0.0,0.0,0.0,0.0,0.0,0.0,0.0,0.0,0.0,0.0,0.0,0.0,0.0,0.0,0.0,0.0,0.0,0.0,0.0,0.0,0.0,0.0,0.0,0.0,0.0,0.0,0.0,0.0,0.0,0.0,0.0,0.0,0.0,0.0,0.0,0.0,0.0,0.0,0.0,0.0,0.0,0.0,0.0,0.0,0.0,0.0,0.0,0.0,0.0,0.0,0.0,0.0,0.0,0.0,0.0,0.0,0.0,0.0,0.0,0.0,0.0,0.0,0.0,0.0,0.0,0.0,0.0,0.0,0.0,0.0,0.0,0.0,0.0,0.0,0.0,0.0,0.0,0.0,0.0,0.0,0.0,0.0,0.0,0.0,0.0,0.0,0.0,0.0,0.0,0.0,0.0,0.0,0.0,0.0,0.0,0.0,0.0,0.0,0.0,0.0,0.0,0.0,0.0,0.0,0.0,0.0,0.0,0.0,0.0,0.0,0.0,0.0,0.0,0.0,0.0,0.0,0.0,0.0,0.0,0.0,0.0,0.0,0.0,0.0,0.0,0.0,0.0,0.0,0.0,0.0,0.0,0.0,0.0,0.0,0.0,0.0,0.0,0.0,0.0,0.0,0.0,0.0,0.0,0.0,0.0,0.0,0.0,0.0,0.0,0.0,0.0,0.0,0.0,0.0,0.0,0.0,0.0,0.0,0.0,0.0,0.0,0.0,0.0,0.0,0.0,0.0,0.0,0.0,0.0,0.0,0.0,0.0,0.0,0.0,0.0,0.0,0.0,0.0,0.0,0.0,0.0,0.0,0.0,0.0,0.0,0.0,0.0,0.0,0.0,0.0,0.0,0.0,0.0,0.0,0.0,0.0,0.0,0.0,0.0,0.0,0.0,0.0,0.0,0.0,0.0,0.0,0.0,0.0,0.0,0.0,0.0,0.0,0.0,0.0,0.0,0.0,0.0,0.0,0.0,0.0,0.0,0.0,0.0,0.0,0.0,0.0,0.0,0.0,0.0,0.0,0.0,0.0,0.0,0.0,0.0,0.0,0.0,0.0,0.0,0.0,0.0,0.0,0.0,0.0,0.0,0.0,0.0,0.0,0.0,0.0,0.0,0.0,0.0,0.0,0.0,0.0,0.0,0.0,0.0,0.0,0.0,0.0,0.0,0.0,0.0,0.0,0.0,0.0,0.0,0.0,0.0,0.0,0.0,0.0,0.0,0.0,0.0,0.0,0.0,0.0,0.0,0.0,0.0,0.0,0.0,0.0,0.0,0.0,0.0,0.0,0.0,0.0,0.0,0.0,0.0,0.0,0.0,0.0,0.0,0.0,0.0,0.0,0.0,0.0,0.0,0.0,0.0,0.0,0.0,0.0,0.0,0.0,0.0,0.0,0.0,0.0,0.0,0.0,0.0,0.0,0.0,0.0,0.0,0.0,0.0,0.0,0.0,0.0,0.0,0.0,0.0,0.0,0.0,0.0,0.0,0.0,0.0,0.0,0.0,0.0,0.0,0.0,0.0,0.0,0.0,0.0,0.0,0.0,0.0,0.0,0.0,0.0,0.0,0.0,0.0,0.0,0.0,0.0,0.0,0.0,0.0,0.0,0.0,0.0,0.0,0.0,0.0,0.0,0.0,0.0,0.0,0.0,0.0,0.0,0.0,0.0,0.0,0.0,0.0,0.0,0.0,0.0,0.0,0.0,0.0,0.0,0.0,0.0,0.0,0.0,0.0,0.0,0.0,0.0,0.0,0.0,0.0,0.0,0.0,0.0,0.0,0.0,0.0,0.0,0.0,0.0,0.0,0.0,0.0,0.0,0.0,0.0,0.0,0.0,0.0,0.0,0.0,0.0,0.0,0.0,0.0,0.0,0.0,0.0,0.0,0.0,0.0,0.0,0.0,0.0,0.0,0.0,0.0,0.0,0.0,0.0,0.0,0.0,0.0,0.0,0.0,0.0,0.0,0.0,0.0,0.0,0.0,0.0,0.0,0.0,0.0,0.0,0.0,0.0,0.0,0.0,0.0,0.0,0.0,0.0,0.0,0.0,0.0,0.0,0.0,0.0,0.0,0.0,0.0,0.0,0.0,0.0,0.0,0.0,0.0,0.0,0.0,0.0,0.0,0.0,0.0,0.0,0.0,0.0,0.0,0.0,0.0,0.0,0.0,0.0,0.0,0.0,0.0,0.0,0.0,0.0,0.0,0.0,0.0,0.0,0.0,0.0,0.0,0.0,0.0,0.0,0.0,0.0,0.0,0.0,0.0,0.0,0.0,0.0,0.0,0.0,0.0,0.0,0.0,0.0,0.0,0.0,0.0,0.0,0.0,0.0,0.0,0.0,0.0,0.0,0.0,0.0,0.0,0.0,0.0,0.0,0.0,0.0,0.0,0.0,0.0,0.0,0.0,0.0,0.0,0.0,0.0,0.0,0.0,0.0,0.0,0.0,0.0,0.0,0.0,0.0,0.0,0.0,0.0,0.0,0.0,0.0,0.0,0.0,0.0,0.0,0.0,0.0,0.0,0.0,0.0,0.0,0.0,0.0,0.0,0.0,0.0,0.0,0.0,0.0,0.0,0.0,0.0,0.0,0.0,0.0,0.0,0.0,0.0,0.0,0.0,0.0,0.0,0.0,0.0,0.0,0.0,0.0,0.0,0.0,0.0,0.0,0.0,0.0,0.0,0.0,0.0,0.0,0.0,0.0,0.0,0.0,0.0,0.0,0.0,0.0,0.0,0.0,0.0,0.0,0.0,0.0,0.0,0.0,0.0,0.0,0.0,0.0,0.0,0.0,0.0,0.0,0.0,0.0,0.0,0.0,0.0,0.0,0.0,0.0,0.0,0.0,0.0,0.0,0.0,0.0,0.0,0.0,0.0,0.0,0.0,0.0,0.0,0.0,0.0,0.0,0.0,0.0,0.0,0.0,0.0,0.0,0.0,0.0,0.0,0.0,0.0,0.0,0.0,0.0,0.0,0.0,0.0,0.0,0.0,0.0,0.0,0.0,0.0,0.0,0.0,0.0,0.0,0.0,0.0,0.0,0.0,0.0,0.0,0.0,0.0,0.0,0.0,0.0,0.0,0.0,0.0,0.0,0.0,0.0,0.0,0.0,0.0,0.0,0.0,0.0,0.0,0.0,0.0,0.0,0.0,0.0,0.0,0.0,0.0,0.0,0.0,0.0,0.0,0.0,0.0,0.0,0.0,0.0,0.0,0.0,0.0,0.0,0.0,0.0,0.0,0.0,0.0,0.0,0.0,0.0,0.0,0.0,0.0,0.0,0.0,0.0,0.0,0.0,0.0,0.0,0.0,0.0,0.0,0.0,0.0,0.0,0.0,0.0,0.0,0.0,0.0,0.0,0.0,0.0,0.0,0.0,0.0,0.0,0.0,0.0,0.0,0.0,0.0,0.0,0.0,0.0,0.0,0.0,0.0,0.0,0.0,0.0,0.0,0.0,0.0,0.0,0.0,0.0,0.0,0.0,0.0,0.0,0.0,0.0,0.0,0.0,0.0,0.0,0.0,0.0,0.0,0.0,0.0,0.0,0.0,0.0,0.0,0.0,0.0,0.0,0.0,0.0,0.0,0.0,0.0,0.0,0.0,0.0,0.0,0.0,0.0,0.0,0.0,0.0,0.0,0.0,0.0,0.0,0.0,0.0,0.0,0.0,0.0,0.0,0.0,0.0,0.0,0.0,0.0,0.0,0.0,0.0,0.0,0.0,0.0,0.0,0.0,0.0,0.0,0.0,0.0,0.0,0.0,0.0,0.0,0.0,0.0,0.0,0.0,0.0,0.0,0.0,0.0,0.0,0.0,0.0,0.0,0.0,0.0,0.0,0.0,0.0,0.0,0.0,0.0,0.0,0.0,0.0,0.0,0.0,0.0,0.0,0.0,0.0,0.0,0.0,0.0,0.0,0.0,0.0,0.0,0.0,0.0,0.0,0.0,0.0,0.0,0.0,0.0,0.0,0.0,0.0,0.0,0.0,0.0,0.0,0.0,0.0,0.0,0.0,0.0,0.0,0.0,0.0,0.0,0.0,0.0,0.0,0.0,0.0,0.0,0.0,0.0,0.0,0.0,0.0,0.0,0.0,0.0,0.0,0.0,0.0,0.0,0.0,0.0,0.0,0.0,0.0,0.0,0.0,0.0,0.0,0.0,0.0,0.0,0.0,0.0,0.0,0.0,0.0,0.0,0.0,0.0,0.0,0.0,0.0,0.0,0.0,0.0,0.0,0.0,0.0,0.0,0.0,0.0,0.0,0.0,0.0,0.0,0.0,0.0,0.0,0.0,0.0,0.0,0.0,0.0,0.0,0.0,0.0,0.0,0.0,0.0,0.0,0.0,0.0,0.0,0.0,0.0,0.0,0.0,0.0,0.0,0.0,0.0,0.0,0.0,0.0,0.0,0.0,0.0,0.0,0.0,0.0,0.0,0.0,0.0,0.0,0.0,0.0,0.0,0.0,0.0,0.0,0.0,0.0,0.0,0.0,0.0,0.0,0.0,0.0,0.0,0.0,0.0,0.0,0.0,0.0,0.0,0.0,0.0,0.0,0.0,0.0,0.0,0.0,0.0,0.0,0.0,0.0,0.0,0.0,0.0,0.0,0.0,0.0,0.0,0.0,0.0,0.0,0.0,0.0,0.0,0.0,0.0,0.0,0.0,0.0,0.0,0.0,0.0,0.0,0.0,0.0,0.0,0.0,0.0,0.0,0.0,0.0,0.0,0.0,0.0,0.0,0.0,0.0,0.0,0.0,0.0,0.0,0.0,0.0,0.0,0.0,0.0,0.0,0.0,0.0,0.0,0.0,0.0,0.0,0.0,0.0,0.0,0.0,0.0,0.0,0.0,0.0,0.0,0.0,0.0,0.0,0.0,0.0,0.0,0.0,0.0,0.0,0.0,0.0,0.0,0.0,0.0,0.0,0.0,0.0,0.0,0.0,0.0,0.0,0.0,0.0,0.0,0.0,0.0,0.0,0.0,0.0,0.0,0.0,0.0,0.0,0.0,0.0,0.0,0.0,0.0,0.0,0.0,0.0,0.0,0.0,0.0,0.0,0.0,0.0,0.0,0.0,0.0,0.0,0.0,0.0,0.0,0.0,0.0,0.0,0.0,0.0,0.0,0.0,0.0,0.0,0.0,0.0,0.0,0.0,0.0,0.0,0.0,0.0,0.0,0.0,0.0,0.0,0.0,0.0,0.0,0.0,0.0,0.0,0.0,0.0,0.0,0.0,0.0,0.0,0.0,0.0,0.0,0.0,0.0,0.0,0.0,0.0,0.0,0.0,0.0,0.0,0.0,0.0,2.8914,2.5114,0.0,0.0,0.0,0.0,0.0,0.0,0.0,0.0,0.0,0.0,0.0,0.0,0.0,0.0,0.0,0.0,0.0,0.0,0.0,0.0,0.0,0.0,0.0,0.9382,0.9406,0.8985,0.9182,0.0,0.0,0.0,0.0,0.0,0.0,0.0,0.0,0.0,0.9267,1.1225,1.2752,1.4873,1.7482,1.5186,1.3605,1.2585,0.0,0.0,0.0,0.0,0.0,0.0,0.0,0.0,0.0,0.0,0.0,0.0,0.0,0.0,0.0,0.0,0.0,0.0,0.0,0.0,0.0,0.0,0.0,0.0,0.0,0.0,0.0,0.0,0.0,0.0,0.0,0.0,0.0,0.0,0.0,0.0,0.0,0.0,0.0,0.0,0.0,0.0,0.0,0.0,0.0,0.0,0.0,0.0,0.0,0.0,0.0,0.0,0.0,0.0,0.0,0.0,0.0,0.0,0.0,0.0,0.0,0.0,0.0,0.0,0.0,0.0,0.0,0.0,0.0,0.0,3.2321,3.0079,0.0,0.0,0.0,0.0,0.0,0.0,0.0,0.0,0.0,0.0,0.0,0.0,0.0,0.0,0.0,0.0,0.0,0.0,0.0,0.0,0.0,0.9168,0.9293,0.9808,0.9996,0.9656,0.9995,0.9943,0.9277,0.9048,0.0,0.0,0.0,0.0,0.8093,0.9466,1.0925,1.2381,1.5078,1.7596,1.993,1.9862,1.8704,1.6536,1.3927,0.0,0.0,0.0,0.0,0.0,0.0,0.0,0.0,0.0,0.0,0.0,0.0,0.0,0.0,0.0,0.0,0.0,0.0,0.0,0.0,0.0,0.0,0.0,0.0,0.0,0.0,0.0,0.0,0.0,0.0,0.0,0.0,0.0,0.0,0.0,0.0,0.0,0.0,0.0,0.0,0.0,0.0,0.0,0.0,0.0,0.0,0.0,0.0,0.0,0.0,0.0,0.0,0.0,0.0,0.0,0.0,0.0,0.0,0.0,0.0,0.0,0.0,0.0,3.4331,3.457,3.4085,3.4751,3.6131,3.7915,3.5914,3.5791,3.6633,3.1977,0.0,0.0,0.0,0.0,0.0,0.0,0.0,0.0,0.0,0.0,0.0,0.0,0.0,0.0,0.0,0.0,0.0,0.0,0.0,0.9424,1.0064,1.0214,1.0762,1.2029,1.1502,1.1078,1.0975,1.0241,0.0,0.0,0.0,0.9853,1.035,1.1807,1.327,1.4758,1.9528,2.2045,2.2442,2.2923,2.3054,2.2665,1.9034,1.7762,1.815,0.0,0.0,0.0,0.0,0.0,0.0,0.0,0.0,0.0,0.0,0.0,0.0,0.0,0.0,0.0,0.0,0.0,0.0,0.0,0.0,0.0,0.0,0.0,0.0,0.0,0.0,0.0,0.0,0.0,0.0,0.0,0.0,0.0,0.0,0.0,0.0,0.0,0.0,0.0,0.0,0.0,2.5325,2.5535,0.0,0.0,0.0,0.0,0.0,0.0,0.0,0.0,0.0,0.0,0.0,0.0,0.0,3.2053,3.3067,3.4671,3.6124,3.7426,3.9582,4.0922,4.1483,4.1606,4.1823,4.2095,4.1791,0.0,3.6941,3.6194,0.0,0.0,0.0,0.0,0.0,0.0,0.0,0.0,0.0,0.0,0.0,0.0,0.0,0.0,0.0,0.0,0.0,0.0,0.0,0.0,0.0,1.3778,1.4583,1.5188,1.5348,1.4614,1.2766,1.1866,0.0,0.0,0.9513,0.9787,1.0837,1.271,1.5596,1.9521,2.3333,2.5263,2.5372,2.5527,2.5919,2.6428,2.5115,2.3022,2.0338,1.815,0.0,0.0,0.0,0.0,0.0,0.0,0.0,0.0,0.0,0.0,0.0,0.0,0.0,0.0,0.0,0.0,0.0,0.0,0.0,0.0,0.0,0.0,0.0,0.0,0.0,0.0,0.0,0.0,0.0,0.0,0.0,0.0,0.0,0.0,0.0,0.0,0.0,0.0,0.0,2.4299,2.6708,2.8057,2.7505,2.6488,0.0,0.0,0.0,0.0,0.0,0.0,0.0,0.0,0.0,3.4853,3.5773,3.6834,3.8053,3.9202,3.9912,4.0179,4.1202,4.1872,4.2244,4.2688,4.3145,4.358,4.358,4.2584,4.0849,3.907,3.7313,3.5538,0.0,0.0,0.0,0.0,3.3596,3.3893,0.0,0.0,0.0,0.0,0.0,0.0,0.0,0.0,0.0,0.0,0.0,0.0,1.5408,1.6972,1.8057,1.8506,1.8953,1.815,1.5686,1.4213,1.287,1.1595,1.0637,1.0754,1.2124,1.4832,1.8691,2.3731,2.5791,2.7062,2.7568,2.7041,2.7264,2.8144,2.8766,2.7034,2.3568,2.2074,2.0516,1.8819,0.0,0.0,0.0,0.0,0.0,0.0,0.0,0.0,0.0,0.0,0.0,0.0,0.0,0.0,0.0,0.0,0.0,0.0,0.0,0.0,0.0,0.0,0.0,0.0,0.0,0.0,0.0,0.0,0.0,0.0,0.0,0.0,0.0,0.0,0.0,0.0,0.0,2.6566,2.9026,3.081,3.0507,2.9345,0.0,0.0,0.0,0.0,0.0,0.0,3.3723,3.5236,3.6852,3.8458,3.9464,4.0632,4.1981,4.2597,4.2706,4.233,4.2524,4.2615,4.2637,4.3249,4.3833,4.4408,4.4408,4.4408,4.4191,4.142,4.0043,3.9441,3.7047,3.6228,3.6464,3.6862,3.7239,3.8,0.0,0.0,0.0,0.0,0.0,0.0,0.0,0.0,0.0,0.0,0.0,1.4856,1.7217,1.8288,1.967,2.178,2.1294,2.076,2.0452,1.7655,1.5917,1.5705,1.4255,1.4119,1.5526,1.9584,2.3135,2.6029,2.6164,2.6956,2.831,2.6906,2.6646,2.7381,2.7856,2.8798,2.9851,2.6937,2.5675,2.5166,1.993,0.0,0.0,0.0,0.0,0.0,0.0,0.0,0.0,0.0,0.0,0.0,0.0,0.0,0.0,0.0,0.0,0.0,0.0,0.0,0.0,0.0,0.0,0.0,0.0,0.0,0.0,0.0,0.0,0.0,0.0,0.0,0.0,0.0,0.0,0.0,0.0,0.0,0.0,3.4349,3.4327,0.0,0.0,0.0,0.0,3.202,3.4944,3.7085,3.786,3.9365,4.094,4.2547,4.1936,4.1986,4.2837,4.2878,4.3254,4.3992,4.4747,4.5128,4.5128,4.5164,4.52,4.5241,4.5241,4.5241,4.511,4.3417,4.1814,4.0424,4.0266,3.9328,3.8255,3.9722,4.0904,4.2031,0.0,0.0,0.0,0.9072,0.9133,0.9179,0.9203,0.9918,1.0758,1.1563,1.4444,1.7284,1.9608,2.2065,2.4016,2.519,2.5117,2.4301,2.2712,2.0116,1.857,1.8391,1.6418,1.6973,2.0545,2.3794,2.6156,2.7621,2.8054,2.8529,2.9036,2.8517,2.8401,2.8699,2.9827,3.0652,3.1113,2.9737,2.8315,2.6835,2.4899,2.1139,0.0,0.0,0.0,0.0,0.0,0.0,0.0,0.0,0.0,0.0,0.0,0.0,0.0,0.0,0.0,0.0,0.0,0.0,0.0,0.0,0.0,0.0,0.0,0.0,0.0,0.0,0.0,0.0,0.0,0.0,0.0,0.0,0.0,0.0,0.0,0.0,0.0,3.4653,3.5516,0.0,3.4295,3.6055,3.7128,3.6793,3.9265,4.0922,4.1207,4.2235,4.3081,4.3652,4.3896,4.4145,4.4444,4.4444,4.4589,4.4879,4.5164,4.5562,4.6069,4.6069,4.6354,4.6825,4.63,4.6069,4.5992,4.4892,4.4114,4.3584,4.3584,4.3244,4.2851,4.3389,4.3837,4.4264,0.0,0.0,0.0,0.9186,0.9213,0.9225,0.9235,1.0182,1.1496,1.3102,1.6365,1.963,2.2484,2.504,2.6792,2.7424,2.7549,2.6919,2.5258,2.2668,2.1095,2.0927,1.9527,2.0798,2.5154,2.715,2.8653,2.968,2.9742,2.9898,3.0125,2.9633,2.9666,3.018,3.0903,3.1504,3.1973,3.1904,3.0955,2.9367,2.8014,2.4727,2.0476,0.0,0.0,0.0,0.0,0.0,0.0,0.0,0.0,0.0,0.0,0.0,0.0,0.0,0.0,0.0,0.0,0.0,0.0,0.0,0.0,0.0,0.0,0.0,0.0,0.0,0.0,0.0,0.0,0.0,0.0,0.0,0.0,0.0,0.0,3.3273,3.5703,3.5439,3.6824,3.7385,3.6323,3.8622,4.0274,4.0505,4.2258,4.3417,4.3707,4.4227,4.4499,4.4499,4.5024,4.5436,4.5707,4.5707,4.5847,4.61,4.61,4.6395,4.6897,4.6897,4.7205,4.7671,4.7145,4.6897,4.6879,4.6626,4.6517,4.6426,4.5617,4.5291,4.5291,4.5291,4.5523,4.593,0.0,0.0,0.9206,0.9198,0.9267,0.9303,0.931,1.0664,1.2849,1.6055,1.8673,2.1731,2.5636,2.6892,2.7696,2.8352,2.8418,2.835,2.8214,2.5317,2.3547,2.3451,2.3863,2.5706,2.9123,2.968,3.0658,3.2216,3.1113,3.0936,3.1593,3.018,3.0246,3.1565,3.0886,3.1366,3.2746,3.3464,3.3628,3.3096,2.9173,2.7149,2.6086,0.0,0.0,0.0,0.0,0.0,0.0,0.0,0.0,0.0,0.0,0.0,0.0,0.0,0.0,0.0,0.0,0.0,0.0,0.0,0.0,0.0,0.0,0.0,0.0,0.0,0.0,0.0,0.0,0.0,0.0,0.0,0.0,0.0,3.2687,3.44,3.6214,3.7013,3.8508,3.9486,3.9504,4.0881,4.2112,4.291,4.3707,4.4481,4.5254,4.5327,4.5345,4.5345,4.5363,4.5743,4.6535,4.6553,4.6988,4.7779,4.7797,4.7833,4.7852,4.7815,4.7815,4.7815,4.7784,4.7761,4.7839,4.863,4.8938,4.8715,4.6354,4.5454,4.5454,4.5454,4.6121,4.7208,0.9115,0.9206,0.9279,0.9272,0.9359,0.9449,0.9438,1.0814,1.2784,1.5429,1.8913,2.219,2.4991,2.7088,2.8345,2.8528,2.8557,2.8526,2.8497,2.6592,2.585,2.6732,2.9197,3.0867,3.1547,3.2033,3.2359,3.2551,3.2243,3.2205,3.2387,3.1973,3.1714,3.1609,3.1951,3.2321,3.2696,3.2759,3.3328,3.4079,3.2778,3.0515,2.7806,0.0,0.0,0.0,0.0,0.0,0.0,0.0,0.0,0.0,0.0,0.0,0.0,0.0,0.0,0.0,0.0,0.0,0.0,0.0,0.0,0.0,0.0,0.0,0.0,0.0,0.0,0.0,0.0,0.0,0.0,0.0,3.4661,3.6447,3.5777,3.7258,3.8681,3.9455,4.0447,4.1302,4.1877,4.2851,4.3769,4.4589,4.4843,4.5078,4.5291,4.5852,4.6178,4.6178,4.6734,4.7151,4.7368,4.7942,4.8635,4.9443,5.0023,5.062,5.1158,5.0578,5.0307,5.0276,4.9697,4.9449,4.9461,4.9679,4.9769,4.9697,4.905,4.8778,4.8778,4.8778,4.9115,4.9663,0.9192,0.9283,0.9326,0.931,0.9438,0.9542,0.9542,1.0924,1.3213,1.6681,1.9702,2.2838,2.6251,2.7801,2.8596,2.8596,2.8914,2.8968,2.8615,2.7995,2.8309,2.9833,3.2013,3.328,3.3492,3.3902,3.3867,3.3362,3.3543,3.3464,3.3155,3.3155,3.3099,3.2983,3.3116,3.3337,3.3607,3.3502,3.385,3.4485,3.4331,3.2724,3.0387,3.0042,2.894,2.7387,2.5919,2.5583,2.5744,2.5122,0.0,0.0,0.0,0.0,0.0,0.0,0.0,0.0,0.0,0.0,0.0,0.0,0.0,0.0,0.0,0.0,0.0,0.0,0.0,0.0,0.0,0.0,0.0,0.0,3.7413,3.9084,3.9418,3.9704,4.027,4.1379,4.1918,4.2642,4.3792,4.4336,4.4928,4.5743,4.5798,4.5943,4.6282,4.6752,4.7006,4.7006,4.7779,4.8196,4.8196,4.9324,5.0144,5.0608,5.1423,5.2051,5.2486,5.2015,5.1797,5.1779,5.1314,5.1115,5.1133,5.1477,5.1616,5.1508,0.0,0.0,0.0,0.0,5.0399,5.0674,0.9217,0.9317,0.9392,0.9338,0.9497,0.9611,0.9617,1.1047,1.3831,1.8652,2.0654,2.3468,2.8269,2.8703,2.8631,2.8631,2.9425,2.9669,2.9052,2.9714,3.0874,3.253,3.3349,3.4182,3.5096,3.5333,3.5116,3.4415,3.4733,3.4574,3.3911,3.3911,3.4276,3.4872,3.4215,3.4292,3.4905,3.4905,3.4751,3.4546,3.4546,3.4035,3.3196,3.2699,3.211,3.1424,3.0268,2.9491,2.8823,2.759,0.0,0.0,0.0,0.0,0.0,0.0,0.0,0.0,0.0,0.0,0.0,0.0,0.0,0.0,0.0,0.0,0.0,0.0,0.0,0.0,0.0,0.0,0.0,0.0,4.0361,4.2112,4.2928,4.1882,4.1574,4.3,4.3163,4.3779,4.5296,4.5436,4.5775,4.6571,4.6644,4.6952,4.7652,4.7797,0.0,0.0,0.0,4.9083,4.9173,5.0669,5.1531,5.1731,5.2504,5.2938,5.3029,5.2938,5.2884,5.2884,5.2806,5.2775,5.2824,5.3548,5.3838,5.3621,5.1477,5.0644,5.0677,5.0901,5.1023,5.124,0.9288,0.9346,0.9426,0.9532,0.9615,0.9707,0.9746,1.1134,1.3708,1.7963,2.0458,2.3441,2.7648,2.8546,2.883,2.883,3.0014,3.0973,3.1473,3.2696,3.3555,3.392,3.5599,3.6493,3.6429,3.6016,3.5592,3.5194,3.4999,3.4822,3.469,3.469,3.4756,3.4883,3.475,3.4773,3.4905,3.4905,3.4875,3.4828,3.4828,3.4579,3.4188,3.3864,3.3575,3.3262,3.2783,3.2676,3.2807,3.3116,3.194,3.0433,3.0916,2.8972,0.0,0.0,0.0,0.0,0.0,0.0,0.0,0.0,0.0,0.0,0.0,0.0,0.0,0.0,0.0,0.0,0.0,0.0,0.0,3.9781,4.1524,4.2941,4.3756,4.4168,4.4494,4.4807,4.4838,4.52,4.6178,4.6269,4.6607,4.7417,4.7477,4.7549,4.7689,4.8322,4.8666,4.8666,4.9456,5.0191,5.0838,5.1797,5.292,5.4218,5.4967,0.0,5.6271,5.5619,5.5311,5.5293,5.4689,5.4448,5.4448,5.4593,5.4665,5.4611,5.414,5.3965,5.3971,5.403,5.418,5.4403,0.9439,0.9475,0.9516,0.9587,0.9675,0.9902,1.0323,1.1488,1.394,1.8502,2.0445,2.2806,2.6502,2.674,2.663,2.6604,2.8247,3.0148,3.2172,3.3266,3.4307,3.5317,3.6315,3.6787,3.6652,3.6166,3.5545,3.4841,3.4882,3.4706,3.4364,3.4723,3.4905,3.4905,3.4905,3.4905,3.4905,3.4905,3.4905,3.4905,3.4905,3.4828,3.4679,3.4552,3.4436,3.4324,3.4195,3.4236,3.4408,3.4773,3.417,3.3314,3.3673,3.2303,3.0205,0.0,0.0,0.0,0.0,0.0,0.0,0.0,0.0,0.0,0.0,0.0,0.0,0.0,0.0,3.6168,3.7373,0.0,4.0003,4.1972,4.2977,4.3919,4.5128,4.5653,4.5906,4.5906,4.5906,4.6214,4.7019,4.7096,4.7277,4.7671,4.8064,4.8304,4.8304,4.9052,4.9691,5.0084,5.0874,5.1689,5.248,5.3663,5.4659,5.545,5.6228,5.6814,5.7195,5.6778,5.6597,5.6579,5.621,5.6047,5.6047,5.6047,5.6047,5.6047,5.6047,5.557,5.4925,5.5097,5.5247,5.5464,0.9628,0.964,0.9641,0.9646,0.972,1.0078,1.091,1.1817,1.4047,1.8596,1.9943,2.1613,2.464,2.4493,2.4471,2.5192,2.6696,2.898,3.2225,3.3193,3.4265,3.5692,3.6171,3.6375,3.6332,3.6055,3.5449,3.451,3.4766,3.4607,3.4027,3.4576,3.4857,3.4905,3.4851,3.4857,3.4905,3.4905,3.4905,3.4905,3.4905,3.4905,3.4905,3.4905,3.4905,3.4905,3.4905,3.4905,3.4905,3.4905,3.4905,3.4905,3.4905,3.4415,3.349,3.163,3.0836,0.0,0.0,0.0,0.0,0.0,0.0,0.0,0.0,3.2871,3.428,3.5888,3.7236,3.8531,3.983,4.0686,4.1845,4.3774,4.4354,4.5024,4.6323,4.6626,4.6789,4.6952,4.697,4.7223,4.787,4.8074,4.8165,4.8165,4.8775,4.9137,4.9137,4.9896,5.0698,5.1508,5.2305,5.3192,5.4146,5.5383,5.6078,5.6235,5.6887,5.7195,5.7195,5.7195,5.7195,5.7195,5.7195,5.7195,5.7195,5.7195,5.7195,5.7195,5.7195,5.6495,5.5492,5.5767,5.5908,5.6127,0.9761,0.9771,0.9784,0.9786,0.9783,1.0116,1.1038,1.1927,1.3483,1.6242,1.7979,1.9624,2.1434,2.2717,2.4825,2.8354,2.8014,2.9027,3.2358,3.3763,3.4175,3.3495,3.5352,3.6179,3.5701,3.5831,3.5698,3.5273,3.501,3.4855,3.4767,3.4622,3.4667,3.4893,3.4649,3.4673,3.4905,3.4905,3.4905,3.4905,3.4905,3.4905,3.4905,3.4905,3.4905,3.4905,3.4905,3.4905,3.4905,3.4905,3.4905,3.4905,3.4905,3.4836,3.4685,3.4376,3.3308,3.2065,3.1286,3.0966,3.1153,3.2517,3.4001,3.5862,0.0,3.9446,4.0035,4.1642,4.2117,4.2299,4.2475,4.3159,4.3792,4.4069,4.5291,4.6282,4.6463,4.7114,4.7833,4.8558,4.8625,4.8666,4.8751,4.9401,4.9829,4.9829,4.9901,4.9974,4.9974,5.0735,5.1526,5.2341,5.315,5.4273,5.5728,5.5909,5.6361,5.7068,5.7158,5.7195,5.7195,5.7195,5.7195,5.7195,5.7195,5.7195,5.7195,5.7195,5.7195,5.7195,5.7195,5.7303,5.7483,5.753,5.7713,5.7993,0.9783,0.9825,1.003,1.0573,1.0641,1.0926,1.1821,1.2662,1.4094,1.6622,1.7568,1.8466,1.9683,1.9886,2.0976,2.3626,2.5363,2.7537,3.043,3.2687,3.3875,3.3792,3.4569,3.4991,3.4963,3.516,3.4888,3.4117,3.4633,3.4673,3.4253,3.4427,3.4637,3.4881,3.4454,3.4417,3.4655,3.4497,3.4429,3.4448,3.46,3.4661,3.4679,3.4845,3.4905,3.4905,3.4905,3.4905,0.0,3.4905,3.4905,3.4905,3.4905,3.4864,3.4913,3.5321,3.496,3.4718,3.6109,3.6182,3.615,3.7264,3.8034,3.8763,3.9654,4.0193,4.0822,4.1972,4.2955,4.3598,4.3598,4.4268,4.4952,4.5417,4.6064,4.6825,4.7761,4.8196,4.8703,4.9492,5.0017,5.0108,4.9637,4.9901,5.0106,5.0106,5.0535,5.1006,5.1477,5.2268,5.3259,5.4496,5.4858,5.5565,5.6687,5.6706,5.6869,5.7195,5.7195,5.7195,5.7195,5.7195,5.7195,5.7195,5.7195,5.7195,5.7195,5.7195,5.7195,5.7195,5.7195,5.7856,5.8739,5.8262,5.8301,5.8708,0.9818,1.0055,1.0463,1.1158,1.1645,1.2154,1.2817,1.341,1.4522,1.6605,1.6875,1.7206,1.812,1.7416,1.7726,1.9845,2.2972,2.5782,2.8061,3.1301,3.3179,3.3259,3.3732,3.4035,3.4092,3.4362,3.4036,3.3089,3.4105,3.4261,3.362,3.4141,3.4491,3.4655,3.4194,3.4138,3.438,3.4182,3.4101,3.4119,3.4312,3.4386,3.4417,3.4679,3.466,3.4496,3.4561,3.4607,3.4541,3.4137,3.4121,3.4259,3.4054,3.4164,3.4563,3.5612,3.5925,3.6398,3.8453,3.8883,3.8975,3.994,4.0519,4.07,4.0166,4.0614,4.1334,4.1913,4.3136,4.41,4.41,4.4928,4.5883,4.6698,4.7019,4.7658,4.9034,4.9233,4.9523,5.0336,5.0952,5.1169,5.0807,5.0753,5.0753,5.0753,5.1508,5.2214,5.2794,5.3585,5.4635,5.5969,5.5999,5.638,5.7188,5.7195,5.7195,5.7195,5.7195,5.7195,5.7195,5.7195,5.7195,5.7195,5.7195,5.7195,5.7195,5.7195,5.7339,5.7532,5.7532,5.847,5.9758,5.9169,5.9271,5.9864,0.9891,1.0578,1.1179,1.1198,1.2655,1.3845,1.3931,1.3978,1.4302,1.5159,1.5274,1.5585,1.639,1.5748,1.6567,1.9807,2.2105,2.4023,2.5612,2.9987,3.1952,3.0664,3.2785,3.37,3.3066,3.3507,3.343,3.2818,3.3493,3.3585,3.3143,3.3792,3.4119,3.4113,3.3835,3.3854,3.4113,3.4107,3.4101,3.4101,3.4107,3.4113,3.4138,3.4411,3.4067,3.3473,3.3742,3.3834,3.3613,3.2183,3.2177,3.2641,3.1923,3.2411,3.3615,3.5454,3.6123,3.6323,3.6462,3.6788,3.7444,3.9034,4.056,4.165,4.1632,4.2244,4.2837,4.2855,4.3526,4.41,4.41,4.5399,4.6734,4.7526,4.8322,4.9119,4.9956,5.0064,5.0354,5.1164,5.1296,5.1604,5.2359,5.2431,5.2431,5.2431,5.3168,5.3639,5.3657,5.443,5.5214,5.5987,5.5999,5.638,5.7188,5.7195,5.7195,5.7195,5.7195,5.7195,5.7195,5.7195,5.7195,5.7195,5.7195,5.7195,5.7195,5.7195,5.7659,5.8365,5.8365,5.9298,6.0664,6.0646,6.1211,6.2002,1.1555,1.1797,1.2201,1.2879,1.3494,1.4113,1.4769,1.4817,1.4898,1.5164,1.5202,0.0,0.0,0.0,0.0,0.0,2.0997,2.349,2.567,2.9002,3.112,3.161,3.2175,3.2377,3.2147,3.2206,3.1859,3.1077,3.1797,3.1985,3.1737,3.2704,3.3275,3.3439,3.3444,3.3571,3.3816,3.3636,3.3574,3.3571,3.3752,3.3829,3.3998,3.542,3.4595,3.2773,0.0,3.3176,3.2183,3.1201,3.104,3.1278,3.1515,3.1446,3.1603,3.3269,3.5233,3.709,3.7963,3.8654,3.9531,4.1284,4.2108,4.2502,4.2502,4.2706,4.3055,4.3598,4.4336,4.5218,4.6282,4.7368,4.8364,4.9153,4.9516,4.9968,5.0789,5.0898,5.1182,5.1997,5.2105,5.2196,5.2468,5.2504,5.2721,5.3259,5.3548,5.4146,5.5166,5.5474,5.5999,5.6778,5.6796,5.6941,5.7195,5.7195,5.7195,5.7195,5.7195,5.7195,5.7224,5.775,5.7695,5.7231,5.7768,5.8003,5.8003,5.8003,5.8474,5.9192,5.9192,6.0163,6.1557,6.1557,6.25,6.3695,1.2403,1.2643,1.3074,1.3778,1.4161,0.0,0.0,0.0,0.0,0.0,0.0,0.0,0.0,0.0,0.0,0.0,0.0,2.2125,2.3614,2.7044,2.9497,3.0557,3.0263,3.0306,3.0758,2.9858,2.9662,3.0192,3.0348,3.0769,3.1477,3.2045,3.2344,3.2415,3.2504,3.2647,3.28,3.2621,3.297,3.3613,3.3045,3.3115,3.3642,3.4342,3.3122,0.0,3.166,3.0924,2.965,2.9428,2.9528,2.9846,3.0418,3.1105,3.1907,3.3011,3.518,3.7538,3.9018,3.9803,4.0638,4.2441,4.2892,4.2987,4.3254,4.3544,4.3996,4.4784,4.5363,4.6137,4.7453,4.8118,4.8835,4.9919,5.0336,5.0807,5.1622,5.1725,5.1924,5.2431,5.2504,5.2504,5.2504,5.2752,5.3132,5.3657,5.3965,5.4671,5.5933,5.6271,5.6669,5.7176,5.7195,5.7195,5.7195,5.7195,5.7195,5.7195,5.7496,5.7623,5.7659,5.8449,5.8546,5.8094,5.8594,5.883,5.883,5.883,5.9398,6.0242,6.0242,6.1202,6.2608,6.2608,6.3411,6.4454,1.2525,1.3207,1.3819,0.0,0.0,0.0,0.0,0.0,0.0,0.0,0.0,0.0,0.0,0.0,0.0,0.0,0.0,0.0,1.9751,2.4213,2.703,2.7489,2.7268,2.7702,2.89,2.676,2.7016,2.9918,2.9045,2.976,3.1924,3.1579,3.1293,3.1037,3.1116,3.1147,3.1147,3.1147,3.2291,3.3916,3.1906,3.188,3.2884,3.1455,2.9923,2.8534,2.8435,2.7438,2.6261,2.705,2.7848,2.8595,2.8965,3.1476,3.4334,3.4715,3.6049,3.7789,3.9627,4.0284,4.0854,4.2586,4.3055,4.3272,4.4046,4.4843,4.5617,4.63,4.645,4.6662,4.7381,4.7616,4.8201,4.9775,5.0789,5.1634,5.2389,5.2504,5.2504,5.2504,5.2504,5.2522,5.2558,5.3241,5.3729,5.3802,5.452,5.5287,5.6017,5.6796,5.7195,5.7195,5.7195,5.7195,5.7195,5.7195,5.7224,5.7261,5.8039,5.842,5.8492,5.9337,5.9699,5.9663,5.9753,5.9771,5.9789,5.9816,6.0505,6.1586,6.1604,6.2514,6.3817,6.3774,6.403,6.4425,0.0,0.0,0.0,0.0,0.0,0.0,0.0,0.0,0.0,0.0,0.0,0.0,0.0,0.0,0.0,0.0,0.0,0.0,1.9028,2.1816,2.3844,2.4756,2.5763,2.6469,2.6784,2.6015,2.5791,2.6187,2.6191,2.6411,2.6894,2.832,2.8959,2.8938,2.9987,3.0445,3.0445,3.0445,3.0761,3.114,3.0073,2.9612,2.9675,3.0554,2.9075,2.6702,2.7946,2.7102,2.5586,2.6868,2.8689,3.0697,3.2369,3.3912,3.5285,3.6274,3.8133,4.0177,4.1555,4.2839,4.392,4.454,4.5151,4.5635,4.5847,4.6499,4.6807,4.5816,4.5617,4.549,4.5096,4.6486,4.8033,4.9047,5.0886,5.2268,5.2468,5.2504,5.2504,5.2504,5.2504,5.2733,5.3331,5.3585,5.4182,5.5329,5.5601,5.6072,5.6844,5.7086,5.7195,5.7195,5.7195,5.7195,5.7195,5.7195,5.7496,5.8094,5.8293,5.8703,5.9337,6.0742,6.1068,6.0561,6.1752,6.2284,6.2311,6.2604,6.3264,6.4114,6.4419,6.4957,6.5486,6.4895,6.4991,6.5373,0.0,0.0,0.0,0.0,0.0,0.0,0.0,0.0,0.0,0.0,0.0,0.0,0.0,0.0,0.0,0.0,0.0,0.0,0.0,1.9983,2.1682,2.2584,2.3202,2.3796,2.4358,2.3278,2.3201,2.4227,2.3732,2.4021,2.5011,2.5555,2.5966,2.6288,2.7083,2.7615,2.7917,2.7917,2.8449,0.0,0.0,2.749,2.7795,2.8001,2.6691,2.4903,2.6051,2.681,2.7517,2.9214,3.1008,3.2843,3.4857,3.598,3.6933,3.877,4.0493,4.2046,4.3181,4.4227,4.5047,4.5241,4.5635,4.5888,4.5526,4.6069,4.6282,4.5037,4.4481,4.4243,4.4272,4.586,4.7477,4.8361,5.0759,5.2504,5.2504,5.2504,5.2504,5.2504,5.2504,5.283,5.3621,5.4019,5.4725,5.5909,5.5999,5.6343,5.7158,5.7195,5.7195,5.7195,5.7195,5.7195,5.7195,5.755,5.7949,5.8402,5.9119,5.9699,6.0163,6.143,6.1955,6.1897,6.2809,6.3396,6.375,6.4164,6.4691,6.5295,6.5705,6.6101,6.6415,6.5958,6.5976,6.621,0.0,0.0,0.0,0.0,0.0,0.0,0.0,0.0,0.0,1.5967,1.5598,1.5314,1.5389,1.5382,0.0,0.0,0.0,0.0,0.0,0.0,2.0051,2.0703,2.0535,2.0911,2.1962,2.014,2.0447,2.3035,2.1709,2.2184,2.4315,2.3165,2.2932,2.3498,2.3572,2.3981,2.4595,2.4595,2.5681,2.7236,2.5354,2.5343,2.6307,0.0,2.3795,2.3281,2.3955,2.6676,3.031,3.2601,3.4006,3.5114,3.6961,3.8056,3.9145,4.1614,4.2905,4.3721,4.4685,4.5154,4.5408,4.5576,4.5707,4.5544,4.4626,4.5042,4.5236,4.3896,4.3159,4.2908,4.3406,4.4901,4.6421,4.7465,5.0233,5.2313,5.2537,5.2533,5.2557,5.2694,5.2678,5.3005,5.3911,5.4635,5.5359,5.6108,5.6162,5.6452,5.7158,5.7195,5.7195,5.7195,5.7195,5.7249,5.7351,5.8058,5.851,5.8746,6.0133,6.0905,6.1147,6.1955,6.2759,6.3515,6.3624,6.4094,6.482,6.5226,6.5645,6.6044,6.6442,6.6811,6.7111,6.6998,6.6982,6.7021,0.0,0.0,0.0,0.0,0.0,0.0,0.0,0.0,0.0,0.0,1.7092,1.5308,0.0,0.0,0.0,0.0,0.0,0.0,0.0,0.0,0.0,1.8838,1.9955,2.049,2.0312,2.0211,2.0309,2.0619,2.0455,2.0571,2.0946,2.1091,2.1229,2.1363,2.1914,2.2266,2.2435,2.2435,2.2973,2.3716,2.281,2.275,2.3181,2.2882,2.2484,0.0,2.4484,2.7171,3.0313,3.4068,3.622,3.7707,3.9746,4.0922,4.1905,4.3633,4.4864,4.5825,4.662,4.7027,4.723,4.7285,4.7779,4.7888,4.6426,4.6716,4.6119,4.1986,4.1546,4.1171,3.8757,4.1343,4.4267,4.5553,4.8624,5.1324,5.2724,5.2674,5.2831,5.3714,5.362,5.4055,5.5456,5.5728,5.6144,5.6941,5.6995,5.705,5.7188,5.7195,5.7195,5.7195,5.7195,5.7521,5.8184,5.8329,5.9065,6.038,6.0677,6.1491,6.2809,6.3624,6.4414,6.5218,6.5881,6.6441,6.6918,6.73,6.7716,6.8123,6.8522,6.8725,6.8704,6.8039,6.7905,6.7976,0.0,0.0,0.0,0.0,0.0,0.0,0.0,1.8975,2.0354,2.3425,2.2377,2.0494,1.8257,1.6818,1.5831,0.0,0.0,0.0,0.0,0.0,0.0,0.0,0.0,0.0,1.9582,1.9546,1.9356,1.9016,0.0,1.8685,1.8488,1.8568,1.8827,1.9203,1.9511,1.9882,2.0225,2.0225,2.064,2.1257,2.0936,2.1185,2.1722,2.1807,2.2054,0.0,2.4749,2.7491,3.0456,3.27,3.5956,3.9526,4.2277,4.3036,4.3326,4.5396,4.6376,4.6845,4.7206,4.75,4.7707,4.7707,4.7996,4.7634,4.5182,4.4598,4.3594,4.0172,3.9499,3.9233,3.8305,4.0766,4.3454,4.5051,4.7842,5.0402,5.2086,5.2578,5.3032,5.381,5.3907,5.4461,5.5855,5.5999,5.6325,5.714,5.7195,5.7195,5.7195,5.7195,5.7195,5.7195,5.7605,5.8003,5.8402,5.9228,6.0043,6.0815,6.1231,6.2053,6.3221,6.3812,6.4758,6.5949,6.6548,6.7143,6.773,6.8148,6.843,6.8645,6.9036,6.9206,6.9149,6.8761,6.8754,6.888,0.0,0.0,0.0,0.0,0.0,0.0,0.0,2.1635,2.3209,2.7681,2.7954,2.6224,2.2296,1.9376,1.7127,0.0,0.0,0.0,0.0,0.0,0.0,0.0,0.0,0.0,1.9324,0.0,0.0,1.8236,1.7834,0.0,0.0,0.0,0.0,0.0,1.7517,1.7803,1.8255,1.8417,1.8929,0.0,0.0,2.0384,2.123,0.0,0.0,0.0,0.0,2.7514,3.0157,3.1461,3.4865,3.9189,4.2873,4.3968,4.4272,4.628,4.7115,4.7385,4.7385,4.7538,4.7707,4.7707,4.7707,4.6876,4.3706,4.2341,4.1074,3.8601,3.7654,3.7567,3.8513,4.0468,4.2601,4.4653,4.6908,4.9145,5.1331,5.2184,5.2989,5.4111,5.4312,5.4894,5.6243,5.6308,5.6524,5.7158,5.7195,5.7195,5.7195,5.7195,5.7285,5.7448,5.8076,5.8565,5.8909,6.0163,6.0887,6.1068,6.1797,6.2631,6.3598,6.4003,6.5059,6.6601,6.6922,6.7456,6.8154,6.8467,6.8657,6.8756,6.9083,6.9206,6.9206,6.9206,6.9323,6.9537,0.0,0.0,0.0,0.0,0.0,0.0,0.0,2.3657,2.696,3.205,3.1333,2.9314,2.6613,2.3272,1.995,0.0,0.0,0.0,0.0,0.0,0.0,0.0,0.0,0.0,0.0,0.0,0.0,1.8646,1.8308,0.0,0.0,0.0,0.0,0.0,0.0,1.6965,1.6843,1.7506,0.0,0.0,0.0,0.0,0.0,0.0,0.0,0.0,0.0,2.7092,2.8796,3.2577,3.3838,3.4645,3.9417,4.2853,4.5186,4.5418,4.6522,4.7657,4.7657,4.7673,4.7707,4.7707,4.7707,4.6923,4.3935,4.2598,4.0975,3.7484,3.6685,3.6675,3.6967,3.854,4.0694,4.3496,4.4968,4.7083,5.089,5.1291,5.2397,5.5674,5.5559,5.5831,5.747,5.7297,5.7116,5.7188,5.7195,5.7195,5.7195,5.7195,5.7532,5.8275,5.8365,5.9101,6.0568,6.0724,6.1177,6.1883,6.2321,6.3345,6.484,6.5254,6.6315,6.784,6.7879,6.8136,6.8544,6.858,6.882,6.9143,6.9195,6.9206,6.9206,6.9206,6.9323,6.9537,0.0,0.0,0.0,0.0,0.0,0.0,2.3286,2.4492,2.721,3.3932,3.3741,3.2422,3.0925,2.7214,2.2397,1.6338,0.0,0.0,0.0,0.0,0.0,0.0,0.0,0.0,0.0,0.0,1.9208,1.8875,1.8951,0.0,0.0,0.0,0.0,0.0,0.0,1.6977,1.6882,1.7542,0.0,0.0,0.0,0.0,0.0,0.0,0.0,0.0,0.0,0.0,2.8764,3.0184,3.209,3.421,3.6293,3.9165,4.2217,4.4603,4.6106,4.7078,4.7562,4.7707,4.7707,4.7707,4.7453,4.6527,4.3898,4.207,4.0262,3.7978,3.6818,3.6561,3.7738,3.8577,4.0084,4.3171,4.4244,4.5592,4.8194,4.9699,5.1329,5.3565,5.463,5.594,5.7898,5.7768,5.7467,5.7213,5.7195,5.7195,5.7195,5.7195,5.7575,5.8365,5.8866,5.9663,6.0797,6.1286,6.1801,6.2351,6.252,6.3568,6.5358,6.5778,6.6841,6.8376,6.8616,6.8815,6.8969,6.8969,6.9066,6.9206,6.9206,6.9206,6.9206,6.9206,6.9407,6.9672,0.0,0.0,0.0,0.0,0.0,1.8558,2.4333,2.5133,2.7561,3.4515,3.4459,3.3546,3.2981,2.8399,2.3155,1.7676,1.6025,0.0,0.0,0.0,0.0,0.0,0.0,0.0,0.0,0.0,1.9845,1.9861,2.0232,1.9974,0.0,0.0,1.8743,1.7769,0.0,0.0,0.0,0.0,0.0,0.0,0.0,0.0,0.0,0.0,0.0,0.0,0.0,0.0,0.0,0.0,0.0,3.3436,3.4043,3.629,3.9504,4.372,4.5345,4.6069,4.7345,4.7707,4.7707,4.7707,4.7295,4.6294,4.3971,4.1803,3.984,3.8272,3.6766,3.6285,3.8073,3.8449,3.9453,4.2434,4.3121,4.4128,4.6506,4.8446,5.0413,5.2591,5.4394,5.6161,5.7926,5.7923,5.7685,5.7394,5.7275,5.7195,5.7195,5.7195,5.7677,5.8728,5.9536,6.0344,6.1141,6.183,6.2323,6.261,6.2824,6.3935,6.5784,6.6188,6.7253,6.8785,6.9083,6.9206,6.9206,6.9206,6.9206,6.9206,6.9206,6.9236,6.9294,6.9294,6.9542,6.9863,0.0,0.0,0.0,0.0,0.0,0.0,2.3515,2.5775,2.8711,3.384,3.3059,3.2027,3.2007,2.587,2.1714,2.1637,1.7754,0.0,0.0,0.0,0.0,0.0,0.0,0.0,0.0,0.0,2.1204,2.1867,2.2343,2.2363,2.1943,2.1089,1.9964,1.867,0.0,0.0,0.0,0.0,0.0,0.0,0.0,0.0,0.0,0.0,0.0,0.0,0.0,0.0,0.0,0.0,0.0,0.0,0.0,3.5067,3.7955,4.2724,4.4118,4.4644,4.706,4.7707,4.7707,4.7707,4.7295,4.6346,4.4264,4.2076,3.9939,3.7996,3.6266,3.5635,3.7389,3.7712,3.8497,4.0937,4.1222,4.255,4.6615,4.7787,4.9753,5.3893,5.551,5.6631,5.7525,5.7718,5.7798,5.7792,5.7412,5.7195,5.7195,5.7195,5.7931,5.9536,6.0362,6.1177,6.1992,6.2384,6.2603,6.2616,6.3351,6.4575,6.6211,6.662,6.7664,6.9181,6.9206,6.9206,6.9206,6.9206,6.9206,6.9206,6.9206,6.9318,6.9506,6.9506,6.9749,7.0104,0.0,0.0,0.0,0.0,0.0,0.0,0.0,2.2131,2.4162,2.8711,2.7814,2.7403,2.9131,2.4276,2.1091,2.1656,1.7773,0.0,0.0,0.0,0.0,0.0,0.0,0.0,0.0,0.0,2.2425,2.3607,2.4804,2.5152,2.4649,2.382,2.2509,2.0758,1.9422,1.8421,0.0,0.0,0.0,0.0,0.0,0.0,2.3223,0.0,0.0,0.0,0.0,0.0,0.0,0.0,0.0,0.0,0.0,0.0,0.0,3.9801,4.2123,4.3453,4.4209,4.4825,4.5154,4.478,4.4365,4.3756,4.2675,4.0835,3.9004,3.7835,3.6301,3.5518,3.667,3.733,3.8716,4.183,4.3161,4.4499,4.64,4.8614,5.0738,5.2606,5.6104,5.8371,5.8421,5.8454,5.8282,5.7833,5.7685,5.748,5.7207,5.7713,5.851,5.9572,5.9844,6.0634,6.1992,6.239,6.273,6.2953,6.4056,6.5308,6.662,6.7302,6.8203,6.9206,6.9206,6.9206,6.9206,6.9206,6.9206,6.9206,6.9206,6.9318,6.9506,6.9506,6.9754,7.0087,0.0,0.0,0.0,0.0,0.0,0.0,0.0,1.9737,2.1174,2.4498,2.3727,2.3965,2.684,2.2297,1.9753,2.154,1.7773,0.0,0.0,0.0,0.0,0.0,0.0,0.0,0.0,2.1981,2.3669,2.6476,2.7555,2.8267,2.8569,2.7556,2.5455,2.2455,2.1037,1.9578,0.0,0.0,0.0,0.0,0.0,0.0,2.3467,0.0,0.0,0.0,0.0,0.0,0.0,0.0,0.0,0.0,0.0,0.0,0.0,0.0,3.9397,4.1255,4.2763,4.3574,4.3916,4.3565,4.3196,4.2635,4.1689,4.0075,3.8482,3.7413,3.6137,3.5473,3.6347,3.7156,3.8498,4.0979,4.2664,4.4309,4.6117,4.844,5.093,5.3592,5.6836,5.8878,5.8972,5.8868,5.8571,5.8029,5.7874,5.7625,5.7213,5.7677,5.8456,5.9554,5.9898,6.0757,6.2217,6.2592,6.2977,6.3342,6.4271,6.5453,6.6816,6.7317,6.8152,6.9206,6.9206,6.9206,0.0,6.9206,6.9206,6.9206,6.9206,6.9318,6.9516,6.9597,6.9816,7.01,0.0,0.0,0.0,0.0,0.0,0.0,0.0,1.8398,1.9512,2.1202,2.0722,2.1439,2.4609,1.9893,1.7795,2.0977,0.0,0.0,0.0,0.0,0.0,0.0,0.0,0.0,0.0,2.2185,2.4934,2.9908,3.0374,3.1486,3.314,3.183,2.8663,2.4029,2.3043,2.1107,0.0,0.0,0.0,0.0,2.2567,2.281,0.0,0.0,0.0,0.0,0.0,0.0,0.0,0.0,0.0,0.0,0.0,0.0,0.0,0.0,0.0,0.0,0.0,4.3308,4.3432,4.3341,4.3098,4.2484,4.0999,3.9605,0.0,3.6803,3.5815,3.5473,3.6407,3.7194,3.8039,3.9104,4.0613,4.2794,4.6029,4.791,5.0923,5.6274,5.7661,5.8478,5.9234,5.9024,5.8691,5.8355,5.8051,5.7679,5.7275,5.7239,5.7975,5.9582,6.0379,6.1351,6.2585,6.2935,6.3295,6.3705,6.4174,6.5233,6.6797,6.6853,6.7725,6.9206,6.9206,6.9206,6.9206,6.9206,6.9206,6.9206,6.9206,6.9329,6.9533,6.9725,6.9932,7.0148,0.0,0.0,0.0,0.0,0.0,0.0,0.0,0.0,0.0,0.0,1.8026,1.7829,1.8629,1.6843,1.5929,0.0,0.0,0.0,0.0,0.0,0.0,0.0,0.0,0.0,0.0,2.381,2.6284,2.9908,3.1836,3.3457,3.4745,3.3805,3.1308,2.7505,2.546,2.3078,0.0,0.0,0.0,0.0,2.3426,2.3511,0.0,0.0,0.0,0.0,2.5694,2.6867,0.0,0.0,0.0,0.0,0.0,0.0,0.0,0.0,3.5868,3.656,3.8364,0.0,3.9954,3.8867,3.9118,3.9395,0.0,3.7671,3.6945,3.657,3.5815,3.5645,3.7139,3.7561,3.8612,4.1457,4.3805,4.6023,4.8142,5.1812,5.4976,5.6838,5.8212,5.9084,5.9271,5.923,5.9039,5.8706,5.8608,5.8293,5.7679,5.7661,5.8397,6.0004,6.0235,6.1065,6.2585,6.2935,6.3295,6.3705,6.4725,6.5773,6.6816,6.7444,6.8259,6.9206,6.9206,6.9206,6.9206,6.9206,6.9206,6.9206,6.9206,6.9423,6.9735,6.9778,7.0014,7.0338,0.0,0.0,0.0,0.0,0.0,0.0,0.0,0.0,0.0,0.0,0.0,0.0,0.0,0.0,0.0,0.0,0.0,0.0,0.0,0.0,0.0,0.0,0.0,0.0,2.2869,2.4446,2.7173,3.1088,3.2748,3.463,3.6653,3.5768,3.3308,2.948,2.5826,2.3217,0.0,0.0,0.0,0.0,2.3484,0.0,0.0,0.0,0.0,0.0,2.5894,2.7051,0.0,3.1214,3.2886,3.3856,0.0,0.0,0.0,0.0,3.5382,3.5565,3.6181,3.7626,3.878,3.8024,3.8275,3.8536,3.7804,3.7059,3.6385,3.5986,3.553,3.5606,3.6908,3.84,4.0045,4.1898,4.5299,4.8677,5.1462,5.5043,5.7608,5.8182,5.9292,5.9833,5.9356,5.929,5.9168,5.8823,5.8798,5.8571,5.8057,5.8389,5.9148,6.0398,6.0809,6.1701,6.3086,6.3279,6.3582,6.3984,6.4634,6.5604,6.6816,6.7242,6.8095,6.9206,6.9206,6.9206,6.9206,6.9206,6.9206,6.9217,6.9292,6.9466,6.9681,6.9867,7.0082,7.0283,0.0,0.0,0.0,0.0,0.0,0.0,0.0,0.0,0.0,0.0,0.0,0.0,0.0,0.0,0.0,0.0,0.0,0.0,0.0,0.0,0.0,0.0,0.0,0.0,2.3551,2.4853,2.781,3.2529,3.3634,3.5602,3.8291,3.7682,3.4983,3.0455,2.5869,2.319,0.0,0.0,0.0,2.4075,2.3391,0.0,0.0,0.0,0.0,0.0,0.0,0.0,0.0,3.1672,3.3519,3.4628,3.5379,0.0,0.0,0.0,0.0,0.0,3.5398,3.7226,3.8894,3.838,3.8525,3.8534,3.7542,3.6886,3.629,3.5549,3.5492,3.6008,3.7398,3.9754,4.1748,4.2531,4.6505,5.082,5.4612,5.7205,5.8885,5.9389,6.0179,6.0331,5.9388,5.929,5.9187,5.8906,5.8873,5.8727,5.8393,5.9151,5.9952,6.0768,6.163,6.2621,6.3781,6.3727,6.3897,6.4294,6.4294,6.5177,6.6797,6.6797,6.7688,6.9206,6.9206,6.9206,6.9206,6.9206,6.9209,6.9262,6.943,6.9547,6.9627,6.9969,7.0122,7.017,0.0,0.0,0.0,0.0,0.0,0.0,0.0,0.0,0.0,0.0,0.0,0.0,0.0,0.0,0.0,0.0,0.0,0.0,0.0,0.0,0.0,0.0,0.0,0.0,0.0,2.639,2.8494,3.2577,3.5481,3.7378,3.8332,3.9586,3.6851,3.076,2.8547,2.5894,2.3132,0.0,2.4147,2.4261,2.4135,0.0,0.0,0.0,0.0,0.0,0.0,0.0,0.0,2.9483,3.1264,3.2661,3.2917,0.0,0.0,0.0,0.0,0.0,3.6699,3.8664,3.9363,3.6481,3.682,3.7483,3.5933,3.6063,3.6462,3.6328,3.6831,3.8457,4.2156,4.2104,4.2913,4.7232,4.9786,5.2181,5.4969,5.677,5.8045,5.8678,5.9362,5.9673,5.9327,5.929,5.9272,5.923,5.9225,5.9073,5.8737,5.9545,6.0383,6.1172,6.2007,6.2998,6.4195,6.387,6.3897,6.4294,6.4294,6.5177,6.6797,6.6797,6.7688,6.9206,6.9206,6.9206,6.9206,6.9206,6.931,6.9455,6.9496,6.9706,7.0024,7.0082,7.0205,7.0355,0.0,0.0,0.0,0.0,0.0,0.0,0.0,0.0,0.0,0.0,0.0,0.0,0.0,0.0,0.0,0.0,0.0,0.0,0.0,0.0,0.0,0.0,0.0,0.0,0.0,0.0,3.113,3.4543,3.7431,3.9356,4.0262,3.8823,3.5556,3.0799,2.8235,2.5728,2.3436,2.3739,2.3818,2.3796,0.0,0.0,0.0,0.0,0.0,0.0,0.0,0.0,0.0,0.0,3.1033,3.2562,3.3107,0.0,0.0,0.0,0.0,0.0,3.6018,3.7597,3.8627,3.7538,3.9198,4.1034,4.0731,4.0592,4.0435,3.9981,4.0193,4.1187,4.357,4.4508,4.6574,5.1677,5.3145,5.4537,5.7058,5.8382,5.9321,5.9872,6.0213,6.0112,5.9379,5.929,5.929,5.929,5.929,5.9234,5.9078,6.0308,6.1187,6.1556,6.2802,6.374,6.4294,6.4123,6.4123,6.4294,6.4294,6.4928,6.6111,6.6585,6.7493,6.8739,6.9177,6.9414,6.9521,6.9521,6.9582,6.9667,6.9778,6.9932,7.0118,7.0218,7.0321,7.0392,0.0,0.0,0.0,0.0,0.0,0.0,0.0,0.0,0.0,0.0,0.0,0.0,0.0,0.0,0.0,0.0,0.0,0.0,0.0,0.0,0.0,0.0,0.0,0.0,0.0,0.0,3.4314,3.7687,4.0048,4.1595,4.2273,3.8315,3.4671,3.1344,2.8033,2.5523,2.3769,2.3477,2.3369,2.3446,0.0,0.0,0.0,0.0,0.0,0.0,0.0,0.0,0.0,0.0,0.0,0.0,0.0,0.0,0.0,3.5112,3.4766,3.4785,3.557,3.6871,3.8307,3.9563,4.1375,4.3209,4.4666,4.4339,4.3703,4.367,4.3823,4.4281,4.5289,4.7564,5.0621,5.4728,5.5552,5.6488,5.8777,5.9663,6.0278,6.0768,6.0822,6.0415,5.9407,5.929,5.929,5.929,5.929,5.9384,5.9591,6.1003,6.1886,6.2092,6.3519,6.4294,6.4294,6.4294,6.4294,6.4294,6.4294,6.4721,6.5518,6.6186,6.7155,6.8332,6.8959,6.9438,6.9797,6.9797,6.9825,6.9881,7.0051,7.0135,7.0187,7.0342,7.0392,7.0392,0.0,0.0,0.0,0.0,0.0,0.0,0.0,0.0,0.0,0.0,0.0,0.0,0.0,0.0,0.0,0.0,0.0,0.0,0.0,0.0,0.0,0.0,0.0,0.0,0.0,3.5481,3.7473,4.2054,4.3852,4.4262,4.3316,3.9779,3.6361,3.3073,2.9727,2.6875,2.4553,2.3802,2.3523,2.3642,2.4464,0.0,0.0,0.0,0.0,0.0,0.0,0.0,0.0,0.0,0.0,0.0,0.0,0.0,3.4163,3.4105,3.3507,3.3559,3.6661,3.8209,3.9487,4.1915,4.0938,4.0191,4.3379,4.3477,4.3517,4.5771,4.6877,4.7927,4.9554,5.1926,5.4027,5.5205,5.6036,5.7125,5.8854,5.9159,5.9394,5.9915,5.9988,5.9809,5.9332,5.929,5.929,5.929,5.929,5.9647,6.0468,6.1337,6.2168,6.2989,6.3857,6.4294,6.4294,6.4294,6.4294,6.4294,6.4294,6.4721,6.5499,6.5556,6.6585,6.8294,6.8369,6.8927,6.9797,6.9797,6.9904,7.0087,7.0081,7.0209,7.0375,7.0387,7.0392,7.0392,0.0,0.0,0.0,0.0,0.0,0.0,0.0,0.0,0.0,0.0,0.0,0.0,0.0,0.0,0.0,0.0,0.0,0.0,0.0,0.0,0.0,0.0,0.0,3.2029,3.6545,3.7897,4.1124,4.6419,4.6491,4.5742,4.4134,3.9266,3.5724,3.3269,2.891,2.7032,2.6961,2.4585,2.4183,2.5138,2.504,2.5033,0.0,0.0,0.0,0.0,0.0,0.0,0.0,0.0,2.8205,3.0225,3.0312,3.2376,3.4751,3.4751,3.4518,3.4649,3.6466,3.8357,4.0038,4.0993,4.1681,4.313,4.703,4.8099,4.8675,5.0111,5.0684,5.0948,5.1079,5.3607,5.5597,5.5438,5.6947,5.838,5.9007,5.9568,5.9929,6.0015,5.9954,5.9795,5.9513,5.9378,5.929,5.929,5.929,5.9684,6.0539,6.1355,6.2205,6.3064,6.3876,6.4294,6.4294,6.4294,6.4294,6.4294,6.4294,6.4463,6.4777,6.5279,6.6021,6.6985,6.8035,6.8843,6.947,6.9965,7.0213,7.0296,7.0296,7.0334,7.0392,7.0392,7.0392,7.0392,0.0,0.0,0.0,0.0,0.0,0.0,0.0,0.0,0.0,0.0,0.0,0.0,0.0,0.0,0.0,0.0,0.0,0.0,0.0,0.0,0.0,0.0,0.0,3.2295,3.6479,3.9308,4.2861,4.7216,4.6809,4.5455,4.314,3.8404,3.5546,3.4142,2.942,0.0,2.9586,2.5962,2.5098,2.6103,2.5386,2.5114,0.0,0.0,0.0,0.0,0.0,0.0,0.0,0.0,2.7515,2.9497,2.9947,3.2086,3.4516,3.5033,3.557,3.6182,3.7056,3.8756,4.0552,4.1605,4.3152,4.5521,4.9745,5.0757,5.1353,5.3225,5.3171,5.296,5.3489,5.4811,5.5979,5.6488,5.7994,5.9198,5.9469,6.001,6.0303,6.0068,5.9962,5.9799,5.9531,5.9387,5.929,5.929,5.929,5.9797,6.0919,6.1506,6.2318,6.3444,6.4072,6.4364,6.4294,6.4423,6.4457,6.4394,6.4394,6.4359,6.4313,6.4871,6.5486,6.6157,6.7304,6.8335,6.9234,6.9784,7.0166,7.0392,7.0392,7.0392,7.0392,7.0392,7.0392,7.0392,0.0,0.0,0.0,0.0,0.0,0.0,0.0,0.0,0.0,0.0,0.0,0.0,0.0,0.0,0.0,0.0,0.0,0.0,1.6331,1.8737,2.086,0.0,0.0,3.2155,3.6349,3.9718,4.2194,4.3808,4.453,4.323,4.0011,3.7429,3.6185,0.0,0.0,0.0,3.2229,2.8015,2.6279,2.6258,2.5449,2.5166,2.521,0.0,0.0,0.0,0.0,0.0,0.0,0.0,2.77,2.8271,3.1609,3.2697,3.3041,3.4709,3.6375,3.7867,3.8722,3.9637,4.1127,4.4442,4.5302,4.6465,5.064,5.0321,5.0327,5.454,5.4046,5.3878,5.7259,5.5842,5.5228,5.8548,5.9102,5.9411,6.0281,6.0396,6.0286,5.9942,5.9897,5.9734,5.9336,5.9295,5.929,5.929,5.929,6.0027,6.1717,6.1792,6.2567,6.4243,6.4496,6.4506,6.4304,6.4699,6.4809,6.4601,6.4601,6.4496,6.4299,6.4294,6.4944,6.6081,6.61,6.7264,6.9196,6.9196,6.9674,7.0392,7.0392,7.0392,7.0392,7.0392,7.0392,7.0392,0.0,0.0,0.0,0.0,0.0,0.0,0.0,0.0,0.0,0.0,0.0,0.0,0.0,0.0,0.0,0.0,0.0,0.0,1.6416,1.9307,2.152,2.2698,2.6994,2.9958,3.1263,3.3924,3.8144,4.3949,4.4165,4.223,3.8318,3.7018,0.0,3.4463,0.0,0.0,0.0,2.9325,2.8362,2.8792,2.7457,2.6578,2.6044,0.0,0.0,0.0,0.0,0.0,0.0,0.0,0.0,0.0,2.9546,3.1689,3.3702,3.4218,3.5114,3.5991,3.6258,3.9124,4.2144,4.2529,4.6214,5.007,5.1308,5.1658,5.2562,5.5616,5.5826,5.5772,5.6801,5.7332,5.7768,5.8189,5.9243,6.0106,6.0358,6.0396,6.0364,6.0252,6.0041,5.9853,5.9725,5.9473,5.929,5.929,5.929,6.0027,6.1717,6.1792,6.263,6.4449,6.4568,6.4634,6.4717,6.485,6.4876,6.4818,6.4818,6.4703,6.4506,6.4364,6.4652,6.5291,6.5849,6.6922,6.8379,6.9559,7.0181,7.0392,7.0392,7.0392,7.0392,7.0392,7.0392,7.0392,0.0,0.0,0.0,0.0,0.0,0.0,0.0,0.0,1.5094,1.5094,1.5551,1.5934,0.0,0.0,0.0,1.664,1.7241,0.0,1.7895,2.0121,2.2288,2.4188,2.6979,2.9138,3.0503,3.3251,3.6101,3.8983,4.0017,3.902,3.6187,0.0,0.0,3.5878,0.0,3.5958,0.0,3.2429,3.1034,3.0453,2.9209,2.7988,2.6918,0.0,0.0,0.0,0.0,0.0,0.0,0.0,0.0,0.0,2.8085,2.9868,3.1952,3.4339,3.6077,3.767,3.9656,4.2696,4.5509,4.6293,4.9076,5.1958,5.3279,5.3702,5.4467,5.6667,5.6591,5.6533,5.7855,5.8383,5.8689,5.8864,5.9746,6.0396,6.0396,6.0396,6.0371,6.0292,6.0091,5.9938,5.9799,5.9562,5.9392,5.9318,5.9628,6.0398,6.1736,6.213,6.3016,6.4554,6.4671,6.4786,6.4903,6.5031,6.505,6.4982,6.4982,6.4922,6.4788,6.461,6.4694,6.502,6.5937,6.693,6.802,6.9368,7.0109,7.0392,7.0392,7.0392,7.0392,7.0392,7.0392,7.0392,0.0,0.0,0.0,0.0,0.0,0.0,0.0,1.5068,1.5094,1.5094,1.5094,1.5707,0.0,0.0,0.0,1.8649,1.8264,1.8545,2.0004,2.1045,2.3006,2.6147,2.7341,2.9422,3.2621,3.5456,3.5057,3.1289,3.3925,3.4713,0.0,0.0,3.819,3.8913,0.0,3.9694,0.0,3.5857,3.341,3.1213,3.0414,2.9134,2.7698,2.7604,0.0,0.0,0.0,0.0,0.0,0.0,0.0,0.0,2.7221,2.7806,2.8924,3.4518,3.8017,4.1082,4.5731,4.7971,4.9754,5.2957,5.2897,5.2859,5.5906,5.6091,5.6087,5.7676,5.6797,5.6679,5.9819,5.9151,5.8635,6.0148,6.0396,6.0396,6.0396,6.0396,6.0324,6.0155,6.0102,5.9986,5.9668,5.962,5.9513,5.9323,6.0112,6.0956,6.1754,6.2632,6.3566,6.4601,6.4795,6.4902,6.4956,6.5243,6.5302,6.5132,6.5132,6.5132,6.5128,6.4961,6.497,6.5158,6.6237,6.7152,6.7977,6.8837,6.967,7.0392,7.0392,7.0392,7.0392,7.0392,7.0392,7.0392,0.0,0.0,0.0,0.0,0.0,0.0,1.507,1.5088,1.5094,1.5094,1.5094,1.5495,1.6544,1.7069,0.0,1.7855,1.8972,1.9547,1.9276,2.1316,2.3123,2.4489,2.783,3.063,3.2659,3.1456,3.0676,3.0454,3.3641,3.4097,0.0,0.0,0.0,3.8058,0.0,3.872,0.0,3.2611,3.0951,3.0378,2.9511,2.8594,2.7623,2.6937,2.5638,0.0,0.0,0.0,0.0,0.0,0.0,0.0,2.7045,2.8269,2.9309,3.1901,3.54,3.8778,4.0446,4.4413,4.858,5.0605,5.3343,5.5712,5.6441,5.6992,5.7635,5.8644,5.8567,5.8724,6.0148,6.0109,5.9976,6.0339,6.0396,6.0396,6.0396,6.0396,6.0382,6.035,6.0193,6.0037,5.9853,5.9698,5.9513,5.9323,6.0112,6.0956,6.1754,6.2632,6.3629,6.4794,6.4881,6.5027,6.5282,6.5356,6.5379,6.5345,6.5345,6.5345,6.5333,6.5036,6.497,6.5158,6.6237,6.7152,6.7977,6.8837,6.967,7.0392,7.0392,7.0392,7.0392,7.0392,7.0392,7.0392,0.0,0.0,0.0,0.0,0.0,0.0,0.0,0.0,1.6166,1.5761,1.5722,1.6048,1.6871,1.7018,0.0,0.0,1.8833,1.9605,1.9573,2.1215,2.3082,2.511,2.8803,3.0472,2.9704,2.9169,2.833,2.7186,3.0164,3.1557,0.0,0.0,0.0,3.7752,0.0,3.7805,0.0,3.3165,3.1677,3.0227,3.0579,2.9509,2.7642,2.7205,2.5465,2.3287,2.3287,0.0,0.0,0.0,0.0,0.0,0.0,0.0,2.7894,3.0836,3.4059,3.7545,4.1598,4.5789,4.9608,5.2114,5.4409,5.6243,5.7049,5.7565,5.8249,5.9472,5.9392,5.9373,6.024,6.0396,6.0396,6.0396,6.0396,6.0396,6.0396,6.0396,6.0396,6.0396,6.0303,6.014,5.9918,5.9858,5.9685,5.9337,6.0557,6.1455,6.1778,6.2994,6.4048,6.4871,6.4903,6.5065,6.5391,6.5394,6.5394,6.5394,6.5394,6.5394,6.5387,6.5211,6.5183,6.5275,6.5834,6.656,6.7381,6.8226,6.9066,6.9861,7.0243,7.0392,7.0392,7.0392,7.0392,7.0392,0.0,0.0,0.0,0.0,0.0,0.0,0.0,0.0,0.0,1.6678,1.6601,1.6851,1.7527,1.7006,1.6882,0.0,0.0,0.0,2.0152,2.1427,2.3445,2.6374,2.9411,2.9726,2.6883,2.805,2.7265,2.4336,2.6439,2.8865,0.0,0.0,0.0,3.7733,0.0,0.0,0.0,0.0,0.0,3.007,3.1326,3.0084,0.0,0.0,0.0,2.2792,2.2658,2.2696,2.2925,2.3668,0.0,0.0,0.0,0.0,2.5984,2.9971,3.3046,3.6598,4.3352,4.7713,5.1147,5.4543,5.5518,5.5995,5.7361,5.7935,5.8541,5.9906,5.972,5.9545,6.0262,6.0396,6.0396,6.0396,6.0396,6.0396,6.0396,6.0396,6.0396,6.0396,6.0371,6.0234,5.9966,5.9983,5.9831,5.9396,6.1036,6.1977,6.1802,6.3427,6.452,6.4894,6.4915,6.5076,6.5394,6.5394,6.5394,6.5394,6.5394,6.5394,6.5394,6.5394,6.5394,6.5394,6.5394,6.5891,6.6747,6.7423,6.8283,6.9273,6.9937,7.0277,7.0392,7.0392,7.0392,7.0392,0.0,0.0,0.0,0.0,0.0,0.0,0.0,0.0,0.0,0.0,1.7449,1.7488,1.7584,1.7491,1.7477,1.7584,1.8402,1.9288,2.0131,0.0,0.0,2.6449,2.8261,2.9034,2.8588,2.8104,2.7262,2.6079,2.6404,2.8255,0.0,0.0,0.0,3.7676,0.0,0.0,0.0,0.0,0.0,0.0,0.0,0.0,0.0,0.0,0.0,2.3629,2.2868,2.3096,2.3743,2.3857,2.3978,0.0,0.0,0.0,2.4983,2.7714,3.1325,3.5124,3.8301,4.4703,5.1278,5.4565,5.6004,5.6641,5.6747,5.8023,5.9201,5.9254,5.9778,6.0262,6.0377,6.0396,6.0396,6.0396,6.0396,6.0396,6.0396,6.0396,6.0396,6.0396,6.0256,6.0129,6.0083,5.9834,5.9636,5.9576,6.0989,6.184,6.1792,6.3544,6.4662,6.4894,6.501,6.5188,6.5394,6.5394,6.5394,6.5394,6.5394,6.5394,6.5394,6.5394,6.5394,6.5394,6.5394,6.5891,6.6709,6.6823,6.7782,6.9219,6.9311,6.9784,7.0392,7.0392,7.0392,7.0392,0.0,0.0,0.0,0.0,0.0,0.0,0.0,0.0,0.0,0.0,0.0,1.8326,1.8326,1.7889,1.7419,1.6977,1.772,1.8397,1.8762,2.1055,2.2782,2.3662,2.5276,2.5926,2.5449,2.5076,2.4708,2.4327,2.4787,2.7203,0.0,3.3444,3.5316,0.0,0.0,0.0,0.0,0.0,0.0,0.0,0.0,0.0,0.0,0.0,0.0,2.5731,2.3422,2.2849,2.3249,2.3744,2.3988,2.4245,2.5138,0.0,0.0,0.0,2.8226,3.2324,3.9485,4.5858,5.1303,5.4672,5.5821,5.6268,5.6774,5.7813,5.8786,5.9195,5.986,6.0396,6.0396,6.0396,6.0396,6.0396,6.0396,6.0396,6.0396,6.0396,6.0396,6.0396,6.0313,6.0215,6.0102,5.996,5.9998,6.0247,6.1322,6.2165,6.2627,6.3894,6.4721,6.4998,6.5071,6.5193,6.5394,6.5394,6.5394,6.5394,6.5394,6.5394,6.5394,6.5394,6.5394,6.5394,6.5394,6.5624,6.6006,6.6499,6.7129,6.7836,6.8302,6.8684,6.9062,6.9559,6.9731,6.9784,0.0,0.0,0.0,0.0,0.0,0.0,0.0,0.0,0.0,0.0,0.0,1.9126,1.8917,0.0,0.0,0.0,1.7381,1.8019,1.8036,1.9804,2.0942,2.1165,2.2777,2.3265,2.2418,2.2595,2.2703,2.2703,0.0,0.0,3.2074,3.2949,3.4819,0.0,3.5248,3.3607,0.0,0.0,0.0,0.0,0.0,0.0,0.0,2.9179,2.9349,2.9744,2.5907,2.4664,2.4777,2.4377,2.4305,2.4515,2.5166,2.4723,0.0,0.0,0.0,2.9848,3.9623,4.4925,4.8752,5.3182,5.4515,5.5074,5.6427,5.7294,5.8027,5.8624,5.9441,6.0068,6.0068,6.0243,6.0396,6.0396,6.0396,6.0396,6.0396,6.0396,6.0396,6.0396,6.0342,6.0285,6.0185,6.0103,6.0308,6.0909,6.166,6.2478,6.3325,6.4208,6.4812,6.5081,6.5153,6.5252,6.5394,6.5394,6.5394,6.5394,6.5394,6.5394,6.5394,6.5394,6.5394,6.5394,6.5394,6.5394,6.5452,6.6097,6.6499,6.6766,6.7362,6.771,6.7981,6.8627,6.8875,6.899,0.0,0.0,0.0,0.0,0.0,0.0,0.0,0.0,0.0,0.0,0.0,1.9752,1.8973,1.8859,1.8181,1.6541,1.7885,1.8861,1.8938,2.1282,2.195,2.0346,2.1873,0.0,2.1583,2.2311,2.2703,2.2703,0.0,0.0,3.3876,3.4692,3.6867,3.9959,3.6619,3.5091,3.4785,0.0,3.0112,3.0284,3.2691,3.2728,3.1843,3.6506,3.7827,3.653,3.1583,3.03,3.0353,2.6448,2.5171,2.5248,2.5283,2.4234,2.299,0.0,0.0,0.0,3.54,3.8606,4.1709,4.8956,5.1572,5.2957,5.5176,5.6438,5.7112,5.6963,5.8135,5.9179,5.9179,5.9838,6.0396,6.0396,6.0396,6.0396,6.0396,6.0396,6.0396,6.0396,6.0222,6.0185,6.0371,6.0095,6.0311,6.1293,6.1813,6.2522,6.353,6.4401,6.4944,6.5104,6.5283,6.5387,6.5394,6.5394,6.5394,6.5394,6.5394,6.5394,6.5394,6.5394,6.5394,6.5394,6.5394,6.5394,6.5394,6.5452,6.5945,6.6709,6.6747,6.7228,6.7905,6.7943,6.7977,6.8096,0.0,0.0,0.0,0.0,0.0,0.0,0.0,0.0,0.0,0.0,0.0,0.0,0.0,2.0178,1.9832,1.8143,1.8076,1.8136,1.8169,1.9537,0.0,1.9457,2.0536,2.1006,2.0674,2.0958,2.1357,0.0,0.0,2.6577,3.1583,3.242,3.4632,3.7761,3.5458,3.4713,3.4919,3.047,2.9212,3.038,3.2361,3.408,3.5592,3.6905,3.8531,3.9625,3.5666,3.3047,3.1234,2.9747,2.8204,2.6622,2.5037,2.4155,2.3537,2.2476,2.4417,2.8008,3.3024,3.6858,4.0705,4.6136,4.9438,5.1745,5.3211,5.5392,5.7076,5.7017,5.8127,5.9102,5.9102,5.9816,6.0396,6.0396,6.0396,6.0396,6.0396,6.0396,6.0396,6.0396,6.0347,6.0313,6.0389,6.0163,6.0418,6.1332,6.1955,6.2734,6.3742,6.4571,6.511,6.5283,6.5364,6.5394,6.5394,6.5394,6.5394,6.5394,6.5394,6.5394,6.5394,6.5394,6.5394,6.5394,6.5394,6.5394,6.5394,6.5394,6.5585,6.5872,6.5872,6.6044,6.6353,6.6923,6.7133,6.7247,0.0,0.0,0.0,1.6278,0.0,1.6973,1.8205,1.8912,1.9485,0.0,0.0,0.0,0.0,0.0,2.1244,1.986,1.9004,1.8413,1.812,1.8918,1.9266,1.8989,1.9792,2.0246,2.0199,2.0194,0.0,0.0,0.0,0.0,0.0,3.0968,3.3295,3.6385,3.3853,3.3817,3.5356,3.1154,3.0029,3.131,3.4403,3.6143,3.7139,3.9735,4.1397,4.1972,3.9181,3.6755,3.477,3.4216,3.292,3.0976,2.7636,2.509,2.3167,2.2378,2.3989,2.6751,3.0069,3.3662,3.7696,4.2817,4.5833,4.8461,5.1976,5.4163,5.5682,5.6507,5.7556,5.8307,5.8279,5.8975,5.9746,6.03,6.0396,6.0396,6.0396,6.0396,6.0396,6.0396,6.0396,6.0396,6.0396,6.0281,6.0673,6.1812,6.2254,6.3032,6.4338,6.4851,6.5189,6.5391,6.5394,6.5394,6.5394,6.5394,6.5394,6.5394,6.5394,6.5394,6.5394,6.5394,6.5394,6.5394,6.5394,6.5394,6.5394,6.5394,6.5394,6.5394,6.5394,6.5394,6.5471,6.604,6.625,6.6384,0.0,1.6878,1.694,1.7053,1.7242,1.7421,1.7532,1.9039,2.0168,0.0,0.0,0.0,0.0,0.0,0.0,2.1578,2.074,1.9896,1.9034,1.9733,1.9813,1.8978,0.0,0.0,0.0,0.0,0.0,0.0,0.0,0.0,0.0,0.0,3.3104,3.6099,3.2019,3.2497,3.6194,3.3633,3.2621,3.3232,3.903,3.8973,3.6411,4.5531,4.6978,4.3932,4.2335,4.1672,4.1325,3.9737,3.9047,3.801,3.2958,2.6915,2.1874,2.2751,2.3657,2.4743,0.0,0.0,0.0,3.8838,4.067,4.2998,5.1275,5.2583,5.2736,5.5183,5.6211,5.6659,5.661,5.7317,5.8425,6.0052,6.0358,6.0377,6.0396,6.0396,6.0396,6.0396,6.0396,6.0396,6.0396,6.0415,6.1119,6.2735,6.2719,6.3447,6.5272,6.5205,6.5193,6.5391,6.5394,6.5394,6.5394,6.5394,6.5394,6.5394,6.5394,6.5394,6.5394,6.5394,6.5394,6.5394,6.5394,6.5394,6.5394,6.5394,6.5394,6.5394,6.5394,6.5394,6.5394,6.5394,6.5394,6.5528,1.7589,1.7265,1.7391,1.8726,1.9071,1.9634,2.0962,2.1589,2.1911,0.0,0.0,0.0,0.0,0.0,0.0,2.4102,2.2848,2.166,2.0836,2.0427,2.0085,1.9845,2.0078,2.0204,2.0205,0.0,0.0,0.0,0.0,0.0,0.0,0.0,0.0,3.0977,3.0433,3.1199,3.2722,3.0162,3.0852,3.3891,3.6736,3.9007,4.1113,4.492,4.6907,4.7706,4.7818,4.5905,4.3324,4.3503,4.0291,3.5289,2.971,2.6303,2.4171,2.3273,2.4515,2.6282,2.6769,0.0,0.0,0.0,0.0,0.0,4.437,4.6976,4.9378,5.2422,5.3582,5.4575,5.6279,5.7317,5.8043,5.852,5.9071,5.9682,6.032,6.0396,6.0396,6.0396,6.0396,6.0396,6.0396,6.0927,6.1459,6.1917,6.308,6.3978,6.45,6.5032,6.5349,6.5394,6.5394,6.5394,6.5394,6.5394,6.5394,6.5394,6.5394,6.5394,6.5394,6.5394,6.5394,6.5394,6.5394,6.5394,6.5394,6.5394,6.5394,6.5394,6.5394,6.5394,6.5394,6.5394,6.5394,6.5433,1.8503,1.8705,1.9392,2.0926,2.1597,2.2514,2.4352,2.4388,2.4321,0.0,0.0,0.0,0.0,0.0,0.0,0.0,2.4702,2.3241,2.2033,2.0859,2.0191,2.0161,2.0518,2.0705,2.0698,2.0739,0.0,0.0,0.0,0.0,0.0,0.0,0.0,2.7375,2.7897,2.8964,3.0294,2.8462,2.9935,3.3794,3.7593,3.9754,4.1134,4.5302,4.6923,4.7229,4.912,4.7758,4.5272,4.6863,4.2908,3.6757,3.3414,2.9843,2.6656,2.5435,2.6667,2.8322,2.8023,2.9564,3.1642,3.3372,0.0,0.0,4.3162,4.5812,4.8429,5.2764,5.3945,5.4586,5.5925,5.655,5.6969,5.7297,5.8058,5.8895,5.9739,5.9854,5.9991,6.0358,6.0396,6.053,6.087,6.1325,6.1898,6.2628,6.3625,6.4351,6.4676,6.5146,6.5394,6.5394,6.5394,6.5394,6.5394,6.5394,6.5394,6.5394,6.5394,6.5394,6.5394,6.5394,6.5394,6.5394,6.5394,6.5394,6.5394,6.5394,6.5394,6.5394,6.5394,6.5394,6.5394,6.5394,6.5394,6.5394,0.0,2.0702,2.2148,2.3332,2.4409,2.5721,2.7617,2.7342,2.7236,0.0,0.0,0.0,0.0,0.0,0.0,0.0,2.661,2.4741,2.3004,2.1286,2.0255,2.0112,2.0928,2.1393,2.1407,2.1455,2.1456,0.0,0.0,0.0,0.0,0.0,0.0,2.4922,2.5018,2.6442,2.8742,2.8308,3.0103,3.3769,3.9713,4.0673,3.9302,4.6181,4.7092,4.5117,4.8241,4.8372,4.7357,4.9248,4.6058,4.1105,4.0149,3.5578,3.0265,2.8734,2.9752,3.1147,3.0109,3.1038,3.2631,3.413,3.45,0.0,4.4265,4.6169,4.7887,5.3441,5.4564,5.4583,5.4745,5.467,5.4819,5.5533,5.6607,5.775,5.8934,5.9179,5.9526,6.032,6.0396,6.0683,6.1402,6.1554,6.228,6.3931,6.4236,6.4657,6.5356,6.5394,6.5394,6.5394,6.5394,6.5394,6.5394,6.5394,6.5394,6.5394,6.5394,6.5394,6.5394,6.5394,6.5394,6.5394,6.5394,6.5394,6.5394,6.5394,6.5394,6.5394,6.5394,6.5394,6.5394,6.5394,6.5394,6.5394,2.1071,2.1969,2.3238,2.4867,2.6457,2.8167,3.0101,3.0284,3.0558,3.1588,0.0,0.0,0.0,0.0,0.0,0.0,0.0,2.6504,2.4806,2.248,2.0853,2.0131,2.0929,2.1393,2.1407,2.1418,2.1418,2.1407,2.0543,2.0195,2.0363,2.123,0.0,2.3138,2.3842,2.5559,2.804,2.9893,3.303,3.6776,3.7459,4.0174,4.406,4.6194,4.7876,4.9248,5.0624,5.0888,5.0258,4.8007,4.7302,4.6082,3.8644,3.8154,3.8993,3.2108,3.3306,3.6231,3.3329,3.3255,3.4091,3.4423,3.45,0.0,3.7505,3.914,4.121,4.4994,4.6264,4.7287,4.9218,4.9531,4.9584,4.9738,5.2113,5.5167,5.8603,5.9701,6.0205,6.0377,6.0396,6.0453,6.0625,6.1214,6.2032,6.3079,6.4401,6.5222,6.5394,6.5394,6.5394,6.5394,6.5394,6.5394,6.5394,6.5394,6.5394,6.5394,6.5394,6.5394,6.5394,6.5394,6.5394,6.5394,6.5394,6.5394,6.5394,6.5394,6.5394,6.5394,6.5394,6.5394,6.5394,6.5394,6.5394,6.5394,2.1621,2.3251,2.5295,2.7168,2.8871,3.0892,3.3585,3.3395,3.3295,0.0,0.0,0.0,0.0,0.0,0.0,0.0,0.0,0.0,2.5912,2.3827,2.2087,2.0807,2.1966,2.2445,2.2015,2.2022,2.2023,2.1994,2.0761,2.0126,2.0111,2.0981,2.2952,2.5719,2.4916,2.7111,3.1404,3.0986,3.324,3.7328,3.9869,4.3157,4.6768,4.885,5.0187,5.1063,5.1904,5.248,5.2458,4.9895,4.8484,4.7065,4.2867,4.1938,4.1335,3.5888,3.6819,3.8866,3.5478,3.5158,3.58,3.58,3.58,0.0,0.0,3.8711,4.0233,4.443,4.4871,4.5133,4.7225,4.7559,4.7503,4.7503,5.096,5.3776,5.4099,5.7394,5.9911,6.0358,6.0396,6.0568,6.0966,6.1363,6.1952,6.2831,6.4076,6.4806,6.4806,6.5184,6.5394,6.5394,6.5394,6.5394,6.5394,6.5394,6.5394,6.5394,6.5394,6.5394,6.5394,6.5394,6.5394,6.5394,6.5394,6.5394,6.5394,6.5394,6.5394,6.5394,6.5394,6.5662,6.604,6.604,6.6292,6.6659,2.1917,2.4303,2.6995,2.8831,3.0751,3.3036,3.6052,3.5672,3.5376,0.0,0.0,0.0,0.0,0.0,0.0,0.0,0.0,0.0,2.8029,2.6286,2.4664,2.3163,2.3616,2.3861,2.3803,2.3236,2.2742,2.2374,2.1076,2.0405,2.0363,2.1078,2.3833,2.8131,2.6775,2.9254,3.4367,3.2441,3.4178,3.8644,4.373,4.6214,4.7259,5.1104,5.2059,5.1538,5.3018,5.3973,5.4295,5.2458,5.0108,4.7835,4.7087,4.5484,4.3111,3.9132,4.0003,4.1424,3.7565,3.7398,3.8206,3.7721,3.7722,3.8246,0.0,0.0,0.0,4.4498,4.4253,4.3757,4.516,4.5205,4.5005,4.5005,4.9033,5.1195,4.8433,5.3461,5.7763,5.86,5.9708,6.0453,6.0618,6.092,6.1532,6.256,6.3163,6.3686,6.4164,6.4829,6.5242,6.5394,6.5394,6.5394,6.5394,6.5394,6.5394,6.5394,6.5394,6.5394,6.5394,6.5394,6.5394,6.5394,6.5394,6.5394,6.5394,6.5394,6.5394,6.5413,6.5585,6.6078,6.6728,6.6862,6.7343,6.7905,2.2537,2.4722,2.6859,2.8037,3.0811,3.3382,3.4903,3.5594,3.6321,0.0,0.0,0.0,4.1877,4.2655,4.3032,4.2746,4.1091,3.8099,3.3439,3.1501,3.0145,2.9235,2.5792,2.5234,2.8112,2.5275,2.3027,2.1539,2.1351,2.1255,2.1251,2.1348,2.2917,2.5744,2.8434,3.0473,3.2134,3.5441,3.972,4.4497,4.665,4.5845,4.3976,4.9592,5.1197,5.0948,5.4795,5.6231,5.5944,5.3495,5.2922,5.2079,4.5449,4.7246,4.9982,4.064,4.2476,4.63,4.0614,4.0893,4.2226,3.9973,3.9935,3.9956,3.7974,0.0,3.7566,3.8149,0.0,3.9144,3.9359,0.0,0.0,3.821,4.1728,4.4328,4.3944,4.8279,5.1765,5.2511,5.7221,5.9555,5.7377,5.8513,6.0038,6.1627,6.1176,6.181,6.4087,6.4294,6.4653,6.5375,6.5394,6.5394,6.5394,6.5394,6.5394,6.5394,6.5394,6.5394,6.5394,6.5394,6.5394,6.5394,6.5394,6.5394,6.5394,6.5394,6.5394,6.5471,6.625,6.6613,6.6785,6.75,6.7825,6.7905,2.1935,2.4484,2.6673,2.7249,2.9975,3.2611,3.4195,3.6102,3.7581,0.0,0.0,4.0938,4.1318,4.1203,4.149,4.2467,4.1473,3.9276,3.5685,3.4764,3.2682,2.8905,2.7493,2.6787,2.6748,2.5375,2.4057,2.285,2.2337,2.2109,2.2109,2.2603,2.5528,3.0366,3.1776,3.5042,3.9491,3.9295,4.0998,4.4,4.5679,4.5198,4.4298,5.1697,5.4276,5.426,5.6533,5.7657,5.7826,5.6285,5.4371,5.2439,5.1203,5.0175,4.8604,4.437,4.4584,4.5233,4.0819,4.1523,4.2886,4.0342,4.0694,4.085,3.78,3.6324,3.5878,3.6887,0.0,0.0,0.0,0.0,0.0,0.0,3.9812,4.1806,3.9828,4.5024,4.9533,5.0818,5.3089,5.4909,5.5804,5.6969,5.8555,6.0736,5.9686,6.0278,6.3274,6.3931,6.4561,6.5375,6.5394,6.5394,6.5394,6.5394,6.5394,6.5394,6.5394,6.5394,6.5394,6.5394,6.5394,6.5394,6.5394,6.5394,6.5394,6.5394,6.5394,6.549,6.6365,6.6995,6.7496,6.834,6.8948,6.9349,2.1171,2.3775,2.5993,2.642,2.8915,3.1545,3.3575,3.5874,3.7597,3.8254,3.9683,4.0974,4.191,4.2065,4.2775,4.4442,4.4281,4.2808,3.9785,3.8737,3.6731,3.3352,3.0666,2.916,2.899,2.7154,2.5449,2.3895,2.3519,2.3311,2.3331,2.3958,2.7243,3.2669,3.4065,3.7982,4.3484,4.2218,4.304,4.5313,4.6538,4.7472,4.8708,5.3932,5.6632,5.7721,5.8367,5.8956,5.9258,5.7982,5.5517,5.3184,5.447,5.2089,4.8578,4.7475,4.7026,4.6047,4.2077,4.2862,4.4012,4.0567,4.0771,4.1065,3.8131,3.6655,3.6227,3.7237,3.681,0.0,0.0,0.0,3.599,3.5525,0.0,3.9266,3.6323,4.0903,4.5358,4.7477,4.884,5.0948,0.0,5.4795,5.6116,5.9135,5.7813,5.8517,6.2334,6.3373,6.4214,6.5054,6.528,6.5394,6.5394,6.5394,6.5394,6.5394,6.5394,6.5394,6.5394,6.5394,6.5394,6.5394,6.5394,6.5394,6.5394,6.5394,6.5547,6.5834,6.6693,6.7534,6.8321,6.8971,6.9708,7.0379,2.0512,2.2552,2.4579,2.5564,2.7803,3.0332,3.2924,3.4278,3.559,3.7226,3.9783,4.2701,4.5943,4.8484,5.0608,5.2295,5.3187,5.1885,4.7714,4.4396,4.3957,4.7027,3.6241,3.2785,3.8436,3.2145,2.7178,2.3895,2.4727,2.5115,2.5115,2.5153,2.6558,2.9277,3.4227,3.7457,3.9467,4.3446,4.7532,5.1328,5.1385,5.4308,5.83,5.5304,5.6724,6.0281,6.03,6.0339,0.0,5.7473,5.6556,0.0,0.0,5.2046,5.3062,4.897,5.0126,5.149,4.5793,4.619,4.6872,4.1129,4.0324,4.0481,3.8755,3.8965,3.9313,3.8522,3.9607,4.0229,3.8657,3.7645,3.6518,3.481,3.5367,0.0,0.0,3.4847,3.7103,4.0342,4.4953,4.9207,5.2559,5.1448,5.2231,0.0,5.5174,5.6396,6.1382,6.2468,6.335,6.4217,6.4997,6.5394,6.5394,6.5394,6.5394,6.5394,6.5394,6.5394,6.5394,6.5394,6.5394,6.5394,6.5394,6.5394,6.5394,6.5394,6.5891,6.6747,6.7557,6.8398,6.9162,6.9196,6.9708,7.0346,2.1386,2.3288,2.4842,2.4339,2.6621,2.9813,3.3585,3.5362,3.7349,4.0317,4.1988,4.4252,4.7826,4.8989,5.0403,5.262,5.3591,5.3012,5.0487,4.7679,4.6115,4.6137,3.8589,3.5301,3.7304,3.2871,2.945,2.7214,2.6383,2.6561,2.7615,2.6504,2.7931,3.1588,3.553,3.9489,4.3331,4.5886,4.8749,5.1652,5.2171,5.4772,5.8307,5.8272,5.9154,6.0396,6.0396,6.0396,0.0,5.9402,5.7989,5.6533,5.6221,5.4807,5.3097,5.2333,5.1741,5.0947,0.0,0.0,4.963,4.4229,4.4013,4.3956,3.9435,3.9062,3.9449,3.858,3.9316,3.976,3.8619,3.7685,3.6712,3.5545,3.5602,3.5213,0.0,3.4075,3.5441,3.7623,4.2769,4.6598,4.7728,4.9843,0.0,0.0,5.5769,0.0,6.2219,6.3293,6.4137,6.4978,6.5264,6.5681,6.625,6.57,6.57,6.625,6.5681,6.5394,6.5394,6.5394,6.5394,6.5394,6.5394,6.5394,6.5394,6.5394,6.5906,6.6728,6.6999,6.7954,6.9253,6.9803,7.0166,7.029,2.358,2.4267,2.4888,2.4655,2.751,3.0783,3.3604,3.6563,3.9415,4.1957,4.34,4.5787,4.9968,5.0613,5.1664,5.3957,5.4661,5.4276,5.2591,5.0392,4.8809,4.7996,4.2887,4.0344,4.0977,3.6772,3.3597,3.1607,2.9322,2.8775,2.9789,2.8083,2.9225,3.2812,3.5589,3.9794,4.4972,4.6953,4.9796,5.3047,5.4161,5.6091,5.8475,5.988,6.0033,5.9594,0.0,6.0396,6.0396,6.0396,5.9307,5.8084,5.8857,5.7233,5.5116,5.5461,5.4611,5.3263,5.1882,5.223,0.0,4.7064,4.6555,4.6144,4.2049,4.1781,4.2169,4.1279,4.1316,4.1704,4.2368,4.0288,3.8363,3.8129,3.7059,3.544,0.0,3.3365,3.4284,3.5555,4.0054,4.3659,4.5149,4.694,5.0184,5.5438,5.5193,5.7199,0.0,6.3736,6.4447,6.4959,6.5245,6.5662,6.6231,6.5983,6.5983,6.6231,6.5987,6.57,6.5394,6.5394,6.5394,6.5394,6.5394,6.5394,6.5413,6.5738,6.6369,6.7152,6.7477,6.8413,6.9655,6.988,6.9965,6.9857,2.68,2.5566,2.5112,2.6699,3.0281,3.3019,3.317,3.7715,4.1466,4.2319,4.429,4.7512,5.2502,5.3553,5.4642,5.6498,5.6708,5.6056,5.4448,5.2744,5.219,5.3075,4.8945,4.7436,4.9183,4.3364,3.9119,3.6691,3.32,3.1541,3.1599,2.9832,3.0365,3.2831,3.4516,3.8546,4.4238,4.674,5.0793,5.5667,5.7294,5.838,5.914,6.0049,5.9364,5.8119,5.9804,6.0396,6.0396,6.0396,6.0396,6.0262,5.943,5.9159,5.9007,5.8249,5.8532,5.8254,5.4418,5.3913,5.3557,4.9704,4.8095,4.7245,4.6433,4.6921,4.729,4.6386,4.565,4.6095,4.9109,4.4989,4.1336,4.1923,3.9183,3.58,3.247,3.2627,3.3376,3.4095,3.7106,4.0644,4.4507,4.305,4.5878,5.5511,5.3473,5.5052,6.256,6.3583,6.4045,6.4259,6.4997,6.5413,6.5452,6.6288,6.6308,6.5528,6.6327,6.6288,6.5509,6.5433,6.5413,6.5452,6.5413,6.5394,6.5471,6.6346,6.7171,6.7977,6.8836,6.9637,7.0251,6.9528,6.9184,6.9096,2.7755,2.909,3.0821,3.2044,3.2249,3.3104,3.5584,3.8524,4.2033,4.6436,4.8868,5.185,5.6112,5.6724,5.703,5.7527,5.8112,5.8284,5.7841,5.5686,5.5339,5.7386,5.1677,4.9235,5.0929,4.3954,3.9979,3.9329,3.4078,3.2134,3.3322,3.1576,3.1805,3.374,3.5415,3.9446,4.5089,4.6991,5.1464,5.7351,5.838,5.8552,5.8364,0.0,5.9364,5.8119,5.9804,6.0396,6.0396,6.0396,6.0396,6.0358,6.0144,6.0068,6.003,5.9819,5.9453,5.9017,5.8602,5.7825,5.6567,5.4254,5.3133,5.2084,0.0,0.0,5.0549,4.9187,4.9729,4.9553,4.6658,4.5339,4.3523,3.9959,3.705,3.5129,3.4828,3.3809,3.3641,3.5104,3.8679,4.0424,3.8976,4.3876,4.8242,5.0903,5.3156,5.7195,6.3526,6.1669,6.186,6.4997,6.528,6.5719,6.6365,6.6594,6.6885,6.7251,6.6885,6.69,6.7213,6.5971,6.5757,6.6327,6.5681,6.5394,6.5471,6.6346,6.7171,6.7954,6.848,6.8987,6.9492,6.9931,6.9677,6.9096,3.0134,3.2501,3.4813,3.5066,3.5596,3.6532,3.8142,4.0466,4.3535,4.7714,5.1914,5.4974,5.6197,5.7493,5.8256,5.8165,5.8583,5.8603,5.8048,5.7386,5.7154,5.7478,5.4562,5.3209,5.3779,4.8176,4.4336,4.2488,3.7309,3.4503,3.3954,3.1868,3.1983,3.4069,3.5358,3.8799,4.3926,4.8181,5.2824,5.7431,5.8628,5.9067,0.0,6.0033,5.9804,5.9116,6.0052,6.0396,6.0396,6.0396,6.0396,6.0396,6.0396,6.0396,6.0396,6.0396,6.0049,5.9682,5.9797,5.9193,5.8317,5.7422,5.6629,5.5645,5.3985,5.3741,5.3617,5.2743,5.247,5.2096,5.1105,4.8212,4.4324,3.9234,3.6905,3.5764,3.5838,3.5271,3.4905,3.5072,3.8456,3.9245,3.5321,4.3529,4.8824,4.8167,5.1652,5.6053,6.116,6.0362,6.1494,6.5284,6.4684,6.4894,6.6116,6.5776,6.6201,6.7366,6.7267,6.7458,6.7867,6.656,6.6426,6.7152,6.5929,6.5624,6.6025,6.6885,6.75,6.7984,6.8754,6.9085,6.9155,6.9644,6.9381,6.8786,3.3055,3.5477,3.7434,3.6747,3.9199,4.1221,4.1117,4.3278,4.5731,4.804,5.3791,5.6984,5.5136,5.7286,5.8789,5.8612,5.8581,5.8136,5.7086,5.8379,5.824,5.6141,5.7332,5.7657,5.6785,5.3375,4.9573,4.5455,4.1246,3.7406,3.3954,3.1832,3.1984,3.405,3.5076,3.8113,4.2952,5.0114,5.4604,5.7068,5.8647,5.972,6.0415,6.0511,6.0492,6.0415,6.0511,6.0492,6.0396,6.0396,6.0396,6.0396,6.0396,6.0396,6.0396,6.0396,6.0396,6.0224,5.9488,5.9274,5.9303,5.9491,5.8956,5.8249,5.7686,5.7055,5.6575,5.6495,5.4909,5.4516,5.7682,5.1822,4.4979,4.0298,3.8574,3.78,3.7681,3.7702,3.7189,3.5659,0.0,0.0,0.0,4.2612,4.7968,4.6342,4.9162,5.3038,5.7827,5.9048,6.1388,6.5284,6.4007,6.3893,6.5222,6.4779,6.5276,6.6709,6.7519,6.8016,6.8207,6.7286,6.7305,6.7981,6.6296,6.6002,6.6766,6.7576,6.8011,6.8255,6.9303,6.9419,6.8998,6.8932,6.8661,6.8309,3.4727,3.6699,3.845,3.83,4.0392,4.2955,4.5492,4.6865,4.861,5.1373,5.4522,5.6962,5.8211,5.8812,5.9126,5.9072,5.9086,5.9114,5.9229,5.9518,5.9623,5.9522,5.9125,5.8513,5.7699,5.368,4.9857,4.6287,4.2101,3.7996,3.3993,3.4216,3.4216,3.4107,3.6281,4.1172,4.8072,5.29,5.6374,5.8743,5.9762,6.0262,6.0472,6.1138,6.0985,6.0492,6.1153,6.0966,6.0396,6.0396,6.0396,6.0396,6.0396,6.0396,6.0396,6.0396,6.0396,6.0377,6.0205,6.0167,6.0174,6.0215,6.0107,6.0008,6.0,5.9892,5.9645,5.9071,5.9345,5.8805,5.601,5.2003,4.8347,4.5966,4.3096,4.2528,4.6476,4.3632,4.1289,4.1674,0.0,4.4673,0.0,0.0,0.0,0.0,0.0,5.0161,5.8523,5.5966,5.7688,6.5169,6.5175,6.4834,0.0,0.0,6.6452,6.6709,6.7519,6.8627,6.9918,6.8375,6.8168,6.8875,6.7209,6.6556,6.6766,6.7576,6.8528,6.9445,6.9291,6.8932,6.8485,6.8084,6.7895,6.7876,3.9228,4.0377,4.1446,4.2286,4.4085,4.5929,4.7489,4.9507,5.1195,5.2156,5.4032,5.5632,5.6606,5.7823,5.8654,5.8862,5.8881,5.915,5.9758,5.9795,5.9988,6.0382,5.9568,5.872,5.7928,5.5479,5.1677,4.6497,4.3627,3.9618,3.4617,3.4136,3.3947,3.4184,3.844,4.3618,4.9374,5.3607,0.0,5.9217,6.0504,6.1287,6.1745,6.2124,6.2028,6.1745,6.2143,6.2032,6.1554,6.0683,6.0396,6.0396,6.0396,6.0396,6.0396,6.0396,6.0396,6.0396,6.0396,6.0396,6.0396,6.0396,6.0396,6.0427,6.0471,6.0559,6.0513,6.0225,6.0659,5.993,5.6129,5.3046,0.0,4.8685,4.6348,4.5869,4.9103,4.7852,4.6423,4.5902,4.8878,0.0,0.0,0.0,0.0,0.0,0.0,4.9444,5.6843,5.4577,5.6668,6.4527,6.4007,0.0,6.4873,0.0,6.5723,6.7378,6.7764,6.8812,7.0353,6.912,6.9024,6.9731,6.805,6.7572,6.8031,6.8417,6.9061,6.9759,6.9271,6.8808,6.8339,6.7869,6.77,6.7741,4.2868,4.3345,4.3781,4.4727,4.6484,4.7916,4.8246,5.1384,5.3476,5.285,5.3964,5.4913,5.5133,5.6859,5.8119,5.8442,5.8469,5.8745,5.9388,5.9576,5.9934,6.0492,5.9781,5.9086,5.8444,5.7584,5.4085,4.7835,4.5804,4.1793,3.5969,3.4477,3.4613,3.6358,4.1552,4.6407,5.09,0.0,5.731,6.0019,6.1131,6.2124,6.2926,6.3117,6.306,6.2926,6.3117,6.306,6.2697,6.1386,6.0927,6.0927,6.0927,6.0927,6.0927,6.0927,6.0927,6.0927,6.0927,6.0927,6.0927,6.0927,6.0927,6.087,6.0702,6.0883,6.1083,6.0962,6.1247,6.0575,5.7404,5.5658,0.0,5.1306,4.9894,4.9668,5.1266,5.1283,5.0733,4.9675,5.0553,0.0,4.3973,0.0,0.0,0.0,0.0,4.9033,5.4388,5.3896,5.6521,6.3276,6.2424,6.2704,6.4486,0.0,6.5057,6.7767,6.7921,6.8855,7.042,6.9754,6.9803,7.0315,6.8814,6.857,6.9196,6.9196,6.9489,6.9877,6.9327,6.887,6.849,6.7915,6.77,6.77,4.2335,4.2831,4.3084,4.1782,4.4099,4.6617,4.8081,5.2325,5.5346,5.5273,5.5824,5.6571,5.7562,5.7855,5.802,5.8047,5.8053,5.8092,5.8159,5.8855,5.9761,6.0889,6.0528,6.0243,6.0167,5.9316,5.6679,5.2215,4.9016,4.4413,3.8627,3.7674,3.9315,4.3188,4.6053,0.0,0.0,5.6326,5.8822,6.2483,6.1856,6.2124,6.2984,6.3774,6.3579,6.2999,6.3793,6.3564,6.2888,6.2712,6.2678,6.2678,6.2678,6.2678,6.2678,6.2678,6.2678,6.2678,6.2678,6.2678,6.2678,6.2678,6.2678,6.2468,6.1669,6.216,6.2574,6.186,6.2523,6.2495,5.9994,6.1127,6.0839,5.5927,5.5056,5.5537,5.7091,5.4184,5.2402,5.3752,5.0124,4.7897,0.0,4.3781,0.0,0.0,4.7295,4.7651,5.2071,5.3564,5.6382,6.0976,6.1734,6.1803,6.1246,6.41,6.6034,6.7016,6.7683,6.8905,7.0561,7.0371,7.0334,7.0353,6.9464,6.9124,6.9196,6.9196,6.9653,7.0256,6.9426,6.9069,6.8939,6.8039,6.77,6.77,4.7737,4.7815,4.7682,4.703,4.7989,4.9389,5.0994,5.2907,5.4858,5.6791,5.7231,5.7525,5.7947,5.8002,5.8002,5.8002,5.8002,5.8272,5.8914,5.9345,6.0218,6.1728,6.1126,6.065,6.0412,5.9545,5.7291,5.3572,5.0225,4.6598,4.2758,4.1894,4.3725,4.7927,0.0,5.4234,5.7508,5.9529,6.165,6.364,6.3297,6.366,6.4435,6.4787,6.4707,6.4455,6.4806,6.4707,6.4397,6.4397,6.3729,6.2903,6.2903,6.2903,6.2903,6.2903,6.2903,6.2903,6.2903,6.2903,6.2903,6.2903,6.2903,6.2808,6.2468,6.2704,6.2928,6.2643,6.3424,6.3713,6.2229,6.1948,6.1563,6.0444,5.9031,5.8825,6.0917,5.9816,5.8847,5.9045,5.7354,5.5457,0.0,0.0,0.0,4.9251,4.5333,4.5506,5.1614,5.2731,5.4636,5.7759,6.1632,6.2989,6.1585,6.4912,6.6976,6.7742,6.8535,6.9515,7.0659,7.0569,7.0483,7.0372,7.0052,6.9918,6.9918,6.9918,6.9966,6.9978,6.9339,6.8921,6.8602,6.7935,6.77,6.77,5.0613,5.032,5.0674,5.2582,5.2913,5.3293,5.4431,5.4614,5.577,5.8982,5.941,5.9043,5.8107,5.8002,5.8002,5.8002,5.8584,5.9208,5.9795,6.0036,6.0847,6.2399,6.1765,6.1306,6.1131,6.0538,5.8934,5.6301,5.2944,5.0136,4.7843,4.6249,4.7873,0.0,5.4941,5.7485,5.9896,6.2009,6.3541,6.4523,6.4297,6.4676,6.5394,6.5394,6.5394,6.5394,6.5394,6.5394,6.5394,6.5394,6.4611,6.3633,6.3633,6.3633,6.3633,6.3633,6.3633,6.3633,6.3633,6.3633,6.3633,6.3633,6.3633,6.3576,6.335,6.3527,6.3765,6.3873,6.4469,6.4782,6.4182,6.3143,6.2492,6.2887,6.1892,6.1411,6.2422,6.2567,6.2259,6.1422,5.9908,5.8434,5.7179,5.245,0.0,5.1414,4.7278,4.6929,5.2082,5.3107,5.4621,5.7038,6.1623,6.3589,6.2607,6.5593,6.7644,6.8721,6.9257,6.9932,7.0726,7.0659,7.0585,7.0491,7.0463,7.0451,7.0466,7.0423,7.0161,6.9759,6.9271,6.8808,6.8339,6.7869,6.77,6.77,4.8778,4.8338,5.0357,5.6791,5.7905,5.7929,5.7941,5.7941,5.9098,6.2316,6.2738,6.1533,5.8345,5.8002,5.8002,5.8002,5.9936,6.0945,6.0413,6.0757,6.1557,6.2844,6.2489,6.2465,6.2862,6.2865,6.241,6.1516,5.8157,5.5654,5.3913,5.0594,5.1722,5.6556,5.7469,6.0205,6.4064,6.3255,6.3862,6.5318,6.4523,6.4676,6.5394,6.5394,6.5394,6.5394,6.5394,6.5394,6.5394,6.5394,6.5394,6.5375,6.5375,6.5375,6.5375,6.5375,6.5375,6.5375,6.5375,6.5375,6.5375,6.5375,6.5375,6.5169,6.437,6.4854,6.5522,6.5725,6.583,6.5881,6.5862,6.5843,6.5019,6.2521,6.3477,6.3666,6.1188,6.0822,6.0515,5.9627,5.4441,5.3265,5.9179,5.2883,0.0,5.7878,5.5254,5.3388,5.3485,5.5186,5.7327,5.9876,6.1631,0.0,6.3763,6.5986,6.7978,6.9683,6.955,6.9961,7.0806,7.0729,7.0696,7.0688,7.0635,7.0596,7.0588,7.0447,7.0161,6.9759,6.9271,6.8808,6.8339,6.7869,6.77,6.77,5.506,5.4913,5.5574,5.7635,5.9808,6.127,6.127,6.127,6.1643,6.2664,6.2793,6.2407,6.138,6.127,6.127,6.127,6.1893,6.2224,6.204,6.1476,6.1785,6.3246,6.2917,6.2901,6.3292,6.304,6.2751,6.2487,0.0,0.0,0.0,5.6412,5.7692,6.092,6.1806,6.2937,6.4217,6.4496,6.4917,6.5375,6.5131,6.5169,6.5394,6.5394,6.5394,6.5394,6.5394,6.5394,6.5394,6.5394,6.5394,6.5394,6.5394,6.5394,6.5394,6.5394,6.5394,6.5394,6.5394,6.5394,6.5394,6.5394,6.5394,6.5337,6.5073,6.5304,6.563,6.584,6.5885,6.59,6.59,6.59,6.5631,6.4826,6.5131,6.5208,6.4381,6.4285,6.3958,6.3089,6.1338,6.0514,0.0,5.6608,0.0,5.6689,5.2702,5.135,5.4095,5.6567,5.805,5.8341,6.2067,0.0,6.3804,6.6582,6.8568,6.9706,7.0201,7.059,7.079,7.0784,7.0748,7.0692,7.0635,7.0631,7.0643,7.0475,7.02,6.9811,6.9303,6.8808,6.8339,6.7869,6.77,6.7714,5.9575,5.9808,5.9808,5.9808,6.1453,6.2793,6.2793,6.2793,6.2793,6.2793,6.2793,6.2793,6.2793,6.2793,6.2793,6.2793,6.2793,6.2793,6.2793,6.2169,6.223,6.3203,6.3165,6.3234,6.3494,6.3567,0.0,6.3388,6.1784,6.0844,6.0535,6.0535,6.1547,6.3408,6.3969,6.437,6.4676,6.5184,6.5394,6.5394,6.5394,6.5394,6.5394,6.5394,6.5394,6.5394,6.5394,6.5394,6.5394,6.5394,6.5394,6.5394,6.5394,6.5394,6.5394,6.5394,6.5394,6.5394,6.5394,6.5394,6.5394,6.5394,6.5394,6.5402,6.5436,6.5516,6.5655,6.5836,6.5881,6.59,6.59,6.59,6.59,6.59,6.59,6.59,6.59,6.59,6.5343,6.3842,6.3669,0.0,0.0,5.9749,5.8666,0.0,5.6875,5.6182,5.8707,5.8486,5.8786,5.9897,6.3723,6.5768,6.5716,6.7822,6.9318,7.0167,7.0667,7.0874,7.0833,7.0833,7.0808,7.0777,7.0692,7.0708,7.0729,7.057,7.0283,6.9907,6.9576,6.9053,6.8484,6.8179,6.7981,6.7855,6.2205,6.2793,6.2793,6.2793,6.2793,6.2793,6.2793,6.2793,6.2793,6.2793,6.2793,6.2793,6.2793,6.2793,6.2793,6.2793,0.0,0.0,6.2793,6.2793,6.2793,6.2793,6.3251,6.3517,6.3549,6.4368,6.4622,6.4275,6.4275,6.387,6.3079,6.3079,6.3503,6.4275,6.4275,6.4695,6.5394,6.5394,6.5394,6.5394,6.5394,6.5394,6.5394,6.5394,6.5394,6.5394,6.5394,6.5394,6.5394,6.5394,6.5394,6.5394,6.5394,6.5394,6.5394,6.5394,6.5394,6.5394,6.5394,6.5394,6.5394,6.5394,6.5394,6.5417,6.5487,6.5555,6.5641,6.5783,6.5856,6.59,6.59,6.59,6.59,6.59,6.59,6.59,6.59,6.59,6.5016,6.2656,0.0,0.0,6.2287,6.2271,6.3197,0.0,6.5557,6.5557,6.5557,6.0719,5.9772,6.385,6.6084,6.775,6.8899,6.9362,7.0029,7.0898,7.0898,7.0898,7.0898,7.0898,7.0898,7.0895,7.0822,7.0794,7.079,7.0707,7.0398,7.0014,6.9978,6.9451,6.8748,6.8748,6.8496,6.814,6.2646,6.2793,6.2793,6.2793,6.2793,6.2793,6.2793,6.2793,6.2793,6.2793,6.2793,6.2793,6.2793,6.2793,6.2793,6.2793,6.2793,6.2793,6.2793,6.2793,6.2793,6.2793,6.3251,6.3635,6.3943,6.4518,6.4907,6.5131,6.5131,6.5012,6.4802,6.4802,6.4917,6.5131,6.5131,6.5222,6.5394,6.5394,6.5394,6.5394,6.5394,6.5394,6.5394,6.5394,6.5394,6.5394,6.5394,6.5394,6.5394,6.5394,6.5394,6.5394,6.5394,6.5394,6.5394,6.5394,6.5394,6.5394,6.5394,6.5394,6.5394,6.5394,6.5394,6.5432,6.5544,6.5587,6.5658,6.5849,6.5888,6.59,6.59,6.59,6.59,6.59,6.59,6.59,6.59,6.59,6.5689,6.5073,6.5,6.4746,6.407,6.4012,6.3482,0.0,0.0,6.2164,6.2164,6.1534,6.2577,6.5613,6.552,6.6535,6.888,6.8763,6.9452,7.0898,7.0898,7.0898,7.0898,7.0898,7.0898,7.0895,7.0822,7.0822,7.0843,7.0417,7.0207,7.0117,6.9707,6.9413,6.9228,6.9172,6.8901,6.8578,6.2793,6.2793,6.2793,6.2793,6.2793,6.2793,6.2793,6.2793,6.2793,6.2793,6.2793,6.2793,6.2793,6.2793,6.2793,6.2793,6.2793,6.2793,6.2793,6.2793,6.2793,6.2793,6.3038,6.3472,6.4095,6.4341,6.4773,6.5394,6.5394,6.5394,6.5394,6.5394,6.5394,6.5394,6.5394,6.5394,6.5394,6.5394,6.5394,6.5394,6.5394,6.5394,6.5394,6.5394,6.5394,6.5394,6.5394,6.5394,6.5394,6.5394,6.5394,6.5394,6.5394,6.5394,6.5394,6.5394,6.5394,6.5394,6.5394,6.5394,6.5394,6.5394,6.5394,6.5436,6.5566,6.5597,6.5662,6.5853,6.59,6.59,6.59,6.59,6.59,6.59,6.59,6.59,6.59,6.59,6.59,6.59,6.59,6.5862,6.5747,6.5747,6.537,6.4455,6.4387,0.0,6.4387,6.4893,6.5304,6.561,6.6144,6.7197,6.8758,6.9289,6.9991,7.0898,7.0898,7.0898,7.0898,7.0898,7.0898,7.0898,7.0857,7.0864,7.0852,7.0387,7.0207,7.0192,6.9716,6.9413,6.9258,6.9215,6.8938,6.8628,6.2793,6.2793,6.2793,6.2793,6.2793,6.2793,6.2793,6.2793,6.2793,6.2793,6.2793,6.2793,6.2793,6.2793,6.2793,6.2793,6.2793,6.2793,6.2793,6.2793,6.2793,6.2793,6.2892,6.3308,6.4071,6.4239,6.4652,6.5394,6.5394,6.5394,6.5394,6.5394,6.5394,6.5394,6.5394,6.5394,6.5394,6.5394,6.5394,6.5394,6.5394,6.5394,6.5413,6.5547,6.5605,6.5605,6.5738,6.5776,6.5776,6.5776,6.57,6.5624,6.5738,6.5605,6.5433,6.5566,6.5605,6.5566,6.5433,6.5394,6.5394,6.5394,6.5394,6.5436,6.5566,6.5597,6.5662,6.5853,6.59,6.59,6.59,6.59,6.5804,6.5551,6.5727,6.5804,6.5532,6.5843,6.6074,6.6074,6.6208,6.6555,6.7228,6.7305,6.7609,6.8334,6.8391,6.8391,6.8391,6.851,6.7578,6.5419,6.7355,6.8544,6.8754,7.0186,7.0898,7.0898,7.0898,7.0898,7.0898,7.0898,7.0898,7.0898,7.0898,7.0898,7.0878,7.0471,7.0261,7.0182,6.9833,6.9443,6.9101,6.9171,6.8936,6.8595,6.2793,6.2793,6.2793,6.2793,6.2793,6.2793,6.2793,6.2793,6.2793,6.2793,6.2793,6.2793,6.2793,6.2793,6.2793,6.2793,6.2793,6.2793,6.2793,6.2793,6.2793,6.2793,6.3297,6.3728,6.4081,6.4817,6.5252,6.5394,6.5394,6.5394,6.5394,6.5394,6.5394,6.5394,6.5394,6.5394,6.5394,6.5394,6.5394,6.5394,6.5394,6.5394,6.5471,6.6212,6.6499,6.6594,6.727,6.7504,6.7504,6.7504,6.7056,6.6617,6.7309,6.6544,6.5547,6.6269,6.6499,6.6346,6.5605,6.5394,6.5394,6.5394,6.5394,6.5436,6.5566,6.5597,6.5662,6.5853,6.59,6.59,6.59,6.59,6.5416,6.3932,6.4936,6.54,6.3913,6.5554,6.6901,6.6901,6.7552,6.8064,6.8183,6.8202,6.8257,6.8391,6.8391,6.8391,6.8391,6.8414,6.8241,6.7856,6.8299,6.8887,6.9518,7.0438,7.0898,7.0898,7.0898,7.0898,7.0898,7.0898,7.0898,7.0898,7.0898,7.0898,7.0878,7.0471,7.0095,6.9786,6.9721,6.9443,6.9139,6.9473,6.9351,6.9,6.2793,6.2793,6.2793,6.2793,6.2793,6.2793,6.2793,6.2793,6.2793,6.2793,6.2793,6.2793,6.2793,6.2793,6.2793,6.2793,6.2793,6.2793,6.2793,6.2793,6.2793,6.2793,6.3377,6.3945,6.4464,6.5085,6.5394,6.5394,6.5394,6.5394,6.5394,6.5394,6.5394,6.5394,6.5394,6.5394,6.5394,6.5394,6.5662,6.6097,6.6097,6.635,6.6793,6.7194,6.7343,6.7381,6.7767,6.7905,6.7905,6.7905,6.7653,6.74,6.7786,6.737,6.6831,6.7232,6.7033,6.6709,6.6736,6.6755,6.664,6.6216,6.6426,6.6652,6.6324,6.663,6.7039,6.7161,6.7214,6.7241,6.7241,6.7241,6.6971,6.6179,6.6721,6.6971,6.616,6.7067,6.7802,6.7802,6.8164,6.8584,6.9048,6.9106,6.9279,6.9702,6.9741,6.9741,6.9741,6.9741,6.9741,6.9741,6.938,6.956,7.0341,7.0706,7.0898,7.0898,7.0898,7.0898,7.0898,7.0898,7.0898,7.0898,7.0898,7.0898,7.0878,7.0471,7.0194,6.9977,6.9543,6.9258,6.9109,6.906,6.8949,6.8774,6.2793,6.2793,6.2793,6.2793,6.2793,6.2793,6.2793,6.2793,6.2793,6.2793,6.2793,6.2793,6.2793,6.2793,6.2793,6.2793,6.2793,6.2793,6.2793,6.2793,6.2793,6.2793,6.3432,6.4154,6.4919,6.5248,6.5394,6.5394,6.5394,6.5394,6.5394,6.5605,6.57,6.5719,6.5891,6.5987,6.5987,6.5987,6.6369,6.6976,6.6976,6.7343,6.792,6.8134,6.8207,6.8226,6.8417,6.8474,6.8474,6.8474,6.836,6.8226,6.8417,6.8207,6.7943,6.813,6.7763,6.7377,6.779,6.7905,6.7748,6.7133,6.7442,6.7756,6.7243,6.7681,6.8209,6.8313,6.8355,6.8391,6.8391,6.8391,6.8276,6.7872,6.8141,6.8257,6.7875,6.8334,6.8699,6.8699,6.8875,6.9241,6.9914,6.9972,7.0244,7.0841,7.0898,7.0898,7.0898,7.0898,7.0898,7.0898,7.0302,7.0283,7.0898,7.0898,7.0898,7.0898,7.0898,7.0898,7.0898,7.0898,7.0898,7.0898,7.0898,7.0898,7.0881,7.057,7.0385,7.0232,6.9518,6.9187,6.9055,6.8648,6.8493,6.8493,6.2793,6.2793,6.2793,6.2793,6.2793,6.2793,6.2793,6.2793,6.2793,6.2793,6.2793,6.2793,6.2793,6.2793,6.2793,6.2793,6.2793,6.2793,6.2793,6.2793,6.2793,6.2793,6.3625,6.4469,6.5345,6.5383,6.5394,6.5394,6.5394,6.5394,6.5413,6.6231,6.6594,6.6632,6.7385,6.7714,6.7714,6.7714,6.7752,6.7805,6.7805,6.7848,6.8,6.8799,6.9101,6.9196,6.9956,7.022,7.022,7.022,6.9727,6.9234,6.9975,6.9158,6.8054,6.8875,6.9062,6.8856,6.8092,6.7905,6.7886,6.7825,6.7867,6.7929,6.8068,6.8146,6.8246,6.8377,6.8407,6.8391,6.8391,6.8391,6.7891,6.634,6.7394,6.7856,6.6304,6.8129,6.9606,6.9606,7.0264,7.0744,7.0802,7.0802,7.0841,7.0898,7.0898,7.0898,7.0898,7.0898,7.0898,7.0898,7.0841,7.0841,7.0898,7.0898,7.0898,7.0898,7.0898,7.0898,7.0898,7.0898,7.0898,7.0898,7.0898,7.0898,7.0898,7.0874,7.0645,7.0256,6.9823,6.9437,6.9055,6.8648,6.8493,6.8493,6.2793,6.2793,6.2793,6.2793,6.2793,6.2793,6.2793,6.2793,6.2793,6.2793,6.2793,6.2793,6.2793,6.2793,6.2793,6.2793,6.2793,6.2793,6.2793,6.2793,6.305,6.3568,6.4129,6.4972,6.6181,6.6212,6.6445,6.6946,6.6946,6.6946,6.6965,6.729,6.7442,6.7458,6.7767,6.7905,6.7905,6.7905,6.8207,6.8703,6.8703,6.9005,6.9483,6.9823,6.9937,6.9975,7.03,7.0392,7.0392,7.0392,7.0205,6.9994,7.0296,6.9956,6.9517,6.9842,6.9937,6.9861,6.954,6.9444,6.933,6.8837,6.9082,6.9343,6.8962,6.9336,6.9786,6.9867,6.9922,6.9952,6.9952,6.9952,6.9741,6.909,6.9533,6.9725,6.909,6.9821,7.0437,7.0437,7.0706,7.0898,7.0898,7.0898,7.0898,7.0898,7.0898,7.0898,7.0898,7.0898,7.0898,7.0898,7.0898,7.0898,7.0898,7.0898,7.0898,7.0898,7.0898,7.0898,7.0898,7.0898,7.0898,7.0898,7.0898,7.0898,7.0898,7.0898,7.0813,7.06,6.995,6.9601,6.9397,6.8747,6.8493,6.8493,6.2793,6.2793,6.2793,6.2793,6.2793,6.2793,6.2793,6.2793,6.2793,6.2793,6.2793,6.2793,6.2793,6.2793,6.2793,6.2793,6.2793,6.2793,6.2793,6.3141,6.3602,6.4224,6.4756,6.5549,6.6678,6.6961,6.7343,6.7905,6.7905,6.7905,6.7905,6.8172,6.8306,6.8321,6.857,6.8684,6.8684,6.8684,6.9024,6.9578,6.9578,6.9918,7.0392,7.0392,7.0392,7.0392,7.0392,7.0392,7.0392,7.0392,7.0392,7.0392,7.0392,7.0392,7.0392,7.0392,7.0392,7.0392,7.0392,7.0392,7.0277,6.9708,6.9994,7.0282,6.9815,7.021,7.0718,7.0795,7.085,7.0898,7.0898,7.0898,7.0898,7.0898,7.0898,7.0898,7.0898,7.0898,7.0898,7.0898,7.0898,7.0898,7.0898,7.0898,7.0898,7.0898,7.0898,7.0898,7.0898,7.0898,7.0898,7.0898,7.0898,7.0898,7.0898,7.0898,7.0898,7.0898,7.0898,7.0898,7.0898,7.0898,7.0898,7.0898,7.0898,7.0898,7.0898,7.0898,7.0898,7.0831,7.0156,6.981,6.9616,6.893,6.8613,6.8493,6.2793,6.2793,6.2793,6.2793,6.2793,6.2793,6.2793,6.2793,6.2793,6.2793,6.2793,6.2793,6.2793,6.2793,6.2793,6.2793,6.2793,6.2793,6.2811,6.3863,6.4535,6.461,6.5508,6.6248,6.672,6.75,6.7905,6.7924,6.7924,6.7924,6.7943,6.8799,6.9219,6.9234,7.0033,7.0392,7.0392,7.0392,7.0392,7.0392,7.0392,7.0392,7.0392,7.0392,7.0392,7.0392,7.0392,7.0392,7.0392,7.0392,7.0392,7.0392,7.0392,7.0392,7.0392,7.0392,7.0392,7.0392,7.0392,7.0392,7.0392,7.0392,7.0392,7.0435,7.0577,7.0651,7.0718,7.0795,7.085,7.0898,7.0898,7.0898,7.0898,7.0898,7.0898,7.0898,7.0898,7.0898,7.0898,7.0898,7.0898,7.0898,7.0898,7.0898,7.0898,7.0898,7.0898,7.0898,7.0898,7.0898,7.0898,7.0898,7.0898,7.0898,7.0898,7.0898,7.0898,7.0898,7.0898,7.0898,7.0898,7.0898,7.0898,7.0898,7.0898,7.0898,7.0898,7.0898,7.0898,7.0852,7.0463,7.0071,6.9654,6.9242,6.8847,6.85,6.2736,6.2793,6.2793,6.2793,6.2793,6.2793,6.2793,6.2793,6.2793,6.2793,6.2793,6.2793,6.2793,6.2793,6.2793,6.2793,6.2793,6.3141,6.3937,6.386,6.4458,6.5939,6.68,6.7647,6.8443,6.8684,6.9082,6.9651,6.9651,6.9651,6.9651,6.9918,7.0033,7.0052,7.03,7.0392,7.0392,7.0392,7.0392,7.0392,7.0392,7.0392,7.0367,7.0096,7.0157,7.0359,7.0087,7.0161,7.0392,7.0392,7.0392,7.0392,7.0392,7.0392,7.0392,7.0392,7.0392,7.0392,7.0392,7.0392,7.0392,7.0392,7.0392,7.0435,7.0577,7.062,7.0662,7.0781,7.0827,7.084,7.0888,7.0898,7.0898,7.0898,7.0898,7.0898,7.0898,7.0898,7.0898,7.0898,7.0898,7.0898,7.0898,7.0898,7.0898,7.0898,7.0898,7.0898,7.0898,7.0898,7.0898,7.0898,7.0898,7.0898,7.0898,7.0898,7.0898,7.0898,7.0898,7.0898,7.0898,7.0898,7.0898,7.0898,7.0898,7.0898,7.0898,7.0898,7.0898,7.0852,7.0463,7.0228,7.0034,6.9342,6.9022,6.8887,6.2742,6.2793,6.2793,6.2793,6.2793,6.2793,6.2793,6.2793,6.2793,6.2793,6.2793,6.2793,6.2793,6.2793,6.2793,6.2793,6.3215,6.3839,6.4762,6.4734,6.5408,6.7042,6.7887,6.8594,6.9184,6.9502,6.9918,7.0392,7.0392,7.0392,7.0392,7.0392,7.0392,7.0392,7.0392,7.0392,7.0392,7.0392,7.0392,7.0392,7.0392,7.029,7.0153,7.0078,6.9963,6.9871,6.9825,6.9834,6.988,6.988,6.988,6.9927,7.0099,7.0161,7.0161,7.0161,7.0161,7.0112,6.9941,6.988,6.988,6.988,7.0147,7.0423,7.0499,7.0554,7.0635,7.074,7.0788,7.0811,7.0885,7.0898,7.0898,7.0898,7.0898,7.0898,7.0898,7.0898,7.0898,7.0898,7.0898,7.0898,7.0898,7.0898,7.0898,7.0898,7.0898,7.0898,7.0898,7.0898,7.0898,7.0898,7.0898,7.0898,7.0898,7.0898,7.0898,7.0898,7.0898,7.0898,7.0898,7.0898,7.0898,7.0898,7.0898,7.0898,7.0898,7.0898,7.0898,7.0881,7.0622,7.0451,7.0223,6.9577,6.925,6.9044,6.2793,6.2793,6.2793,6.2793,6.2793,6.2793,6.2793,6.2793,6.2793,6.2793,6.2793,6.2793,6.2793,6.2793,6.2793,6.2793,6.4028,6.4964,6.538,6.6035,6.6883,6.7962,6.8651,6.9091,6.9295,7.0033,7.0392,7.0392,7.0392,7.0392,7.0392,7.0392,7.0392,7.0392,7.0392,7.0392,7.0392,7.0392,7.0392,7.0392,7.0392,7.0161,6.9834,7.0166,6.9792,6.9144,6.9544,6.9424,6.9096,6.9096,6.9096,6.9166,6.9604,6.9744,6.9744,6.9744,6.9744,6.9643,6.9227,6.9096,6.9096,6.9096,6.9706,7.029,7.0338,7.0454,7.0561,7.0632,7.0673,7.072,7.082,7.0841,7.0867,7.0895,7.0898,7.0898,7.0898,7.0898,7.0898,7.0898,7.0898,7.0898,7.0898,7.0898,7.0898,7.0898,7.0898,7.0898,7.0898,7.0898,7.0898,7.0898,7.0898,7.0898,7.0898,7.0898,7.0898,7.0898,7.0898,7.0898,7.0898,7.0898,7.0898,7.0898,7.0898,7.0898,7.0898,7.0898,7.0898,7.0898,7.0898,7.0675,7.0297,6.9901,6.9493,6.9098,6.2793,6.2793,6.2793,6.2793,6.2793,6.2793,6.2793,6.2793,6.2793,6.2793,6.2793,6.2793,6.2793,6.2793,6.2793,6.2793,6.5375,6.6794,6.6274,6.5809,6.6544,6.8739,6.8407,6.878,7.0112,7.0315,7.0392,7.0392,7.0392,7.0392,7.0392,7.0392,7.0392,7.0392,7.0392,7.0392,7.0392,7.0392,7.0392,7.0392,7.0392,7.0161,6.9773,6.9495,6.9266,6.9077,6.8791,6.887,6.9096,6.9096,6.9096,6.9112,6.9208,6.924,6.924,6.924,6.924,6.9238,6.9142,6.9096,6.9096,6.9096,6.924,6.9471,6.9853,7.0038,7.0156,7.0209,7.0031,6.9975,7.0357,7.042,7.0524,7.0845,7.0898,7.0898,7.0898,7.0898,7.0898,7.0898,7.0898,7.0898,7.0898,7.0898,7.0898,7.0898,7.0898,7.0898,7.0898,7.0898,7.0898,7.0898,7.0898,7.0898,7.0898,7.0898,7.0898,7.0898,7.0898,7.0898,7.0898,7.0898,7.0898,7.0898,7.0898,7.0898,7.0898,7.0898,7.0898,7.0898,7.0898,7.0841,7.0727,7.0325,6.9919,6.9477,6.2793,6.2793,6.2793,6.2793,6.2793,6.2793,6.2793,6.2793,6.2793,6.2793,6.2793,6.2793,6.2793,6.2793,6.3123,6.3912,6.5803,6.6985,6.707,6.6678,6.714,6.8704,6.8588,6.8987,7.0085,7.0309,7.0392,7.0392,7.0392,7.0392,7.0392,7.0392,7.0392,7.0392,7.0392,7.0392,7.0392,7.0392,7.0296,7.0118,7.0118,6.9716,6.9123,6.9101,6.8814,6.8436,6.8412,6.8418,6.8436,6.8436,6.8436,6.8479,6.8701,6.8776,6.8776,6.8776,6.8776,6.8724,6.8484,6.8436,6.8436,6.8436,6.8602,6.8882,6.9363,6.9716,6.9969,7.0049,7.0113,7.0253,7.054,7.0585,7.066,7.0874,7.0898,7.0898,7.0898,7.0898,7.0898,7.0898,7.0898,7.0898,7.0898,7.0898,7.0898,7.0898,7.0898,7.0898,7.0898,7.0898,7.0898,7.0898,7.0898,7.0898,7.0898,7.0898,7.0898,7.0898,7.0898,7.0898,7.0898,7.0898,7.0898,7.0898,7.0898,7.0898,7.0898,7.0898,7.0898,7.0898,7.0898,7.0898,7.0845,7.0455,6.9928,6.9325,6.2773,6.2786,6.2786,6.2761,6.2774,6.2786,6.2761,6.2798,6.2793,6.2793,6.2793,6.2793,6.2793,6.2793,6.3582,6.5533,6.6115,6.6753,6.7645,6.77,6.7915,6.8376,6.8763,6.9248,6.9787,7.0131,7.0334,7.0392,7.0392,7.0392,7.0392,7.0392,7.0392,7.0392,7.0392,7.0392,7.0407,7.033,7.009,6.9792,6.9701,6.9179,6.8449,6.8825,6.8455,6.7742,6.8147,6.8039,6.77,6.77,6.77,6.7762,6.8166,6.8284,6.8284,6.8284,6.8284,6.8191,6.7809,6.77,6.77,6.77,6.7994,6.8382,6.8763,6.9294,6.973,6.9772,7.0124,7.0443,7.0566,7.0653,7.0723,7.0796,7.0867,7.0898,7.0898,7.0898,7.0898,7.0898,7.0898,7.0898,7.0898,7.0898,7.0898,7.0898,7.0898,7.0898,7.0898,7.0898,7.0898,7.0898,7.0898,7.0898,7.0898,7.0898,7.0898,7.0898,7.0898,7.0898,7.0898,7.0898,7.0898,7.0898,7.0898,7.0898,7.0898,7.0898,7.0898,7.0898,7.0898,7.0898,7.0838,7.0369,6.9782,6.9134,6.2658,6.2729,6.2755,6.2648,6.2724,6.2755,6.2648,6.2724,6.2793,6.2793,6.2793,6.2793,6.2793,6.2793,6.4047,6.7106,6.7444,6.7554,6.77,6.77,6.7915,6.8376,6.8467,6.8898,6.9778,6.9849,7.0041,7.0392,7.0392,7.0392,7.0392,7.0392,7.0392,7.0392,7.0392,7.0392,7.0375,7.0019,6.9849,6.9768,6.9358,6.8889,6.8406,6.8479,6.8154,6.7714,6.7769,6.7742,6.77,6.77,6.77,6.7714,6.7776,6.7795,6.7795,6.7795,6.7795,6.7782,6.7721,6.77,6.77,6.77,6.7754,6.7815,6.7876,6.8443,6.8952,6.895,6.8881,6.8921,6.9273,6.9625,6.9973,7.0313,7.0671,7.0898,7.0898,7.0898,7.0898,7.0898,7.0898,7.0898,7.0898,7.0898,7.0898,7.0898,7.0898,7.0898,7.0898,7.0898,7.0898,7.0898,7.0898,7.0898,7.0898,7.0898,7.0898,7.0898,7.0898,7.0898,7.0898,7.0898,7.0898,7.0898,7.0898,7.0898,7.0898,7.0898,7.0898,7.0898,7.0898,7.0898,7.0813,7.0066,6.9711,6.9503,6.2596,6.2653,6.2667,6.2616,6.2647,6.2672,6.2614,6.2717,6.2793,6.2793,6.2793,6.2793,6.2793,6.4432,6.6115,6.7572,6.77,6.77,6.77,6.77,6.7795,6.8,6.8266,6.8724,6.9394,6.9662,7.001,7.0392,7.0392,7.0392,7.0392,7.0392,7.0288,7.0063,7.0304,7.0129,6.9687,6.9759,6.9509,6.8998,6.8786,6.8436,6.8013,6.8013,6.7882,6.77,6.77,6.77,6.77,6.77,6.77,6.77,6.77,6.77,6.77,6.77,6.77,6.77,6.77,6.77,6.77,6.77,6.77,6.77,6.77,6.8012,6.837,6.869,6.897,6.9224,6.9407,6.9768,7.0086,7.0269,7.0645,7.0898,7.0898,7.0898,7.0898,7.0898,7.0898,7.0898,7.0898,7.0898,7.0898,7.0898,7.0898,7.0898,7.0898,7.0898,7.0898,7.0898,7.0898,7.0898,7.0898,7.0898,7.0898,7.0898,7.0898,7.0898,7.0898,7.0898,7.0898,7.0898,7.0898,7.0898,7.0898,7.0898,7.0898,7.0898,7.0898,7.0898,7.0806,7.0009,6.9697,6.9577]},{"header":{"parameterUnit":"m.s-1","parameterCategory":1,"la1":30.6,"la2":28.766,"lo1":-90.7593,"lo2":-88.6598,"dx":0.0162,"dy":0.0183,"nx":116,"ny":114,"refTime":"2022-12-23T06:00:00:Z","depth":0,"parameterNumber":3,"parameterNumberName":"V-component_of_WINDS"},"data":[0.0,0.0,0.0,0.0,0.0,0.0,0.0,0.0,0.0,0.0,0.0,0.0,0.0,0.0,0.0,0.0,0.0,0.0,0.0,0.0,0.0,0.0,0.0,0.0,0.0,0.0,0.0,0.0,0.0,0.0,0.0,0.0,0.0,0.0,0.0,0.0,0.0,0.0,0.0,0.0,0.0,0.0,0.0,0.0,0.0,0.0,0.0,0.0,0.0,0.0,0.0,0.0,0.0,0.0,0.0,0.0,0.0,0.0,0.0,0.0,0.0,0.0,0.0,0.0,0.0,0.0,0.0,0.0,0.0,0.0,0.0,0.0,0.0,0.0,0.0,0.0,0.0,0.0,0.0,0.0,0.0,0.0,0.0,0.0,0.0,0.0,0.0,0.0,0.0,0.0,0.0,0.0,0.0,0.0,0.0,0.0,0.0,0.0,0.0,0.0,0.0,0.0,0.0,0.0,0.0,0.0,0.0,0.0,0.0,0.0,0.0,0.0,0.0,0.0,0.0,0.0,0.0,0.0,0.0,0.0,0.0,0.0,0.0,0.0,0.0,0.0,0.0,0.0,0.0,0.0,0.0,0.0,0.0,0.0,0.0,0.0,0.0,0.0,0.0,0.0,0.0,0.0,0.0,0.0,0.0,0.0,0.0,0.0,0.0,0.0,0.0,0.0,0.0,0.0,0.0,0.0,0.0,0.0,0.0,0.0,0.0,0.0,0.0,0.0,0.0,0.0,0.0,0.0,0.0,0.0,0.0,0.0,0.0,0.0,0.0,0.0,0.0,0.0,0.0,0.0,0.0,0.0,0.0,0.0,0.0,0.0,0.0,0.0,0.0,0.0,0.0,0.0,0.0,0.0,0.0,0.0,0.0,0.0,0.0,0.0,0.0,0.0,0.0,0.0,0.0,0.0,0.0,0.0,0.0,0.0,0.0,0.0,0.0,0.0,0.0,0.0,0.0,0.0,0.0,0.0,0.0,0.0,0.0,0.0,0.0,0.0,0.0,0.0,0.0,0.0,0.0,0.0,0.0,0.0,0.0,0.0,0.0,0.0,0.0,0.0,0.0,0.0,0.0,0.0,0.0,0.0,0.0,0.0,0.0,0.0,0.0,0.0,0.0,0.0,0.0,0.0,0.0,0.0,0.0,0.0,0.0,0.0,0.0,0.0,0.0,0.0,0.0,0.0,0.0,0.0,0.0,0.0,0.0,0.0,0.0,0.0,0.0,0.0,0.0,0.0,0.0,0.0,0.0,0.0,0.0,0.0,0.0,0.0,0.0,0.0,0.0,0.0,0.0,0.0,0.0,0.0,0.0,0.0,0.0,0.0,0.0,0.0,0.0,0.0,0.0,0.0,0.0,0.0,0.0,0.0,0.0,0.0,0.0,0.0,0.0,0.0,0.0,0.0,0.0,0.0,0.0,0.0,0.0,0.0,0.0,0.0,0.0,0.0,0.0,0.0,0.0,0.0,0.0,0.0,0.0,0.0,0.0,0.0,0.0,0.0,0.0,0.0,0.0,0.0,0.0,0.0,0.0,0.0,0.0,0.0,0.0,0.0,0.0,0.0,0.0,0.0,0.0,0.0,0.0,0.0,0.0,0.0,0.0,0.0,0.0,0.0,0.0,0.0,0.0,0.0,0.0,0.0,0.0,0.0,0.0,0.0,0.0,0.0,0.0,0.0,0.0,0.0,0.0,0.0,0.0,0.0,0.0,0.0,0.0,0.0,0.0,0.0,0.0,0.0,0.0,0.0,0.0,0.0,0.0,0.0,0.0,0.0,0.0,0.0,0.0,0.0,0.0,0.0,0.0,0.0,0.0,0.0,0.0,0.0,0.0,0.0,0.0,0.0,0.0,0.0,0.0,0.0,0.0,0.0,0.0,0.0,0.0,0.0,0.0,0.0,0.0,0.0,0.0,0.0,0.0,0.0,0.0,0.0,0.0,0.0,0.0,0.0,0.0,0.0,0.0,0.0,0.0,0.0,0.0,0.0,0.0,0.0,0.0,0.0,0.0,0.0,0.0,0.0,0.0,0.0,0.0,0.0,0.0,0.0,0.0,0.0,0.0,0.0,0.0,0.0,0.0,0.0,0.0,0.0,0.0,0.0,0.0,0.0,0.0,0.0,0.0,0.0,0.0,0.0,0.0,0.0,0.0,0.0,0.0,0.0,0.0,0.0,0.0,0.0,0.0,0.0,0.0,0.0,0.0,0.0,0.0,0.0,0.0,0.0,0.0,0.0,0.0,0.0,0.0,0.0,0.0,0.0,0.0,0.0,0.0,0.0,0.0,0.0,0.0,0.0,0.0,0.0,0.0,0.0,0.0,0.0,0.0,0.0,0.0,0.0,0.0,0.0,0.0,0.0,0.0,0.0,0.0,0.0,0.0,0.0,0.0,0.0,0.0,0.0,0.0,0.0,0.0,0.0,0.0,0.0,0.0,0.0,0.0,0.0,0.0,0.0,0.0,0.0,0.0,0.0,0.0,0.0,0.0,0.0,0.0,0.0,0.0,0.0,0.0,0.0,0.0,0.0,0.0,0.0,0.0,0.0,0.0,0.0,0.0,0.0,0.0,0.0,0.0,0.0,0.0,0.0,0.0,0.0,0.0,0.0,0.0,0.0,0.0,0.0,0.0,0.0,0.0,0.0,0.0,0.0,0.0,0.0,0.0,0.0,0.0,0.0,0.0,0.0,0.0,0.0,0.0,0.0,0.0,0.0,0.0,0.0,0.0,0.0,0.0,0.0,0.0,0.0,0.0,0.0,0.0,0.0,0.0,0.0,0.0,0.0,0.0,0.0,0.0,0.0,0.0,0.0,0.0,0.0,0.0,0.0,0.0,0.0,0.0,0.0,0.0,0.0,0.0,0.0,0.0,0.0,0.0,0.0,0.0,0.0,0.0,0.0,0.0,0.0,0.0,0.0,0.0,0.0,0.0,0.0,0.0,0.0,0.0,0.0,0.0,0.0,0.0,0.0,0.0,0.0,0.0,0.0,0.0,0.0,0.0,0.0,0.0,0.0,0.0,0.0,0.0,0.0,0.0,0.0,0.0,0.0,0.0,0.0,0.0,0.0,0.0,0.0,0.0,0.0,0.0,0.0,0.0,0.0,0.0,0.0,0.0,0.0,0.0,0.0,0.0,0.0,0.0,0.0,0.0,0.0,0.0,0.0,0.0,0.0,0.0,0.0,0.0,0.0,0.0,0.0,0.0,0.0,0.0,0.0,0.0,0.0,0.0,0.0,0.0,0.0,0.0,0.0,0.0,0.0,0.0,0.0,0.0,0.0,0.0,0.0,0.0,0.0,0.0,0.0,0.0,0.0,0.0,0.0,0.0,0.0,0.0,0.0,0.0,0.0,0.0,0.0,0.0,0.0,0.0,0.0,0.0,0.0,0.0,0.0,0.0,0.0,0.0,0.0,0.0,0.0,0.0,0.0,0.0,0.0,0.0,0.0,0.0,0.0,0.0,0.0,0.0,0.0,0.0,0.0,0.0,0.0,0.0,0.0,0.0,0.0,0.0,0.0,0.0,0.0,0.0,0.0,0.0,0.0,0.0,0.0,0.0,0.0,0.0,0.0,0.0,0.0,0.0,0.0,0.0,0.0,0.0,0.0,0.0,0.0,0.0,0.0,0.0,0.0,0.0,0.0,0.0,0.0,0.0,0.0,0.0,0.0,0.0,0.0,0.0,0.0,0.0,0.0,0.0,0.0,0.0,0.0,0.0,0.0,0.0,0.0,0.0,0.0,0.0,0.0,0.0,0.0,0.0,0.0,0.0,0.0,0.0,0.0,0.0,0.0,0.0,0.0,0.0,0.0,0.0,0.0,0.0,0.0,0.0,0.0,0.0,0.0,0.0,0.0,0.0,0.0,0.0,0.0,0.0,0.0,0.0,0.0,0.0,0.0,0.0,0.0,0.0,0.0,0.0,0.0,0.0,0.0,0.0,0.0,0.0,0.0,0.0,0.0,0.0,0.0,0.0,0.0,0.0,0.0,0.0,0.0,0.0,0.0,0.0,0.0,0.0,0.0,0.0,0.0,0.0,0.0,0.0,0.0,0.0,0.0,0.0,0.0,0.0,0.0,0.0,0.0,0.0,0.0,0.0,0.0,0.0,0.0,0.0,0.0,0.0,0.0,0.0,0.0,0.0,0.0,0.0,0.0,0.0,0.0,0.0,0.0,0.0,0.0,0.0,0.0,0.0,0.0,0.0,0.0,0.0,0.0,0.0,0.0,0.0,0.0,0.0,0.0,0.0,0.0,0.0,0.0,0.0,0.0,0.0,0.0,0.0,0.0,0.0,0.0,0.0,0.0,0.0,0.0,0.0,0.0,0.0,0.0,0.0,0.0,0.0,0.0,0.0,0.0,0.0,0.0,0.0,0.0,0.0,0.0,0.0,0.0,0.0,0.0,0.0,0.0,0.0,0.0,0.0,0.0,0.0,0.0,0.0,0.0,0.0,0.0,0.0,0.0,0.0,0.0,0.0,0.0,0.0,0.0,0.0,0.0,0.0,0.0,0.0,0.0,0.0,0.0,0.0,0.0,0.0,0.0,0.0,0.0,0.0,0.0,0.0,0.0,0.0,0.0,0.0,0.0,0.0,0.0,0.0,0.0,0.0,0.0,0.0,0.0,0.0,0.0,0.0,0.0,0.0,0.0,0.0,0.0,0.0,0.0,0.0,0.0,0.0,0.0,0.0,0.0,0.0,0.0,0.0,0.0,0.0,0.0,0.0,0.0,0.0,0.0,0.0,0.0,0.0,0.0,0.0,0.0,0.0,0.0,0.0,0.0,0.0,0.0,0.0,0.0,0.0,0.0,0.0,0.0,0.0,0.0,0.0,0.0,0.0,0.0,0.0,0.0,0.0,0.0,0.0,0.0,0.0,0.0,0.0,0.0,0.0,0.0,0.0,0.0,0.0,0.0,0.0,0.0,0.0,0.0,0.0,0.0,0.0,0.0,0.0,0.0,0.0,0.0,0.0,0.0,0.0,0.0,0.0,0.0,0.0,0.0,0.0,0.0,0.0,0.0,0.0,0.0,0.0,0.0,0.0,0.0,0.0,0.0,0.0,0.0,0.0,0.0,0.0,0.0,0.0,0.0,0.0,0.0,0.0,0.0,0.0,0.0,0.0,0.0,0.0,0.0,0.0,0.0,0.0,0.0,0.0,0.0,0.0,0.0,0.0,0.0,0.0,0.0,0.0,0.0,0.0,0.0,0.0,0.0,0.0,0.0,0.0,0.0,0.0,0.0,0.0,0.0,0.0,0.0,0.0,0.0,0.0,0.0,0.0,0.0,0.0,0.0,0.0,0.0,0.0,0.0,0.0,0.0,0.0,0.0,0.0,0.0,0.0,0.0,0.0,0.0,0.0,0.0,0.0,0.0,0.0,0.0,0.0,0.0,0.0,0.0,0.0,0.0,0.0,0.0,0.0,0.0,0.0,0.0,0.0,0.0,0.0,0.0,0.0,0.0,0.0,0.0,0.0,0.0,0.0,0.0,0.0,0.0,0.0,0.0,0.0,0.0,0.0,0.0,0.0,0.0,0.0,0.0,0.0,0.0,0.0,0.0,0.0,0.0,0.0,0.0,0.0,0.0,0.0,0.0,0.0,0.0,0.0,0.0,0.0,0.0,0.0,0.0,0.0,0.0,0.0,0.0,0.0,0.0,0.0,0.0,0.0,0.0,0.0,0.0,0.0,0.0,0.0,0.0,0.0,0.0,0.0,0.0,0.0,0.0,0.0,0.0,0.0,0.0,0.0,0.0,0.0,0.0,0.0,0.0,0.0,0.0,0.0,0.0,0.0,0.0,0.0,0.0,0.0,0.0,0.0,0.0,0.0,0.0,0.0,0.0,0.0,0.0,0.0,0.0,0.0,0.0,0.0,0.0,0.0,0.0,0.0,0.0,0.0,0.0,0.0,0.0,0.0,0.0,0.0,0.0,0.0,0.0,0.0,0.0,0.0,0.0,0.0,0.0,0.0,0.0,0.0,0.0,0.0,0.0,0.0,0.0,0.0,0.0,0.0,0.0,0.0,0.0,0.0,0.0,0.0,0.0,0.0,0.0,0.0,0.0,0.0,0.0,0.0,0.0,0.0,0.0,0.0,0.0,1.17,1.0155,0.0,0.0,0.0,0.0,0.0,0.0,0.0,0.0,0.0,0.0,0.0,0.0,0.0,0.0,0.0,0.0,0.0,0.0,0.0,0.0,0.0,0.0,0.0,0.5028,0.5147,0.5061,0.5385,0.0,0.0,0.0,0.0,0.0,0.0,0.0,0.0,0.0,0.6134,0.7386,0.7786,0.9148,1.138,1.0177,0.9274,0.8619,0.0,0.0,0.0,0.0,0.0,0.0,0.0,0.0,0.0,0.0,0.0,0.0,0.0,0.0,0.0,0.0,0.0,0.0,0.0,0.0,0.0,0.0,0.0,0.0,0.0,0.0,0.0,0.0,0.0,0.0,0.0,0.0,0.0,0.0,0.0,0.0,0.0,0.0,0.0,0.0,0.0,0.0,0.0,0.0,0.0,0.0,0.0,0.0,0.0,0.0,0.0,0.0,0.0,0.0,0.0,0.0,0.0,0.0,0.0,0.0,0.0,0.0,0.0,0.0,0.0,0.0,0.0,0.0,0.0,0.0,1.3069,1.2153,0.0,0.0,0.0,0.0,0.0,0.0,0.0,0.0,0.0,0.0,0.0,0.0,0.0,0.0,0.0,0.0,0.0,0.0,0.0,0.0,0.0,0.4807,0.4863,0.5267,0.5452,0.526,0.5616,0.5708,0.5377,0.542,0.0,0.0,0.0,0.0,0.536,0.6258,0.7167,0.8045,0.9809,1.1454,1.2989,1.3374,1.2542,1.0649,0.9355,0.0,0.0,0.0,0.0,0.0,0.0,0.0,0.0,0.0,0.0,0.0,0.0,0.0,0.0,0.0,0.0,0.0,0.0,0.0,0.0,0.0,0.0,0.0,0.0,0.0,0.0,0.0,0.0,0.0,0.0,0.0,0.0,0.0,0.0,0.0,0.0,0.0,0.0,0.0,0.0,0.0,0.0,0.0,0.0,0.0,0.0,0.0,0.0,0.0,0.0,0.0,0.0,0.0,0.0,0.0,0.0,0.0,0.0,0.0,0.0,0.0,0.0,0.0,1.3881,1.3967,1.376,1.404,1.4587,1.5282,1.4499,1.4438,1.4754,1.293,0.0,0.0,0.0,0.0,0.0,0.0,0.0,0.0,0.0,0.0,0.0,0.0,0.0,0.0,0.0,0.0,0.0,0.0,0.0,0.4821,0.5114,0.5208,0.5509,0.6162,0.6116,0.6039,0.5982,0.5776,0.0,0.0,0.0,0.6198,0.6726,0.7603,0.8505,0.9441,1.2314,1.3851,1.41,1.4727,1.4776,1.4223,1.2324,1.1666,1.1857,0.0,0.0,0.0,0.0,0.0,0.0,0.0,0.0,0.0,0.0,0.0,0.0,0.0,0.0,0.0,0.0,0.0,0.0,0.0,0.0,0.0,0.0,0.0,0.0,0.0,0.0,0.0,0.0,0.0,0.0,0.0,0.0,0.0,0.0,0.0,0.0,0.0,0.0,0.0,0.0,0.0,1.0312,1.0365,0.0,0.0,0.0,0.0,0.0,0.0,0.0,0.0,0.0,0.0,0.0,0.0,0.0,1.295,1.336,1.403,1.4606,1.5085,1.6005,1.6546,1.6721,1.6783,1.6871,1.6981,1.6845,0.0,1.4878,1.4589,0.0,0.0,0.0,0.0,0.0,0.0,0.0,0.0,0.0,0.0,0.0,0.0,0.0,0.0,0.0,0.0,0.0,0.0,0.0,0.0,0.0,0.6636,0.699,0.7531,0.7605,0.7326,0.665,0.6388,0.0,0.0,0.567,0.5972,0.6871,0.8039,0.9834,1.2287,1.4847,1.5998,1.5825,1.6311,1.6532,1.6494,1.5866,1.4862,1.3541,1.2489,0.0,0.0,0.0,0.0,0.0,0.0,0.0,0.0,0.0,0.0,0.0,0.0,0.0,0.0,0.0,0.0,0.0,0.0,0.0,0.0,0.0,0.0,0.0,0.0,0.0,0.0,0.0,0.0,0.0,0.0,0.0,0.0,0.0,0.0,0.0,0.0,0.0,0.0,0.0,0.9879,1.0799,1.1318,1.1121,1.0719,0.0,0.0,0.0,0.0,0.0,0.0,0.0,0.0,0.0,1.4048,1.4431,1.4882,1.541,1.5851,1.6126,1.6246,1.6686,1.6957,1.7081,1.7233,1.7404,1.758,1.758,1.7178,1.6465,1.576,1.5052,1.4336,0.0,0.0,0.0,0.0,1.3139,1.2525,0.0,0.0,0.0,0.0,0.0,0.0,0.0,0.0,0.0,0.0,0.0,0.0,0.7437,0.783,0.8277,0.8883,0.8989,0.8676,0.7847,0.7296,0.683,0.6436,0.5949,0.6178,0.724,0.9028,1.1552,1.4838,1.6441,1.7209,1.7174,1.7206,1.7328,1.7544,1.8095,1.7326,1.5562,1.4985,1.4149,1.3101,0.0,0.0,0.0,0.0,0.0,0.0,0.0,0.0,0.0,0.0,0.0,0.0,0.0,0.0,0.0,0.0,0.0,0.0,0.0,0.0,0.0,0.0,0.0,0.0,0.0,0.0,0.0,0.0,0.0,0.0,0.0,0.0,0.0,0.0,0.0,0.0,0.0,1.0733,1.1736,1.2429,1.2345,1.1884,0.0,0.0,0.0,0.0,0.0,0.0,1.3614,1.4248,1.4889,1.5502,1.5932,1.6429,1.7001,1.7197,1.7241,1.7129,1.7221,1.7258,1.7254,1.746,1.7682,1.7928,1.7928,1.7928,1.784,1.6722,1.6166,1.5935,1.498,1.466,1.4755,1.4917,1.4657,1.4255,0.0,0.0,0.0,0.0,0.0,0.0,0.0,0.0,0.0,0.0,0.0,0.6775,0.7858,0.8047,0.8642,0.9997,0.9838,0.9736,0.9927,0.8623,0.7909,0.8067,0.7386,0.7477,0.849,1.1314,1.3944,1.6284,1.6399,1.6864,1.7647,1.6833,1.666,1.7068,1.7853,1.8446,1.8755,1.7151,1.6406,1.6042,1.3309,0.0,0.0,0.0,0.0,0.0,0.0,0.0,0.0,0.0,0.0,0.0,0.0,0.0,0.0,0.0,0.0,0.0,0.0,0.0,0.0,0.0,0.0,0.0,0.0,0.0,0.0,0.0,0.0,0.0,0.0,0.0,0.0,0.0,0.0,0.0,0.0,0.0,0.0,1.3889,1.3891,0.0,0.0,0.0,0.0,1.2927,1.4085,1.4936,1.5261,1.5917,1.6554,1.7163,1.6956,1.699,1.728,1.7283,1.7448,1.776,1.8079,1.8233,1.8233,1.8247,1.8262,1.8264,1.8264,1.8264,1.8225,1.7514,1.6894,1.6371,1.6294,1.5902,1.5432,1.6074,1.601,1.5688,0.0,0.0,0.0,0.4862,0.4748,0.4658,0.461,0.4794,0.5074,0.5427,0.6502,0.7662,0.8781,0.9501,1.0303,1.1273,1.1052,1.0677,1.0261,0.9128,0.861,0.8896,0.8041,0.8889,1.1758,1.4288,1.6117,1.7238,1.754,1.7849,1.8143,1.783,1.7758,1.7944,1.8831,1.9352,1.9536,1.9369,1.8864,1.809,1.7082,1.4759,0.0,0.0,0.0,0.0,0.0,0.0,0.0,0.0,0.0,0.0,0.0,0.0,0.0,0.0,0.0,0.0,0.0,0.0,0.0,0.0,0.0,0.0,0.0,0.0,0.0,0.0,0.0,0.0,0.0,0.0,0.0,0.0,0.0,0.0,0.0,0.0,0.0,1.4023,1.4338,0.0,1.3867,1.4567,1.4989,1.4877,1.5852,1.6495,1.6623,1.7051,1.7406,1.7609,1.7735,1.785,1.7943,1.7943,1.8001,1.8118,1.8247,1.8408,1.8613,1.8613,1.8743,1.8933,1.8721,1.8613,1.8596,1.8138,1.7823,1.7623,1.7623,1.7472,1.7299,1.753,1.7517,1.7339,0.0,0.0,0.0,0.4687,0.459,0.4521,0.4501,0.4785,0.5247,0.5915,0.7132,0.844,0.9762,1.054,1.1261,1.1969,1.1827,1.1513,1.1073,0.9974,0.9475,0.9793,0.9597,1.1058,1.444,1.6324,1.7537,1.8066,1.845,1.8716,1.887,1.8551,1.8571,1.8893,1.9357,1.9722,2.004,2.0657,2.0537,1.9925,1.9343,1.7364,1.4614,0.0,0.0,0.0,0.0,0.0,0.0,0.0,0.0,0.0,0.0,0.0,0.0,0.0,0.0,0.0,0.0,0.0,0.0,0.0,0.0,0.0,0.0,0.0,0.0,0.0,0.0,0.0,0.0,0.0,0.0,0.0,0.0,0.0,0.0,1.3475,1.4448,1.4318,1.4854,1.5081,1.4687,1.5617,1.6272,1.6378,1.7046,1.7514,1.7631,1.7855,1.7965,1.7965,1.8177,1.8357,1.8467,1.8467,1.8538,1.864,1.864,1.8745,1.8963,1.8963,1.9087,1.929,1.9078,1.8963,1.8955,1.8853,1.8809,1.8772,1.843,1.8299,1.8299,1.8299,1.8191,1.7905,0.0,0.0,0.4515,0.4576,0.4479,0.4359,0.4298,0.4906,0.5809,0.7012,0.7896,0.9036,1.0684,1.1019,1.1375,1.2035,1.2081,1.2189,1.2451,1.1181,1.0545,1.085,1.2192,1.4012,1.631,1.7341,1.8183,1.8847,1.9055,1.9378,1.9801,1.8893,1.8934,1.9772,1.9347,1.9611,2.0425,2.0898,2.1333,2.1583,1.9898,1.8911,1.8181,0.0,0.0,0.0,0.0,0.0,0.0,0.0,0.0,0.0,0.0,0.0,0.0,0.0,0.0,0.0,0.0,0.0,0.0,0.0,0.0,0.0,0.0,0.0,0.0,0.0,0.0,0.0,0.0,0.0,0.0,0.0,0.0,0.0,1.3206,1.392,1.4643,1.4907,1.5534,1.5928,1.5936,1.6543,1.7041,1.7309,1.7631,1.7957,1.8284,1.8313,1.8321,1.8321,1.8328,1.8482,1.8816,1.8823,1.8999,1.9334,1.9342,1.9356,1.9364,1.9349,1.9349,1.9349,1.9321,1.9327,1.9343,1.9679,1.9803,1.9729,1.8743,1.8364,1.8364,1.8364,1.8008,1.7343,0.4739,0.4515,0.4364,0.4379,0.4189,0.4032,0.4009,0.4514,0.5271,0.6337,0.7725,0.905,1.02,1.1005,1.1542,1.1716,1.1747,1.177,1.184,1.1032,1.1031,1.213,1.4627,1.6499,1.7577,1.8541,1.9335,1.996,2.0013,2.0112,2.0225,1.9967,1.9829,1.9812,1.9965,2.0184,2.0431,2.0844,2.1476,2.2184,2.1992,2.0911,1.9368,0.0,0.0,0.0,0.0,0.0,0.0,0.0,0.0,0.0,0.0,0.0,0.0,0.0,0.0,0.0,0.0,0.0,0.0,0.0,0.0,0.0,0.0,0.0,0.0,0.0,0.0,0.0,0.0,0.0,0.0,0.0,1.4004,1.4691,1.4421,1.503,1.5628,1.5953,1.6367,1.67,1.6893,1.7299,1.7684,1.8001,1.8103,1.8199,1.8299,1.8525,1.8657,1.8657,1.8897,1.9065,1.9153,1.94,1.9665,1.9961,2.0195,2.0436,2.0669,2.0435,2.0325,2.0297,2.0063,1.9947,1.9968,2.0056,2.0092,2.0063,1.9786,1.9677,1.9677,1.9677,1.9146,1.8306,0.4589,0.44,0.4262,0.4298,0.4058,0.3858,0.3858,0.4241,0.4981,0.6247,0.7643,0.901,1.0258,1.1118,1.1599,1.1599,1.17,1.1722,1.1606,1.1471,1.2135,1.3802,1.5852,1.7452,1.8541,1.9561,2.0161,2.0319,2.077,2.0898,2.0692,2.0692,2.067,2.0635,2.0681,2.0806,2.1,2.124,2.1747,2.2421,2.2656,2.1969,2.0787,2.0599,1.9405,1.7679,1.6712,1.6259,1.6077,1.5708,0.0,0.0,0.0,0.0,0.0,0.0,0.0,0.0,0.0,0.0,0.0,0.0,0.0,0.0,0.0,0.0,0.0,0.0,0.0,0.0,0.0,0.0,0.0,0.0,1.5116,1.5778,1.5889,1.6016,1.6283,1.6718,1.6949,1.7242,1.7679,1.7899,1.8152,1.8482,1.8503,1.8562,1.8714,1.8904,1.9006,1.9006,1.9334,1.9503,1.9503,1.9944,2.0259,2.0415,2.0744,2.1013,2.1189,2.0999,2.0911,2.0904,2.07,2.0619,2.0627,2.0765,2.0838,2.0794,0.0,0.0,0.0,0.0,1.9346,1.8726,0.4492,0.4329,0.4212,0.4237,0.397,0.3738,0.3722,0.4027,0.4826,0.6422,0.7556,0.884,1.0499,1.1171,1.1513,1.1513,1.1842,1.1968,1.1775,1.2374,1.3535,1.532,1.6232,1.7452,1.9068,2.0207,2.062,2.0272,2.1297,2.1591,2.1177,2.1177,2.1405,2.1777,2.1354,2.1415,2.1798,2.1798,2.2006,2.2327,2.2327,2.2288,2.2141,2.1477,2.0878,2.0249,1.9155,1.8484,1.7967,1.7251,0.0,0.0,0.0,0.0,0.0,0.0,0.0,0.0,0.0,0.0,0.0,0.0,0.0,0.0,0.0,0.0,0.0,0.0,0.0,0.0,0.0,0.0,0.0,0.0,1.632,1.7041,1.7317,1.6935,1.681,1.7346,1.7412,1.766,1.8286,1.8357,1.8509,1.8831,1.886,1.8985,1.9283,1.9342,0.0,0.0,0.0,1.9862,1.9898,2.0472,2.0787,2.0868,2.1196,2.1372,2.1408,2.1372,2.135,2.135,2.1335,2.1306,2.1342,2.1635,2.1752,2.1664,2.0765,2.0429,2.0346,1.9619,1.9299,1.8999,0.4344,0.4265,0.4135,0.3936,0.3619,0.3363,0.3249,0.3655,0.452,0.6021,0.7057,0.8229,0.9748,1.054,1.095,1.095,1.1842,1.2494,1.2716,1.3648,1.4373,1.476,1.6364,1.7627,1.8461,1.9542,2.0304,2.0757,2.1461,2.1746,2.1663,2.1663,2.1705,2.1797,2.1714,2.1715,2.1798,2.1798,2.1845,2.1921,2.1921,2.2095,2.2375,2.2547,2.1921,2.0962,2.1024,2.0792,2.0475,2.0681,1.9983,1.904,1.9225,1.7689,0.0,0.0,0.0,0.0,0.0,0.0,0.0,0.0,0.0,0.0,0.0,0.0,0.0,0.0,0.0,0.0,0.0,0.0,0.0,1.6085,1.6777,1.7336,1.7665,1.7845,1.7977,1.8089,1.8116,1.8262,1.8657,1.8694,1.8845,1.9188,1.9197,1.9226,1.9298,1.9554,1.9693,1.9693,1.9981,2.0247,2.0524,2.0911,2.1364,2.1906,2.2191,0.0,2.2717,2.2454,2.233,2.2322,2.2096,2.2016,2.2016,2.2074,2.2103,2.2082,2.1891,2.1803,2.1789,2.1641,2.1103,2.0408,0.4055,0.4022,0.3923,0.3692,0.3396,0.3212,0.3242,0.3509,0.4171,0.5481,0.6409,0.7362,0.8436,0.9028,0.9406,0.9536,1.0781,1.1875,1.2652,1.3546,1.4452,1.5368,1.6299,1.7374,1.8625,1.9471,2.011,2.0548,2.1389,2.1674,2.1447,2.1684,2.1798,2.1798,2.1798,2.1798,2.1798,2.1798,2.1798,2.1798,2.1798,2.1921,2.212,2.2318,2.1991,2.1474,2.168,2.1614,2.1487,2.1715,2.1352,2.0842,2.1041,1.9542,1.745,0.0,0.0,0.0,0.0,0.0,0.0,0.0,0.0,0.0,0.0,0.0,0.0,0.0,0.0,1.4601,1.5111,0.0,1.6162,1.6971,1.735,1.7731,1.8233,1.8445,1.8547,1.8547,1.8547,1.8672,1.9027,1.9043,1.9116,1.929,1.9465,1.9547,1.9547,1.9834,2.0077,2.0251,2.0538,2.0867,2.1203,2.1664,2.2066,2.2403,2.2718,2.2936,2.309,2.2922,2.2849,2.2841,2.271,2.2645,2.2645,2.2645,2.2645,2.2645,2.2645,2.247,2.2139,2.1599,2.1104,2.0582,0.3696,0.3664,0.3605,0.3419,0.3202,0.3111,0.3261,0.336,0.3797,0.4853,0.563,0.6325,0.6964,0.7466,0.7988,0.8544,0.9799,1.1052,1.2189,1.3096,1.4248,1.5728,1.6045,1.701,1.8737,1.9512,2.0043,2.0341,2.1318,2.1612,2.125,2.1697,2.1874,2.1798,2.1883,2.1874,2.1798,2.1798,2.1798,2.1798,2.1798,2.1798,2.1798,2.1798,2.1798,2.1798,2.1798,2.1798,2.1798,2.1798,2.1798,2.1798,2.1798,2.0691,1.9141,1.7907,1.6515,0.0,0.0,0.0,0.0,0.0,0.0,0.0,0.0,1.3271,1.385,1.4511,1.5033,1.5531,1.6067,1.6451,1.692,1.7672,1.7906,1.8177,1.8716,1.8853,1.8919,1.8985,1.8992,1.9094,1.9371,1.9438,1.9475,1.9475,1.9737,1.9884,1.9884,2.0143,2.0451,2.0794,2.1116,2.1474,2.1876,2.2359,2.2621,2.2702,2.2966,2.309,2.309,2.309,2.309,2.309,2.309,2.309,2.309,2.309,2.309,2.309,2.309,2.2682,2.1981,2.1111,2.0678,2.0307,0.3266,0.3175,0.3135,0.2995,0.2939,0.2913,0.2874,0.3026,0.3405,0.4125,0.4665,0.5167,0.5656,0.6655,0.7909,0.9496,1.0118,1.0817,1.1717,1.314,1.4057,1.4315,1.5532,1.6738,1.7909,1.9228,2.0197,2.0816,2.148,2.1767,2.1725,2.2136,2.2138,2.1817,2.2167,2.2129,2.1798,2.1798,2.1798,2.1798,2.1798,2.1798,2.1798,2.1798,2.1798,2.1798,2.1798,2.1798,2.1798,2.1798,2.1798,2.1798,2.1798,2.1649,2.1151,1.9598,1.851,1.7241,1.4662,1.3274,1.2676,1.3158,1.3759,1.4523,0.0,1.5975,1.6188,1.6798,1.6976,1.7049,1.7134,1.7423,1.7679,1.7777,1.8299,1.8714,1.8787,1.905,1.9356,1.9649,1.9692,1.9693,1.9743,1.9959,2.0101,2.0101,2.013,2.0159,2.0159,2.0466,2.0801,2.113,2.1474,2.1928,2.2498,2.2571,2.2754,2.3039,2.3075,2.309,2.309,2.309,2.309,2.309,2.309,2.309,2.309,2.309,2.309,2.309,2.309,2.25,2.1653,2.1527,2.0917,2.0128,0.3137,0.3004,0.2858,0.2645,0.2771,0.2918,0.2968,0.3146,0.3457,0.3971,0.4213,0.4407,0.4606,0.5091,0.578,0.6747,0.8525,0.9887,1.0608,1.2568,1.3913,1.4366,1.5177,1.6189,1.742,1.8867,1.9764,2.0084,2.1236,2.1653,2.1404,2.2078,2.2186,2.1836,2.2468,2.2525,2.2157,2.2402,2.2506,2.2478,2.2242,2.2148,2.212,2.1893,2.1798,2.1798,2.1798,2.1798,0.0,2.1798,2.1798,2.1798,2.1798,2.1156,2.031,1.9831,1.8785,1.7559,1.6515,1.5382,1.4594,1.5068,1.5403,1.5686,1.6034,1.6265,1.6532,1.6971,1.7355,1.7587,1.7587,1.7857,1.8147,1.835,1.8626,1.8933,1.9327,1.9503,1.9708,1.9996,2.0208,2.0245,2.0055,2.013,2.0197,2.0197,2.0386,2.0575,2.0765,2.1101,2.1518,2.2001,2.2147,2.2432,2.2885,2.2893,2.2958,2.309,2.309,2.309,2.309,2.309,2.309,2.309,2.309,2.309,2.309,2.309,2.309,2.309,2.309,2.2209,2.0891,2.0775,2.0075,1.904,0.3025,0.2913,0.2758,0.255,0.2695,0.2837,0.2827,0.295,0.3166,0.3515,0.3558,0.3598,0.3712,0.3737,0.3965,0.4513,0.6962,0.8752,0.9389,1.1761,1.35,1.4321,1.4897,1.5837,1.7196,1.8536,1.9367,1.9674,2.0976,2.1539,2.1418,2.2198,2.2412,2.2157,2.2861,2.2945,2.2581,2.288,2.3001,2.2973,2.2684,2.2572,2.2525,2.212,2.1895,2.1752,2.1648,2.1612,2.157,2.1331,2.1321,2.1394,2.128,2.0426,1.9505,1.9791,1.8589,1.7191,1.7259,1.6467,1.5735,1.6162,1.6396,1.647,1.6228,1.6422,1.6726,1.6961,1.7428,1.7804,1.7804,1.8152,1.8553,1.8882,1.9027,1.927,1.9827,1.9907,2.0024,2.0305,2.0554,2.0641,2.0495,2.0473,2.0473,2.0473,2.0794,2.1079,2.1313,2.165,2.2074,2.2578,2.2607,2.2761,2.3106,2.309,2.309,2.309,2.309,2.309,2.309,2.309,2.309,2.309,2.309,2.309,2.309,2.309,2.3148,2.3245,2.3245,2.2134,2.0522,2.0373,1.933,1.7821,0.2848,0.2856,0.2875,0.2802,0.2744,0.2574,0.2187,0.2136,0.2213,0.2422,0.2449,0.2599,0.2987,0.2914,0.3211,0.4137,0.602,0.7466,0.8206,1.0748,1.2677,1.3673,1.4672,1.586,1.727,1.8228,1.9167,2.0086,2.0777,2.1473,2.2185,2.2726,2.2973,2.2983,2.339,2.3362,2.2983,2.2992,2.3001,2.3001,2.2992,2.2983,2.2945,2.2534,2.2097,2.1647,2.1264,2.1116,2.0991,2.0147,2.0119,2.0372,1.9972,1.974,1.9628,1.9754,1.8158,1.6327,1.6258,1.5604,1.5093,1.5746,1.64,1.6881,1.6873,1.7081,1.728,1.7288,1.7558,1.7804,1.7804,1.8343,1.8897,1.9232,1.9554,1.9877,2.0152,2.0196,2.0312,2.0655,2.0692,2.0817,2.1138,2.1167,2.1167,2.1167,2.1481,2.1672,2.1679,2.2008,2.2308,2.2585,2.2607,2.2761,2.3106,2.309,2.309,2.309,2.309,2.309,2.309,2.309,2.309,2.309,2.309,2.309,2.309,2.309,2.3296,2.3581,2.3581,2.2485,2.0888,2.0882,1.9098,1.665,0.3279,0.3213,0.3056,0.2726,0.2535,0.2283,0.1838,0.207,0.2326,0.2393,0.2399,0.0,0.0,0.0,0.0,0.0,0.5156,0.6653,0.7482,0.9959,1.1907,1.3053,1.4021,1.5324,1.7003,1.7555,1.8452,1.9703,2.0281,2.0784,2.1231,2.2346,2.2722,2.2515,2.354,2.3767,2.3418,2.3675,2.3797,2.3767,2.351,2.3399,2.3394,2.3347,2.2466,2.122,0.0,2.0731,2.0147,1.9544,1.9432,1.9568,1.9741,1.8883,1.7676,1.6963,1.6912,1.7001,1.6581,1.6408,1.6438,1.6745,1.6999,1.7172,1.7172,1.7241,1.7368,1.7587,1.7899,1.8269,1.8714,1.9153,1.9556,1.9844,1.999,2.0173,2.0488,2.0532,2.0663,2.0992,2.1035,2.1072,2.1182,2.1196,2.1284,2.1518,2.1635,2.1876,2.2271,2.2395,2.2607,2.2922,2.2929,2.2988,2.309,2.309,2.309,2.309,2.309,2.309,2.312,2.3332,2.331,2.3105,2.334,2.3435,2.3435,2.3435,2.3625,2.3934,2.3934,2.2794,2.1177,2.1177,1.9425,1.6974,0.344,0.3377,0.3188,0.2717,0.2469,0.0,0.0,0.0,0.0,0.0,0.0,0.0,0.0,0.0,0.0,0.0,0.0,0.5478,0.6424,0.86,1.0436,1.1739,1.2681,1.3941,1.5609,1.619,1.745,1.9455,1.979,2.0535,2.1684,2.2269,2.249,2.2422,2.3279,2.3516,2.3302,2.3551,2.3968,2.4379,2.3598,2.3498,2.3735,2.3028,2.1793,0.0,2.0024,1.9323,1.8561,1.84,1.8462,1.8616,1.8731,1.8038,1.6999,1.6078,1.6615,1.7429,1.7092,1.7049,1.7132,1.7269,1.7302,1.7327,1.7448,1.7565,1.7748,1.8094,1.8328,1.8655,1.9202,1.9487,1.9746,2.0137,2.0305,2.0495,2.0824,2.0882,2.0962,2.1167,2.1196,2.1196,2.1196,2.1313,2.1467,2.1679,2.1803,2.2089,2.2563,2.2717,2.2878,2.3083,2.309,2.309,2.309,2.309,2.309,2.309,2.323,2.3281,2.3296,2.3634,2.3654,2.3471,2.3692,2.3787,2.3787,2.3787,2.3735,2.3673,2.3673,2.2522,2.0873,2.0873,1.9519,1.7534,0.3363,0.3381,0.3266,0.0,0.0,0.0,0.0,0.0,0.0,0.0,0.0,0.0,0.0,0.0,0.0,0.0,0.0,0.0,0.5068,0.6751,0.8385,0.9903,1.0819,1.1965,1.34,1.4322,1.6243,1.9232,1.9213,2.0561,2.3115,2.2356,2.2218,2.2575,2.2633,2.2656,2.2656,2.2656,2.3474,2.4627,2.3207,2.3176,2.3755,2.1681,2.0219,1.9134,1.8071,1.7125,1.6429,1.6862,1.7317,1.7631,1.7094,1.7302,1.7624,1.7084,1.7243,1.7584,1.7695,1.7464,1.7223,1.7328,1.7368,1.7456,1.7782,1.8103,1.843,1.8721,1.8767,1.8867,1.9173,1.9268,1.949,2.0079,2.0488,2.0845,2.1167,2.1196,2.1196,2.1196,2.1196,2.1204,2.1218,2.1511,2.1708,2.1737,2.2045,2.2337,2.2615,2.2929,2.309,2.309,2.309,2.309,2.309,2.309,2.312,2.3135,2.3449,2.3603,2.3632,2.3992,2.4139,2.4124,2.4161,2.4168,2.4175,2.411,2.3643,2.2949,2.2899,2.1754,2.0121,2.0127,1.9366,1.8151,0.0,0.0,0.0,0.0,0.0,0.0,0.0,0.0,0.0,0.0,0.0,0.0,0.0,0.0,0.0,0.0,0.0,0.0,0.4229,0.5661,0.7382,0.9464,1.0581,1.2001,1.3813,1.4383,1.5401,1.6945,1.7718,1.8568,1.9472,2.0399,2.0883,2.1012,2.1762,2.2094,2.2094,2.2094,2.2324,2.2599,2.1875,2.1379,2.1057,2.0889,1.9485,1.7621,1.7675,1.6925,1.5998,1.6748,1.7441,1.7924,1.7541,1.776,1.8039,1.7497,1.7908,1.8469,1.8163,1.8295,1.8446,1.8123,1.8228,1.8438,1.8538,1.8801,1.8926,1.8511,1.843,1.8379,1.8206,1.8782,1.9437,1.9847,2.0559,2.1101,2.1182,2.1196,2.1196,2.1196,2.1196,2.1306,2.1547,2.165,2.1891,2.2337,2.2447,2.2637,2.2967,2.3046,2.309,2.309,2.309,2.309,2.309,2.309,2.323,2.3471,2.3552,2.3736,2.3992,2.458,2.4712,2.4507,2.4949,2.5145,2.5077,2.4228,2.387,2.3772,2.2931,2.1793,2.0608,2.0403,1.929,1.7727,0.0,0.0,0.0,0.0,0.0,0.0,0.0,0.0,0.0,0.0,0.0,0.0,0.0,0.0,0.0,0.0,0.0,0.0,0.0,0.4522,0.5937,0.7659,0.8935,1.037,1.1987,1.259,1.3872,1.5875,1.6159,1.6908,1.8109,1.8524,1.8855,1.911,1.9677,2.0041,2.0224,2.0224,2.0622,0.0,0.0,1.9847,1.9791,1.9189,1.7919,1.6483,1.6506,1.647,1.6472,1.6899,1.7421,1.7855,1.7761,1.805,1.8414,1.8389,1.8855,1.9314,1.9028,1.8973,1.889,1.8422,1.8438,1.854,1.8394,1.8613,1.8714,1.8196,1.7957,1.7763,1.7425,1.8296,1.9092,1.9141,2.0299,2.1196,2.1196,2.1196,2.1196,2.1196,2.1196,2.1328,2.1664,2.1825,2.2111,2.2571,2.2607,2.2746,2.3075,2.309,2.309,2.309,2.309,2.309,2.309,2.3252,2.3413,2.3596,2.3905,2.4139,2.4346,2.4858,2.5071,2.5008,2.5357,2.5573,2.5635,2.447,2.3786,2.3383,2.2204,2.106,2.0048,1.9871,1.9191,1.8148,0.0,0.0,0.0,0.0,0.0,0.0,0.0,0.0,0.0,0.1678,0.1635,0.1534,0.1359,0.1211,0.0,0.0,0.0,0.0,0.0,0.0,0.4485,0.5517,0.689,0.8198,0.9393,1.0248,1.212,1.5057,1.4617,1.5479,1.7505,1.6763,1.6651,1.7102,1.7166,1.7433,1.7818,1.7818,1.8616,1.9765,1.8368,1.8318,1.8884,0.0,1.6031,1.5464,1.5106,1.5861,1.7029,1.7107,1.7409,1.7771,1.7915,1.8254,1.8737,1.9363,1.9737,1.9925,1.9924,1.9487,1.8939,1.853,1.8467,1.8401,1.8016,1.8184,1.8277,1.7735,1.7423,1.7105,1.6635,1.7588,1.8418,1.8324,1.9772,2.0937,2.101,2.1125,2.1168,2.1089,2.1183,2.1415,2.1781,2.2074,2.2367,2.2651,2.2673,2.279,2.3075,2.309,2.309,2.309,2.309,2.3112,2.3171,2.3457,2.364,2.3735,2.4315,2.4646,2.4725,2.5071,2.5376,2.5642,2.5686,2.5774,2.5799,2.459,2.3448,2.2359,2.1148,2.0088,1.9204,1.9172,1.9088,1.8803,0.0,0.0,0.0,0.0,0.0,0.0,0.0,0.0,0.0,0.0,0.1806,0.1588,0.0,0.0,0.0,0.0,0.0,0.0,0.0,0.0,0.0,0.5302,0.6592,0.7827,0.8977,1.0063,1.1142,1.2214,1.3363,1.4138,1.4556,1.5096,1.5406,1.5521,1.5958,1.6205,1.6272,1.6272,1.6662,1.7201,1.6553,1.6134,1.5857,1.5498,1.4794,0.0,1.4693,1.5197,1.5749,1.6939,1.7874,1.848,1.8284,1.8434,1.8822,1.9598,1.9712,1.9658,1.9984,1.9675,1.9232,1.9149,1.9334,1.9378,1.8772,1.8889,1.8648,1.699,1.6825,1.6608,1.5438,1.6013,1.7007,1.8116,1.8954,1.9605,1.9992,2.0716,2.1011,2.0518,2.1139,2.184,2.2388,2.2498,2.2666,2.2988,2.301,2.3031,2.3106,2.309,2.309,2.309,2.309,2.3222,2.3508,2.3567,2.3883,2.4434,2.4534,2.4864,2.5357,2.5686,2.6025,2.6329,2.6617,2.6214,2.5249,2.4039,2.2842,2.1663,2.0501,1.995,1.9741,1.951,1.9051,1.8353,0.0,0.0,0.0,0.0,0.0,0.0,0.0,0.2015,0.2167,0.2469,0.2346,0.2143,0.1934,0.1606,0.1459,0.0,0.0,0.0,0.0,0.0,0.0,0.0,0.0,0.0,0.7893,0.8966,0.9809,1.0412,0.0,1.2323,1.2617,1.3252,1.3695,1.3976,1.4216,1.447,1.4695,1.4695,1.4987,1.5435,1.5211,1.5033,1.4877,1.4787,1.4416,0.0,1.4706,1.5346,1.5897,1.6048,1.703,1.8248,1.8561,1.8824,1.9134,1.9812,1.991,1.9854,2.0053,1.9706,1.9305,1.9305,1.9422,1.9276,1.8255,1.8033,1.7544,1.5736,1.515,1.4693,1.3765,1.4423,1.5375,1.6189,1.7769,1.9064,1.9523,2.01,2.0606,2.0976,2.0997,2.1401,2.2496,2.2607,2.2739,2.3068,2.309,2.309,2.309,2.309,2.309,2.309,2.3274,2.3435,2.3596,2.3948,2.4278,2.4609,2.4778,2.5091,2.5483,2.5056,2.5102,2.5543,2.5068,2.4646,2.4172,2.2967,2.2111,2.15,2.0347,1.9906,1.989,1.9757,1.9209,1.8376,0.0,0.0,0.0,0.0,0.0,0.0,0.0,0.2304,0.2465,0.2894,0.2915,0.2742,0.2368,0.1935,0.1659,0.0,0.0,0.0,0.0,0.0,0.0,0.0,0.0,0.0,0.6926,0.0,0.0,0.921,1.0006,0.0,0.0,0.0,0.0,0.0,1.264,1.2846,1.3286,1.3396,1.3721,0.0,0.0,1.4406,1.4523,0.0,0.0,0.0,0.0,1.5144,1.5668,1.5112,1.5808,1.7091,1.8116,1.8734,1.9164,1.9585,1.9817,1.9931,1.9931,1.9615,1.9305,1.9305,1.9305,1.891,1.7423,1.6892,1.6166,1.4265,1.338,1.2798,1.2236,1.2857,1.3688,1.4388,1.6266,1.7903,1.8635,1.909,1.9729,2.0738,2.0594,2.0934,2.2261,2.2572,2.2819,2.3075,2.309,2.309,2.309,2.309,2.3127,2.3192,2.3464,2.3662,2.3801,2.4346,2.4639,2.4712,2.4733,2.4908,2.5172,2.4069,2.3861,2.4364,2.3411,2.3001,2.2949,2.1999,2.1462,2.1144,2.0259,1.9906,1.9906,1.9906,1.9347,1.849,0.0,0.0,0.0,0.0,0.0,0.0,0.0,0.25,0.2841,0.3369,0.3276,0.3057,0.2775,0.2433,0.208,0.0,0.0,0.0,0.0,0.0,0.0,0.0,0.0,0.0,0.0,0.0,0.0,0.8584,0.9153,0.0,0.0,0.0,0.0,0.0,0.0,1.1866,1.2272,1.2755,0.0,0.0,0.0,0.0,0.0,0.0,0.0,0.0,0.0,1.3554,1.3485,1.4611,1.4702,1.4606,1.6151,1.745,1.84,1.8451,1.89,1.9376,1.9376,1.9337,1.9305,1.9305,1.9305,1.8794,1.6837,1.6232,1.5333,1.2679,1.2175,1.2016,1.1423,1.1347,1.2054,1.4159,1.4367,1.4803,1.6367,1.7333,1.7962,1.814,1.9691,2.0996,2.163,2.2516,2.3076,2.3106,2.309,2.309,2.309,2.309,2.3245,2.3545,2.3581,2.3897,2.449,2.4573,2.4756,2.5042,2.404,2.3821,2.4283,2.3208,2.3016,2.3504,2.3393,2.2757,2.1756,2.1644,2.0999,2.0051,1.9943,1.9906,1.9906,1.9906,1.9347,1.849,0.0,0.0,0.0,0.0,0.0,0.0,0.248,0.2594,0.289,0.3585,0.3537,0.3381,0.3233,0.2853,0.2342,0.1695,0.0,0.0,0.0,0.0,0.0,0.0,0.0,0.0,0.0,0.0,0.7295,0.8018,0.9039,0.0,0.0,0.0,0.0,0.0,0.0,1.1505,1.178,1.2404,0.0,0.0,0.0,0.0,0.0,0.0,0.0,0.0,0.0,0.0,1.3461,1.3311,1.3725,1.4379,1.4813,1.5836,1.7043,1.8021,1.8628,1.9036,1.9246,1.9305,1.9305,1.9305,1.8782,1.7933,1.6604,1.5299,1.3851,1.1986,1.0972,1.0387,1.0311,1.0044,1.0378,1.2061,1.3066,1.3939,1.4849,1.5924,1.6972,1.7923,1.8495,1.9313,2.0574,2.1616,2.2456,2.3043,2.309,2.309,2.309,2.309,2.3244,2.3581,2.3802,2.4124,2.4602,2.48,2.4617,2.4071,2.3628,2.3333,2.3205,2.2049,2.1819,2.2279,2.1593,2.1018,2.0573,2.0573,2.0315,1.9906,1.9906,1.9906,1.9906,1.9906,1.9045,1.7897,0.0,0.0,0.0,0.0,0.0,0.2232,0.2611,0.2662,0.292,0.3647,0.3622,0.3526,0.3476,0.2977,0.2421,0.1858,0.168,0.0,0.0,0.0,0.0,0.0,0.0,0.0,0.0,0.0,0.7034,0.7611,0.8915,0.9749,0.0,0.0,1.0896,1.0963,0.0,0.0,0.0,0.0,0.0,0.0,0.0,0.0,0.0,0.0,0.0,0.0,0.0,0.0,0.0,0.0,0.0,1.3903,1.3863,1.4662,1.5936,1.765,1.8321,1.8613,1.9159,1.9305,1.9305,1.9305,1.8437,1.728,1.6072,1.4356,1.2574,1.094,0.9712,0.8994,0.9163,0.8932,0.9097,1.0322,1.1655,1.2836,1.361,1.4624,1.5804,1.7262,1.7526,1.8095,1.9417,2.0796,2.1891,2.259,2.2941,2.309,2.309,2.309,2.3303,2.3727,2.4073,2.4419,2.4741,2.4648,2.4197,2.3389,2.275,2.2307,2.2031,2.0849,2.0581,2.105,2.0259,1.9906,1.9906,1.9906,1.9906,1.9906,1.9906,1.973,1.9523,1.9523,1.8471,1.7136,0.0,0.0,0.0,0.0,0.0,0.0,0.2549,0.2716,0.2994,0.3529,0.3484,0.3401,0.3399,0.2748,0.23,0.2292,0.1866,0.0,0.0,0.0,0.0,0.0,0.0,0.0,0.0,0.0,0.673,0.7403,0.8612,0.955,1.0203,1.0271,1.0587,1.1059,0.0,0.0,0.0,0.0,0.0,0.0,0.0,0.0,0.0,0.0,0.0,0.0,0.0,0.0,0.0,0.0,0.0,0.0,0.0,1.4146,1.5287,1.7248,1.7811,1.8023,1.9028,1.9305,1.9305,1.9305,1.8437,1.7084,1.5066,1.3469,1.1712,0.9232,0.8404,0.8094,0.8033,0.8016,0.8359,0.9439,1.0016,1.0905,1.2572,1.3393,1.4266,1.5486,1.6905,1.7907,1.8189,2.0262,2.1592,2.1607,2.2543,2.309,2.309,2.309,2.3406,2.4073,2.4426,2.4756,2.5086,2.3986,2.3406,2.3372,2.1178,2.038,2.0777,1.9635,1.9402,1.9919,1.9906,1.9906,1.9906,1.9906,1.9906,1.9906,1.9906,1.9366,1.8604,1.8604,1.7593,1.6205,0.0,0.0,0.0,0.0,0.0,0.0,0.0,0.2448,0.2553,0.2994,0.2939,0.2925,0.311,0.2592,0.2252,0.2294,0.1868,0.0,0.0,0.0,0.0,0.0,0.0,0.0,0.0,0.0,0.6609,0.7742,0.8768,0.9797,1.0806,1.0652,1.0744,1.1008,1.0483,1.0237,0.0,0.0,0.0,0.0,0.0,0.0,1.1061,0.0,0.0,0.0,0.0,0.0,0.0,0.0,0.0,0.0,0.0,0.0,0.0,1.5453,1.6593,1.7529,1.7848,1.8096,1.8115,1.7414,1.6189,1.48,1.3519,1.1637,0.9872,0.8898,0.8162,0.7722,0.7847,0.7935,0.8273,0.9118,0.9878,1.0593,1.1207,1.2657,1.3862,1.4435,1.6137,1.7568,1.8333,1.9063,2.0068,2.1497,2.1891,2.2371,2.3059,2.3318,2.364,2.4088,2.4197,2.4536,2.5086,2.3969,2.3007,2.2216,2.091,2.0064,1.9635,1.9458,1.9577,1.9906,1.9906,1.9906,1.9906,1.9906,1.9906,1.9906,1.9906,1.9366,1.8604,1.8604,1.7574,1.6281,0.0,0.0,0.0,0.0,0.0,0.0,0.0,0.2407,0.2395,0.2717,0.2579,0.2559,0.2858,0.2362,0.2087,0.2282,0.1868,0.0,0.0,0.0,0.0,0.0,0.0,0.0,0.0,0.5328,0.6522,0.7788,0.9053,1.0106,1.0922,1.1151,1.101,1.0538,1.0289,0.9975,0.0,0.0,0.0,0.0,0.0,0.0,1.0533,0.0,0.0,0.0,0.0,0.0,0.0,0.0,0.0,0.0,0.0,0.0,0.0,0.0,1.4644,1.5643,1.6348,1.6577,1.6447,1.5816,1.4506,1.3124,1.2201,1.0492,0.8962,0.8466,0.7908,0.756,0.7767,0.7908,0.8172,0.871,0.9507,1.0204,1.062,1.2232,1.3751,1.4752,1.6063,1.7161,1.7872,1.8279,1.9208,2.0906,2.1387,2.2048,2.3043,2.3303,2.3618,2.408,2.4219,2.4336,2.4469,2.3324,2.2205,2.1079,2.011,1.9446,1.91,1.9263,1.9542,1.9906,1.9906,1.9906,0.0,1.9906,1.9906,1.9906,1.9906,1.9366,1.8566,1.8262,1.7326,1.6224,0.0,0.0,0.0,0.0,0.0,0.0,0.0,0.255,0.2471,0.265,0.239,0.2307,0.26,0.2069,0.1846,0.2216,0.0,0.0,0.0,0.0,0.0,0.0,0.0,0.0,0.0,0.5058,0.6398,0.7604,0.934,1.0354,1.0698,1.1683,1.1327,0.9869,0.9796,0.9543,0.0,0.0,0.0,0.0,1.0247,1.0089,0.0,0.0,0.0,0.0,0.0,0.0,0.0,0.0,0.0,0.0,0.0,0.0,0.0,0.0,0.0,0.0,0.0,1.4662,1.4414,1.4318,1.3215,1.1907,1.1046,0.9886,0.0,0.797,0.7643,0.756,0.777,0.7916,0.8075,0.8323,0.9015,0.9818,1.0653,1.2098,1.3853,1.597,1.6517,1.6786,1.6985,1.7835,1.884,1.9915,2.0843,2.1853,2.2941,2.2981,2.3295,2.3959,2.428,2.4109,2.34,2.2267,2.1159,2.0086,1.8952,1.8667,1.9095,1.9111,1.94,1.9906,1.9906,1.9906,1.9906,1.9906,1.9906,1.9906,1.9906,1.9328,1.8428,1.7688,1.685,1.6014,0.0,0.0,0.0,0.0,0.0,0.0,0.0,0.0,0.0,0.0,0.2238,0.2076,0.1948,0.1747,0.1661,0.0,0.0,0.0,0.0,0.0,0.0,0.0,0.0,0.0,0.0,0.4534,0.5789,0.7604,0.8642,0.994,1.1447,1.1486,1.1173,1.0533,0.9757,0.9251,0.0,0.0,0.0,0.0,0.9944,0.9844,0.0,0.0,0.0,0.0,1.0389,1.077,0.0,0.0,0.0,0.0,0.0,0.0,0.0,0.0,1.1009,1.1014,1.0831,0.0,1.2538,1.1617,1.0963,1.0314,0.0,0.8654,0.8053,0.7846,0.7643,0.7597,0.7894,0.7973,0.8196,0.8812,0.9411,0.9966,1.0425,1.2424,1.4266,1.5396,1.6366,1.6942,1.6996,1.7211,1.7786,1.8792,1.9096,2.0036,2.1853,2.1954,2.2216,2.2771,2.2877,2.3059,2.34,2.2267,2.1159,2.0086,1.9153,1.8841,1.91,1.9319,1.9593,1.9906,1.9906,1.9906,1.9906,1.9906,1.9906,1.9906,1.9906,1.8988,1.765,1.7478,1.6506,1.5252,0.0,0.0,0.0,0.0,0.0,0.0,0.0,0.0,0.0,0.0,0.0,0.0,0.0,0.0,0.0,0.0,0.0,0.0,0.0,0.0,0.0,0.0,0.0,0.0,0.3431,0.4084,0.5451,0.7553,0.8241,0.9533,1.1381,1.1396,1.1003,1.025,0.9217,0.8565,0.0,0.0,0.0,0.0,0.9288,0.0,0.0,0.0,0.0,0.0,0.9601,0.9795,0.0,1.0491,1.0468,1.024,0.0,0.0,0.0,0.0,0.9595,0.9364,0.8927,0.9742,1.0573,0.9922,0.9488,0.9074,0.8511,0.8078,0.7775,0.768,0.7572,0.7589,0.7855,0.8162,0.85,0.8894,0.9616,1.0444,1.1335,1.285,1.4297,1.5437,1.6199,1.6734,1.6985,1.7001,1.7421,1.8423,1.8504,1.9208,2.0827,2.1,2.1255,2.1704,2.1833,2.1888,2.1895,2.1269,2.041,1.9314,1.8839,1.8792,1.91,1.9242,1.9526,1.9906,1.9906,1.9906,1.9906,1.9906,1.9906,1.9868,1.9461,1.8755,1.7859,1.7117,1.6301,1.5501,0.0,0.0,0.0,0.0,0.0,0.0,0.0,0.0,0.0,0.0,0.0,0.0,0.0,0.0,0.0,0.0,0.0,0.0,0.0,0.0,0.0,0.0,0.0,0.0,0.2911,0.3763,0.5248,0.7398,0.8075,0.9301,1.1014,1.1352,1.0831,0.9539,0.8554,0.7879,0.0,0.0,0.0,0.8889,0.86,0.0,0.0,0.0,0.0,0.0,0.0,0.0,0.0,0.9157,0.9079,0.8694,0.8831,0.0,0.0,0.0,0.0,0.0,0.8081,0.8498,0.8912,0.8795,0.8508,0.8191,0.7969,0.7861,0.7755,0.7576,0.7564,0.7674,0.7992,0.8461,0.885,0.9016,0.9859,1.0976,1.2373,1.3125,1.4086,1.5532,1.5984,1.6395,1.6942,1.7001,1.7357,1.8221,1.8263,1.8728,1.9804,2.0061,2.0315,2.0646,2.0902,2.0649,1.9843,2.0017,1.9535,1.8398,1.8398,1.8651,1.9095,1.9095,1.9389,1.9906,1.9906,1.9906,1.9906,1.9906,1.9825,1.9636,1.8888,1.8452,1.8068,1.6697,1.6129,1.5918,0.0,0.0,0.0,0.0,0.0,0.0,0.0,0.0,0.0,0.0,0.0,0.0,0.0,0.0,0.0,0.0,0.0,0.0,0.0,0.0,0.0,0.0,0.0,0.0,0.0,0.3782,0.5088,0.6906,0.8242,0.9612,1.1014,1.1456,1.0719,0.9002,0.8431,0.7893,0.7432,0.0,0.8036,0.8487,0.8436,0.0,0.0,0.0,0.0,0.0,0.0,0.0,0.0,0.8498,0.8514,0.8504,0.837,0.0,0.0,0.0,0.0,0.0,0.7989,0.8329,0.8513,0.789,0.7889,0.7967,0.7648,0.7696,0.7792,0.7763,0.7839,0.8174,0.8997,0.8961,0.9097,1.0012,1.0582,1.1151,1.1841,1.2748,1.3735,1.4766,1.5559,1.6286,1.6942,1.7001,1.7066,1.7211,1.7227,1.7674,1.8696,1.8989,1.9256,1.9545,1.9755,1.9467,1.8673,1.9622,1.9535,1.8398,1.8398,1.8651,1.9095,1.9095,1.9389,1.9906,1.9906,1.9906,1.9906,1.9906,1.9466,1.8793,1.8642,1.7764,1.6549,1.6301,1.5765,1.5175,0.0,0.0,0.0,0.0,0.0,0.0,0.0,0.0,0.0,0.0,0.0,0.0,0.0,0.0,0.0,0.0,0.0,0.0,0.0,0.0,0.0,0.0,0.0,0.0,0.0,0.0,0.555,0.7876,0.8738,0.9995,1.1581,1.1144,1.0206,0.8868,0.8105,0.7492,0.7047,0.7392,0.766,0.7854,0.0,0.0,0.0,0.0,0.0,0.0,0.0,0.0,0.0,0.0,0.7612,0.7686,0.7672,0.0,0.0,0.0,0.0,0.0,0.7718,0.7992,0.8221,0.799,0.8354,0.8734,0.8658,0.8651,0.8641,0.8521,0.8555,0.8766,0.9298,0.9486,0.9913,1.0984,1.1312,1.1623,1.2161,1.2693,1.3508,1.4824,1.531,1.5931,1.6904,1.7001,1.7001,1.7001,1.7001,1.7195,1.7657,1.8043,1.8306,1.8435,1.877,1.8767,1.8398,1.8918,1.8918,1.8398,1.8398,1.8599,1.8937,1.9054,1.9075,1.9043,1.9144,1.8945,1.8547,1.8547,1.8319,1.7916,1.7478,1.685,1.6148,1.5708,1.5328,1.5002,0.0,0.0,0.0,0.0,0.0,0.0,0.0,0.0,0.0,0.0,0.0,0.0,0.0,0.0,0.0,0.0,0.0,0.0,0.0,0.0,0.0,0.0,0.0,0.0,0.0,0.0,0.6273,0.9015,0.9384,1.0383,1.1935,1.093,0.9962,0.9025,0.803,0.7288,0.6816,0.7115,0.72,0.7147,0.0,0.0,0.0,0.0,0.0,0.0,0.0,0.0,0.0,0.0,0.0,0.0,0.0,0.0,0.0,0.7473,0.741,0.7414,0.7571,0.7837,0.8131,0.8421,0.8818,0.9209,0.9494,0.9437,0.9327,0.9295,0.9327,0.9425,0.9665,1.0137,1.0789,1.1664,1.1824,1.2023,1.2527,1.2682,1.3346,1.494,1.5129,1.5624,1.6877,1.7001,1.7001,1.7001,1.7001,1.7028,1.7087,1.7474,1.7727,1.7786,1.8195,1.8398,1.8398,1.8398,1.8398,1.8398,1.8398,1.8539,1.8806,1.8959,1.8762,1.8309,1.8457,1.8099,1.7402,1.7402,1.7288,1.7059,1.6434,1.6071,1.5842,1.5233,1.5002,1.5002,0.0,0.0,0.0,0.0,0.0,0.0,0.0,0.0,0.0,0.0,0.0,0.0,0.0,0.0,0.0,0.0,0.0,0.0,0.0,0.0,0.0,0.0,0.0,0.0,0.0,0.5948,0.7125,0.9637,1.0099,1.0741,1.153,1.1137,1.0448,0.9513,0.8568,0.7746,0.7055,0.6839,0.6607,0.6397,0.6648,0.0,0.0,0.0,0.0,0.0,0.0,0.0,0.0,0.0,0.0,0.0,0.0,0.0,0.7242,0.723,0.7132,0.7171,0.7793,0.8122,0.8404,0.8909,0.8713,0.8566,0.9257,0.9266,0.9262,0.9742,0.9991,1.0215,1.0547,1.1037,1.1484,1.1766,1.1895,1.2126,1.2543,1.2608,1.3184,1.473,1.4922,1.5468,1.6856,1.7001,1.7001,1.7001,1.7001,1.7103,1.7357,1.7588,1.7808,1.8062,1.8292,1.8398,1.8398,1.8398,1.8398,1.8398,1.8398,1.8539,1.8801,1.8817,1.8622,1.8299,1.8319,1.7966,1.7402,1.7402,1.6964,1.6281,1.622,1.5746,1.5079,1.5022,1.5002,1.5002,0.0,0.0,0.0,0.0,0.0,0.0,0.0,0.0,0.0,0.0,0.0,0.0,0.0,0.0,0.0,0.0,0.0,0.0,0.0,0.0,0.0,0.0,0.0,0.5396,0.667,0.6981,0.8297,1.0703,1.1081,1.1431,1.1722,1.0418,0.9603,0.9177,0.7941,0.7402,0.7366,0.6724,0.6565,0.6699,0.6301,0.6003,0.0,0.0,0.0,0.0,0.0,0.0,0.0,0.0,0.5963,0.6416,0.6478,0.6909,0.7387,0.7387,0.7357,0.7395,0.7772,0.8175,0.8533,0.8737,0.8883,0.9204,1.0023,1.0251,1.036,1.0651,1.0773,1.0844,1.0886,1.1395,1.1802,1.1799,1.2121,1.2426,1.2576,1.2661,1.3115,1.4149,1.4653,1.529,1.6277,1.6764,1.7001,1.7001,1.7001,1.7114,1.7395,1.7593,1.7819,1.8083,1.8297,1.8398,1.8398,1.8398,1.8398,1.8398,1.8398,1.8446,1.8556,1.8719,1.8174,1.7129,1.7437,1.6866,1.5739,1.5851,1.5727,1.5444,1.5444,1.5271,1.5002,1.5002,1.5002,1.5002,0.0,0.0,0.0,0.0,0.0,0.0,0.0,0.0,0.0,0.0,0.0,0.0,0.0,0.0,0.0,0.0,0.0,0.0,0.0,0.0,0.0,0.0,0.0,0.5913,0.7225,0.7819,0.9062,1.0982,1.1427,1.1452,1.1044,0.9698,0.9048,0.8939,0.7617,0.0,0.76,0.6714,0.6469,0.6637,0.6036,0.574,0.0,0.0,0.0,0.0,0.0,0.0,0.0,0.0,0.5825,0.627,0.6408,0.6866,0.7366,0.7467,0.7571,0.7701,0.7908,0.8271,0.8654,0.8867,0.9197,0.9702,1.0588,1.0803,1.0915,1.1313,1.1287,1.1242,1.1385,1.165,1.1883,1.2023,1.236,1.2617,1.2657,1.2739,1.3145,1.4092,1.4621,1.5274,1.6213,1.6731,1.7001,1.7001,1.7001,1.7147,1.7486,1.7636,1.7851,1.8174,1.8108,1.8153,1.8398,1.7942,1.7819,1.8047,1.8047,1.817,1.8404,1.8582,1.7834,1.6418,1.6742,1.6051,1.4716,1.4853,1.4934,1.5002,1.5002,1.5002,1.5002,1.5002,1.5002,1.5002,0.0,0.0,0.0,0.0,0.0,0.0,0.0,0.0,0.0,0.0,0.0,0.0,0.0,0.0,0.0,0.0,0.0,0.0,0.3485,0.4004,0.4446,0.0,0.0,0.6826,0.7757,0.8442,0.9282,1.029,1.0961,1.0603,0.9283,0.9083,0.899,0.0,0.0,0.0,0.7737,0.6799,0.6248,0.5994,0.5853,0.5601,0.5301,0.0,0.0,0.0,0.0,0.0,0.0,0.0,0.5896,0.6025,0.6764,0.6997,0.707,0.7397,0.7732,0.8038,0.8242,0.8448,0.8765,0.9421,0.9603,0.9863,1.0793,1.0696,1.0669,1.1608,1.1488,1.1437,1.2155,1.187,1.1755,1.2478,1.2596,1.2645,1.2779,1.2803,1.3313,1.4702,1.4882,1.5448,1.6839,1.6985,1.7001,1.7001,1.7001,1.7195,1.7679,1.77,1.7904,1.8365,1.7678,1.7643,1.8363,1.6921,1.6572,1.7291,1.7291,1.7678,1.8381,1.8398,1.7668,1.6399,1.6404,1.5742,1.4708,1.4708,1.481,1.5002,1.5002,1.5002,1.5002,1.5002,1.5002,1.5002,0.0,0.0,0.0,0.0,0.0,0.0,0.0,0.0,0.0,0.0,0.0,0.0,0.0,0.0,0.0,0.0,0.0,0.0,0.3368,0.395,0.4238,0.4105,0.5354,0.6069,0.6112,0.7047,0.8238,0.9668,0.9867,0.9568,0.8802,0.8355,0.0,0.8135,0.0,0.0,0.0,0.6863,0.6605,0.6655,0.6095,0.5725,0.5514,0.0,0.0,0.0,0.0,0.0,0.0,0.0,0.0,0.0,0.6322,0.6763,0.7154,0.7264,0.7464,0.766,0.7717,0.8327,0.8958,0.9028,0.9823,1.0657,1.0935,1.098,1.1143,1.1806,1.185,1.1823,1.2057,1.2186,1.2296,1.2385,1.2592,1.2759,1.2795,1.2803,1.2951,1.3375,1.4293,1.5062,1.5481,1.6423,1.7001,1.7001,1.7001,1.7195,1.7679,1.77,1.7682,1.7627,1.7414,1.7168,1.685,1.6413,1.6307,1.6537,1.6537,1.6903,1.7643,1.8153,1.7626,1.626,1.6361,1.5662,1.4515,1.4785,1.4958,1.5002,1.5002,1.5002,1.5002,1.5002,1.5002,1.5002,0.0,0.0,0.0,0.0,0.0,0.0,0.0,0.0,0.32,0.32,0.3305,0.3382,0.0,0.0,0.0,0.3442,0.3527,0.0,0.3539,0.3962,0.4282,0.4428,0.5328,0.5887,0.6033,0.6926,0.7704,0.8331,0.854,0.8439,0.8043,0.0,0.0,0.7995,0.0,0.7992,0.0,0.7217,0.6924,0.6838,0.6309,0.5949,0.5722,0.0,0.0,0.0,0.0,0.0,0.0,0.0,0.0,0.0,0.577,0.6213,0.6746,0.7064,0.7535,0.8028,0.8452,0.9087,0.966,0.9827,1.0445,1.1074,1.134,1.1415,1.1577,1.2029,1.2013,1.2,1.2264,1.241,1.2475,1.2495,1.2665,1.2803,1.2803,1.2803,1.2918,1.3194,1.3994,1.4719,1.5274,1.6099,1.6715,1.6974,1.7098,1.7319,1.7684,1.7797,1.768,1.7316,1.7026,1.6661,1.6201,1.5594,1.543,1.5713,1.5713,1.5961,1.6417,1.718,1.6863,1.5723,1.5583,1.5106,1.4419,1.4745,1.4922,1.5002,1.5002,1.5002,1.5002,1.5002,1.5002,1.5002,0.0,0.0,0.0,0.0,0.0,0.0,0.0,0.3319,0.32,0.32,0.32,0.3321,0.0,0.0,0.0,0.3757,0.3586,0.3578,0.3849,0.4019,0.4478,0.5305,0.5609,0.6153,0.698,0.7546,0.7452,0.6669,0.723,0.7378,0.0,0.0,0.8117,0.8282,0.0,0.846,0.0,0.7632,0.7121,0.6652,0.6465,0.6193,0.5903,0.5875,0.0,0.0,0.0,0.0,0.0,0.0,0.0,0.0,0.5207,0.5476,0.5959,0.6768,0.7702,0.8697,0.9746,1.0197,1.0547,1.1256,1.1259,1.1251,1.1851,1.1922,1.1938,1.2259,1.2073,1.2064,1.2698,1.2556,1.2447,1.275,1.2803,1.2803,1.2803,1.2803,1.3046,1.3715,1.3858,1.4436,1.5779,1.5958,1.6277,1.6958,1.7254,1.7497,1.769,1.7959,1.7815,1.7215,1.655,1.6125,1.5988,1.4595,1.4234,1.4906,1.4906,1.4906,1.4924,1.5802,1.5767,1.4968,1.4438,1.4274,1.443,1.4612,1.4829,1.5002,1.5002,1.5002,1.5002,1.5002,1.5002,1.5002,0.0,0.0,0.0,0.0,0.0,0.0,0.3311,0.3229,0.32,0.32,0.32,0.3289,0.3517,0.3584,0.0,0.3643,0.3833,0.3844,0.36,0.3957,0.4384,0.483,0.5749,0.6484,0.6988,0.6731,0.6547,0.6465,0.716,0.7267,0.0,0.0,0.0,0.8079,0.0,0.8252,0.0,0.6932,0.657,0.6448,0.6298,0.6102,0.5879,0.5726,0.545,0.0,0.0,0.0,0.0,0.0,0.0,0.0,0.5089,0.5128,0.5193,0.6003,0.6841,0.768,0.8493,0.9466,1.034,1.0771,1.1323,1.1826,1.1965,1.2098,1.2267,1.2499,1.2482,1.2499,1.275,1.2742,1.2714,1.2791,1.2803,1.2803,1.2803,1.2803,1.2869,1.3017,1.3551,1.4223,1.5062,1.5665,1.6277,1.6958,1.7254,1.7497,1.769,1.7959,1.759,1.6474,1.6289,1.5612,1.4417,1.4078,1.3971,1.4132,1.4132,1.4132,1.4185,1.5576,1.5767,1.4968,1.4438,1.4274,1.443,1.4612,1.4829,1.5002,1.5002,1.5002,1.5002,1.5002,1.5002,1.5002,0.0,0.0,0.0,0.0,0.0,0.0,0.0,0.0,0.3418,0.335,0.3346,0.3411,0.3576,0.3544,0.0,0.0,0.373,0.375,0.3606,0.3854,0.4285,0.4909,0.5966,0.6477,0.6331,0.6217,0.603,0.5778,0.642,0.6726,0.0,0.0,0.0,0.8014,0.0,0.8047,0.0,0.7049,0.6724,0.6408,0.6535,0.6306,0.5883,0.5783,0.542,0.4956,0.4956,0.0,0.0,0.0,0.0,0.0,0.0,0.0,0.4543,0.5186,0.6149,0.7266,0.8416,0.9563,1.0573,1.1092,1.1565,1.1955,1.211,1.2219,1.2381,1.2641,1.2641,1.2637,1.2787,1.2803,1.2803,1.2803,1.2803,1.2803,1.2803,1.2803,1.2803,1.2803,1.3145,1.3781,1.48,1.4959,1.5557,1.691,1.7043,1.7242,1.7678,1.8045,1.7612,1.6249,1.6201,1.5452,1.3918,1.39,1.39,1.39,1.39,1.39,1.3936,1.4737,1.4861,1.4452,1.4181,1.4148,1.4322,1.4482,1.4661,1.4869,1.4951,1.5002,1.5002,1.5002,1.5002,1.5002,0.0,0.0,0.0,0.0,0.0,0.0,0.0,0.0,0.0,0.3545,0.3533,0.3577,0.3685,0.3503,0.343,0.0,0.0,0.0,0.3695,0.3893,0.4365,0.5164,0.6109,0.6319,0.5699,0.5938,0.578,0.5187,0.5627,0.6144,0.0,0.0,0.0,0.801,0.0,0.0,0.0,0.0,0.0,0.6392,0.6685,0.642,0.0,0.0,0.0,0.4844,0.4816,0.4824,0.4873,0.5044,0.0,0.0,0.0,0.0,0.3862,0.4404,0.5474,0.6814,0.8304,0.9613,1.0755,1.1593,1.1706,1.1711,1.2143,1.2166,1.2227,1.2665,1.2694,1.2674,1.2775,1.2803,1.2803,1.2803,1.2803,1.2803,1.2803,1.2803,1.2803,1.2803,1.2918,1.3457,1.4604,1.4452,1.4987,1.6699,1.6855,1.7115,1.7667,1.8019,1.759,1.6236,1.6072,1.5323,1.39,1.39,1.39,1.39,1.39,1.39,1.39,1.39,1.39,1.39,1.39,1.4006,1.4207,1.4312,1.4495,1.4724,1.4886,1.4978,1.5002,1.5002,1.5002,1.5002,0.0,0.0,0.0,0.0,0.0,0.0,0.0,0.0,0.0,0.0,0.3674,0.3682,0.3698,0.3668,0.3635,0.3602,0.3697,0.3744,0.3703,0.0,0.0,0.5186,0.5886,0.6196,0.6036,0.5966,0.5795,0.5536,0.5605,0.6006,0.0,0.0,0.0,0.7998,0.0,0.0,0.0,0.0,0.0,0.0,0.0,0.0,0.0,0.0,0.0,0.5036,0.4861,0.4916,0.5067,0.5091,0.4593,0.0,0.0,0.0,0.295,0.3764,0.4594,0.5465,0.6495,0.831,1.0214,1.1489,1.1283,1.0978,1.1836,1.164,1.1524,1.2443,1.2706,1.2775,1.2799,1.2803,1.2803,1.2803,1.2803,1.2803,1.2803,1.2803,1.2803,1.2803,1.3358,1.383,1.4027,1.5057,1.5823,1.612,1.7021,1.7605,1.77,1.7529,1.7062,1.6236,1.5514,1.475,1.39,1.39,1.39,1.39,1.39,1.39,1.39,1.39,1.39,1.39,1.39,1.4006,1.4198,1.4223,1.4408,1.4693,1.4732,1.4853,1.5002,1.5002,1.5002,1.5002,0.0,0.0,0.0,0.0,0.0,0.0,0.0,0.0,0.0,0.0,0.0,0.3869,0.3869,0.3767,0.3628,0.3449,0.352,0.3519,0.3372,0.3968,0.4403,0.4579,0.5078,0.5312,0.5207,0.518,0.5125,0.5039,0.5226,0.579,0.0,0.7147,0.7547,0.0,0.0,0.0,0.0,0.0,0.0,0.0,0.0,0.0,0.0,0.0,0.0,0.5484,0.4978,0.4857,0.4948,0.506,0.4541,0.386,0.3967,0.0,0.0,0.0,0.3771,0.4912,0.7096,0.8719,0.9987,1.0767,1.0693,1.0429,1.0378,1.0666,1.1095,1.1657,1.2315,1.2803,1.2803,1.2803,1.2803,1.2803,1.2803,1.2803,1.2803,1.2803,1.2803,1.2803,1.3095,1.3453,1.3858,1.4464,1.5203,1.6108,1.6772,1.7167,1.7258,1.7288,1.6757,1.5567,1.5172,1.464,1.39,1.39,1.39,1.39,1.39,1.39,1.39,1.39,1.39,1.39,1.39,1.3949,1.403,1.4154,1.4288,1.4438,1.4499,1.458,1.468,1.4785,1.4822,1.4853,0.0,0.0,0.0,0.0,0.0,0.0,0.0,0.0,0.0,0.0,0.0,0.4054,0.4005,0.0,0.0,0.0,0.3423,0.3416,0.3216,0.3643,0.3935,0.4018,0.4427,0.4575,0.4428,0.4539,0.46,0.46,0.0,0.0,0.6827,0.7032,0.7441,0.0,0.7492,0.7134,0.0,0.0,0.0,0.0,0.0,0.0,0.0,0.6169,0.6213,0.6331,0.5499,0.5242,0.5274,0.5182,0.4649,0.4027,0.4042,0.344,0.0,0.0,0.0,0.4303,0.7098,0.8288,0.8967,0.9932,0.9812,0.9448,0.9411,0.9909,1.0477,1.0898,1.1925,1.2751,1.2751,1.2771,1.2803,1.2803,1.2803,1.2803,1.2803,1.2803,1.2803,1.2803,1.2964,1.3227,1.3584,1.3945,1.4601,1.5663,1.6342,1.6686,1.6617,1.6867,1.6404,1.5044,1.4817,1.4466,1.39,1.39,1.39,1.39,1.39,1.39,1.39,1.39,1.39,1.39,1.39,1.39,1.3912,1.4068,1.4154,1.4211,1.4318,1.4373,1.4411,1.4568,1.462,1.4645,0.0,0.0,0.0,0.0,0.0,0.0,0.0,0.0,0.0,0.0,0.0,0.421,0.4022,0.3993,0.3802,0.3342,0.3593,0.3693,0.3494,0.392,0.4068,0.3828,0.4264,0.0,0.422,0.4469,0.46,0.46,0.0,0.0,0.7181,0.7384,0.7857,0.8528,0.7804,0.7479,0.7414,0.0,0.6383,0.642,0.693,0.6947,0.6787,0.777,0.804,0.7754,0.6695,0.644,0.6469,0.5584,0.5007,0.4601,0.4288,0.3676,0.2988,0.0,0.0,0.0,0.5074,0.5694,0.6466,0.9156,0.8486,0.7708,0.9776,0.9698,0.9461,1.0429,1.1679,1.2613,1.2613,1.2702,1.2803,1.2803,1.2803,1.2803,1.2803,1.2803,1.2803,1.2803,1.342,1.3584,1.2918,1.4064,1.4671,1.4256,1.5752,1.6443,1.5895,1.6113,1.5873,1.503,1.4324,1.3936,1.39,1.39,1.39,1.39,1.39,1.39,1.39,1.39,1.39,1.39,1.39,1.39,1.39,1.3912,1.4036,1.4198,1.4207,1.429,1.4395,1.4403,1.443,1.4435,0.0,0.0,0.0,0.0,0.0,0.0,0.0,0.0,0.0,0.0,0.0,0.0,0.0,0.4272,0.4114,0.3599,0.3427,0.332,0.325,0.3478,0.0,0.348,0.3766,0.3911,0.3878,0.4062,0.426,0.0,0.0,0.5634,0.6695,0.6891,0.7381,0.8069,0.7537,0.7378,0.7442,0.6485,0.6201,0.644,0.6888,0.7254,0.7565,0.7866,0.8201,0.8411,0.7591,0.7043,0.6648,0.6315,0.5674,0.4904,0.4225,0.3677,0.3171,0.2524,0.256,0.3145,0.4715,0.5365,0.5913,0.723,0.7209,0.6927,0.7168,0.8201,0.92,0.9557,1.1216,1.2596,1.2596,1.2714,1.2803,1.2803,1.2803,1.2803,1.2803,1.2803,1.2803,1.2803,1.3034,1.3095,1.2836,1.3682,1.4227,1.4177,1.5268,1.5696,1.5193,1.5335,1.5088,1.4324,1.4043,1.39,1.39,1.39,1.39,1.39,1.39,1.39,1.39,1.39,1.39,1.39,1.39,1.39,1.39,1.39,1.3941,1.4002,1.4002,1.4038,1.4085,1.4225,1.427,1.4294,0.0,0.0,0.0,0.4943,0.0,0.4261,0.4151,0.4117,0.4147,0.0,0.0,0.0,0.0,0.0,0.4419,0.3973,0.3565,0.3324,0.3302,0.3384,0.3435,0.3434,0.3601,0.3724,0.3766,0.3897,0.0,0.0,0.0,0.0,0.0,0.6583,0.7096,0.7775,0.7196,0.7178,0.7545,0.6649,0.64,0.6664,0.7332,0.7693,0.7894,0.8457,0.8811,0.8922,0.8339,0.7823,0.7391,0.7273,0.6791,0.6056,0.5005,0.4023,0.314,0.2519,0.2521,0.2959,0.3984,0.4525,0.5005,0.591,0.6047,0.5977,0.6022,0.7266,0.8508,0.8918,1.0554,1.2012,1.2338,1.2536,1.2665,1.2783,1.2803,1.2803,1.2803,1.2803,1.2803,1.2803,1.2803,1.2803,1.2803,1.3243,1.3642,1.3916,1.4695,1.4969,1.4521,1.4823,1.4657,1.3918,1.39,1.39,1.39,1.39,1.39,1.39,1.39,1.39,1.39,1.39,1.39,1.39,1.39,1.39,1.39,1.39,1.39,1.39,1.39,1.39,1.3916,1.4056,1.4101,1.4129,0.0,0.6389,0.6108,0.5846,0.5194,0.4637,0.4442,0.4357,0.4316,0.0,0.0,0.0,0.0,0.0,0.0,0.4445,0.4055,0.3789,0.3721,0.3707,0.3706,0.3705,0.0,0.0,0.0,0.0,0.0,0.0,0.0,0.0,0.0,0.0,0.7055,0.7714,0.6806,0.6907,0.7735,0.7197,0.698,0.7111,0.8296,0.8284,0.775,0.9652,0.9985,0.9376,0.8999,0.8834,0.8772,0.8446,0.8311,0.8025,0.6603,0.4708,0.2934,0.2523,0.25,0.2635,0.0,0.0,0.0,0.5307,0.5005,0.4768,0.6608,0.6996,0.7324,0.854,0.9753,1.0885,1.1823,1.2167,1.2402,1.273,1.2795,1.2799,1.2803,1.2803,1.2803,1.2803,1.2803,1.2803,1.2803,1.2807,1.2974,1.3353,1.4066,1.4302,1.3911,1.4586,1.464,1.3918,1.39,1.39,1.39,1.39,1.39,1.39,1.39,1.39,1.39,1.39,1.39,1.39,1.39,1.39,1.39,1.39,1.39,1.39,1.39,1.39,1.39,1.39,1.39,1.3928,0.704,0.6471,0.5946,0.582,0.5267,0.481,0.4707,0.4675,0.4664,0.0,0.0,0.0,0.0,0.0,0.0,0.4972,0.4571,0.4235,0.4074,0.3924,0.3842,0.3846,0.388,0.3945,0.4042,0.0,0.0,0.0,0.0,0.0,0.0,0.0,0.0,0.6637,0.6469,0.6623,0.6974,0.6428,0.6567,0.7204,0.7819,0.8313,0.8739,0.9522,0.9944,1.0127,1.0164,0.9771,0.9233,0.9235,0.8564,0.739,0.5498,0.4225,0.3296,0.26,0.2563,0.2755,0.2791,0.0,0.0,0.0,0.0,0.0,0.4982,0.5885,0.694,0.8244,0.9478,1.0655,1.1786,1.2167,1.2321,1.2422,1.2556,1.2686,1.2787,1.2803,1.2803,1.2803,1.2803,1.2803,1.2803,1.2933,1.3063,1.3161,1.3606,1.38,1.3692,1.4008,1.4114,1.39,1.39,1.39,1.39,1.39,1.39,1.39,1.39,1.39,1.39,1.39,1.39,1.39,1.39,1.39,1.39,1.39,1.39,1.39,1.39,1.39,1.39,1.39,1.39,1.3908,0.733,0.7081,0.679,0.6441,0.6027,0.5692,0.5566,0.5316,0.5163,0.0,0.0,0.0,0.0,0.0,0.0,0.0,0.5061,0.4696,0.4464,0.4161,0.4011,0.4062,0.407,0.413,0.4264,0.4161,0.0,0.0,0.0,0.0,0.0,0.0,0.0,0.5827,0.5906,0.6148,0.6465,0.6066,0.6371,0.7193,0.8012,0.8461,0.8732,0.9603,0.996,1.0025,1.0427,1.0165,0.9649,0.9961,0.912,0.7719,0.6306,0.5203,0.4244,0.3271,0.3178,0.3313,0.3007,0.3099,0.3326,0.3498,0.0,0.0,0.4525,0.5258,0.6228,0.768,0.8861,0.9963,1.1077,1.173,1.2109,1.2163,1.2341,1.2535,1.2698,1.2722,1.2734,1.2795,1.2803,1.2831,1.2921,1.3035,1.3157,1.3294,1.3488,1.3642,1.371,1.3847,1.39,1.39,1.39,1.39,1.39,1.39,1.39,1.39,1.39,1.39,1.39,1.39,1.39,1.39,1.39,1.39,1.39,1.39,1.39,1.39,1.39,1.39,1.39,1.39,1.39,1.39,0.0,0.7927,0.8075,0.7448,0.7201,0.7012,0.6782,0.625,0.5914,0.0,0.0,0.0,0.0,0.0,0.0,0.0,0.5573,0.516,0.4877,0.4409,0.419,0.4298,0.4311,0.4377,0.4501,0.4268,0.4262,0.0,0.0,0.0,0.0,0.0,0.0,0.5248,0.5268,0.5613,0.6158,0.6041,0.6424,0.7216,0.8464,0.8645,0.8332,0.979,1.001,0.9628,1.024,1.0282,1.008,1.0482,0.9803,0.8679,0.7997,0.6845,0.5507,0.4222,0.3999,0.4023,0.3331,0.3279,0.3448,0.3568,0.3598,0.0,0.4677,0.4878,0.5337,0.6917,0.7927,0.8828,0.9853,1.0781,1.1418,1.1535,1.1839,1.2193,1.2544,1.2613,1.267,1.2787,1.2803,1.2864,1.3051,1.3084,1.3238,1.3552,1.3617,1.3706,1.3892,1.39,1.39,1.39,1.39,1.39,1.39,1.39,1.39,1.39,1.39,1.39,1.39,1.39,1.39,1.39,1.39,1.39,1.39,1.39,1.39,1.39,1.39,1.39,1.39,1.39,1.39,1.39,0.8327,0.8166,0.8101,0.8223,0.8255,0.8127,0.7715,0.763,0.7416,0.6858,0.0,0.0,0.0,0.0,0.0,0.0,0.0,0.5603,0.523,0.4714,0.4385,0.4302,0.4401,0.4474,0.4501,0.4449,0.4449,0.4501,0.4337,0.4287,0.434,0.4488,0.0,0.4905,0.5068,0.5447,0.5984,0.638,0.703,0.7817,0.7984,0.8551,0.934,0.9819,1.0176,1.0482,1.0775,1.0846,1.0711,1.0218,1.0054,0.969,0.7654,0.6878,0.6383,0.4638,0.408,0.3948,0.3531,0.3486,0.3564,0.3589,0.3598,0.0,0.3973,0.4114,0.4593,0.5986,0.6502,0.7067,0.8236,0.8608,0.8757,0.8784,0.9806,1.1083,1.2406,1.269,1.2763,1.2799,1.2803,1.2815,1.2852,1.2994,1.3185,1.3426,1.3689,1.3863,1.39,1.39,1.39,1.39,1.39,1.39,1.39,1.39,1.39,1.39,1.39,1.39,1.39,1.39,1.39,1.39,1.39,1.39,1.39,1.39,1.39,1.39,1.39,1.39,1.39,1.39,1.39,1.39,0.8476,0.8751,0.902,0.8917,0.9172,0.938,0.9353,0.886,0.8388,0.0,0.0,0.0,0.0,0.0,0.0,0.0,0.0,0.0,0.5478,0.5044,0.4682,0.4411,0.4594,0.4688,0.4648,0.4518,0.4512,0.465,0.4348,0.4232,0.4303,0.4436,0.4839,0.5445,0.5275,0.5755,0.6693,0.6595,0.7075,0.7945,0.8486,0.9173,0.9941,1.0383,1.0668,1.0868,1.1047,1.1155,1.1165,1.0634,1.0319,0.995,0.8843,0.7903,0.694,0.5634,0.4939,0.446,0.3827,0.3695,0.3753,0.3753,0.3753,0.0,0.0,0.4079,0.4362,0.5308,0.587,0.6406,0.7084,0.7612,0.7949,0.7949,0.9272,1.0468,1.0945,1.1987,1.2735,1.2795,1.2803,1.284,1.2941,1.3043,1.3186,1.3373,1.362,1.3756,1.3756,1.3855,1.39,1.39,1.39,1.39,1.39,1.39,1.39,1.39,1.39,1.39,1.39,1.39,1.39,1.39,1.39,1.39,1.39,1.39,1.39,1.39,1.39,1.3957,1.4056,1.4056,1.4091,1.415,0.8468,0.9283,0.9892,0.9359,0.9834,1.0317,1.0391,0.9569,0.8923,0.0,0.0,0.0,0.0,0.0,0.0,0.0,0.0,0.0,0.5942,0.5595,0.5242,0.4884,0.4912,0.4977,0.5066,0.4721,0.4601,0.4743,0.4366,0.4233,0.434,0.445,0.5018,0.5931,0.5645,0.6193,0.7315,0.6886,0.7265,0.8236,0.9295,0.9823,1.0072,1.0863,1.1066,1.0984,1.1254,1.1457,1.1541,1.1165,1.0665,1.0181,1.0035,0.9009,0.7674,0.6735,0.599,0.527,0.4321,0.4054,0.4026,0.3975,0.3965,0.402,0.0,0.0,0.0,0.4702,0.5311,0.5809,0.592,0.6592,0.7128,0.7128,0.8508,0.9402,0.8867,1.0649,1.213,1.2422,1.2657,1.2815,1.2885,1.2966,1.3097,1.3333,1.3408,1.3482,1.3584,1.3743,1.3868,1.39,1.39,1.39,1.39,1.39,1.39,1.39,1.39,1.39,1.39,1.39,1.39,1.39,1.39,1.39,1.39,1.39,1.39,1.3904,1.3941,1.4064,1.4202,1.4231,1.4314,1.4395,0.8651,0.9335,0.9751,0.9211,0.9965,1.0256,0.9118,0.9019,0.8846,0.0,0.0,0.0,0.8901,0.9091,0.9196,0.9135,0.8746,0.8076,0.7079,0.6705,0.6416,0.6189,0.5475,0.5378,0.6023,0.5372,0.4862,0.4535,0.4483,0.4463,0.4481,0.4495,0.4819,0.5421,0.6011,0.6469,0.683,0.7523,0.8432,0.9445,0.9929,0.9771,0.936,1.0555,1.0897,1.0844,1.1631,1.192,1.1859,1.1356,1.1234,1.107,0.9661,0.9358,0.9193,0.7509,0.6739,0.6237,0.5291,0.4783,0.4461,0.4223,0.4208,0.42,0.3991,0.0,0.3948,0.401,0.0,0.4255,0.4267,0.0,0.0,0.4353,0.5656,0.665,0.658,0.8513,1.0267,1.1102,1.2146,1.2625,1.2163,1.2454,1.2796,1.3117,1.2986,1.3103,1.3567,1.3629,1.3724,1.3896,1.39,1.39,1.39,1.39,1.39,1.39,1.39,1.39,1.39,1.39,1.39,1.39,1.39,1.39,1.39,1.39,1.39,1.3916,1.4101,1.4178,1.4215,1.4328,1.4397,1.4395,0.842,0.9246,0.9692,0.9043,1.013,1.0931,1.0403,1.0214,0.9839,0.0,0.0,0.8713,0.8806,0.8782,0.8843,0.9039,0.8827,0.836,0.7595,0.7419,0.6975,0.6144,0.5836,0.5679,0.5678,0.5372,0.5093,0.485,0.4729,0.4674,0.4674,0.4792,0.5404,0.6411,0.6727,0.7428,0.8383,0.8364,0.8714,0.934,0.9709,0.962,0.9441,1.0988,1.1537,1.1518,1.2,1.2255,1.2308,1.1948,1.1557,1.1161,1.0869,0.9952,0.8803,0.7849,0.6912,0.5968,0.491,0.4605,0.4531,0.4262,0.4277,0.4282,0.3973,0.3808,0.3761,0.3877,0.0,0.0,0.0,0.0,0.0,0.0,0.5098,0.5945,0.5564,0.7736,0.9572,1.0123,1.1012,1.1656,1.1861,1.2109,1.2446,1.2893,1.267,1.2795,1.3449,1.3552,1.3686,1.3896,1.39,1.39,1.39,1.39,1.39,1.39,1.39,1.39,1.39,1.39,1.39,1.39,1.39,1.39,1.39,1.39,1.39,1.392,1.4125,1.4259,1.4347,1.4507,1.4655,1.4741,0.8067,0.8911,0.9389,0.8752,0.985,1.0852,1.094,1.0584,1.0085,0.9493,0.8968,0.8733,0.8932,0.8953,0.9092,0.9421,0.9425,0.9124,0.8502,0.8267,0.7839,0.7108,0.6501,0.6165,0.6121,0.5741,0.5402,0.51,0.4992,0.4935,0.4939,0.5086,0.5791,0.6944,0.7231,0.8062,0.923,0.8986,0.9161,0.9644,0.9892,1.0104,1.0395,1.1464,1.2005,1.2236,1.239,1.2532,1.2613,1.2324,1.1801,1.132,1.1562,1.0538,0.9154,0.8678,0.7843,0.6779,0.5399,0.5097,0.5015,0.4364,0.4285,0.4293,0.3997,0.3842,0.3798,0.3904,0.3859,0.0,0.0,0.0,0.3812,0.3753,0.0,0.5202,0.4661,0.6684,0.8419,0.8987,0.9951,1.0844,0.0,1.1631,1.1896,1.2536,1.2272,1.2438,1.3267,1.3452,1.3631,1.3809,1.3876,1.39,1.39,1.39,1.39,1.39,1.39,1.39,1.39,1.39,1.39,1.39,1.39,1.39,1.39,1.39,1.3932,1.3993,1.4176,1.4355,1.4503,1.4641,1.4837,1.506,0.7656,0.8278,0.8704,0.8291,0.8858,0.9409,0.9538,0.9115,0.8874,0.9174,0.8968,0.9064,0.9779,1.0319,1.0757,1.1086,1.1305,1.1043,1.0183,0.9449,0.9356,1.0036,0.7703,0.6959,0.8181,0.6869,0.5816,0.51,0.5228,0.5281,0.5281,0.5289,0.563,0.6273,0.7314,0.7994,0.84,0.9222,1.0103,1.0939,1.0951,1.1574,1.2425,1.1771,1.2041,1.2779,1.2783,1.2791,0.0,1.2183,1.1989,0.0,0.0,1.1033,1.1233,1.0381,1.0099,0.963,0.7637,0.6877,0.6236,0.4607,0.4249,0.4244,0.4041,0.4095,0.4143,0.4017,0.4152,0.4217,0.4031,0.3946,0.3838,0.364,0.3756,0.0,0.0,0.48,0.6198,0.7511,0.9171,1.0487,1.1157,1.0936,1.1102,0.0,1.1727,1.1987,1.3047,1.3296,1.3465,1.3613,1.3797,1.39,1.39,1.39,1.39,1.39,1.39,1.39,1.39,1.39,1.39,1.39,1.39,1.39,1.39,1.39,1.4006,1.4207,1.434,1.4519,1.4681,1.4708,1.4837,1.5213,0.7996,0.8541,0.866,0.7369,0.8187,0.9168,0.9571,0.9817,0.9953,0.9935,1.0008,1.0102,1.022,1.0385,1.0685,1.1155,1.1376,1.1283,1.076,1.0162,0.9815,0.9807,0.8213,0.7524,0.7961,0.7024,0.6302,0.5831,0.5608,0.5615,0.5823,0.5603,0.5937,0.6768,0.7572,0.8394,0.9198,0.9766,1.039,1.1008,1.1104,1.1642,1.2393,1.2369,1.254,1.2803,1.2803,1.2803,0.0,1.2593,1.2293,1.2,1.1966,1.1665,1.1165,1.0514,1.0087,0.9557,0.0,0.0,0.6685,0.5811,0.5173,0.4632,0.4112,0.4106,0.4157,0.4023,0.4121,0.419,0.4027,0.394,0.3859,0.3746,0.3771,0.373,0.0,0.4675,0.5951,0.7069,0.8738,0.9892,1.0118,1.0595,0.0,0.0,1.1838,0.0,1.3243,1.3453,1.3615,1.3793,1.3854,1.3961,1.4101,1.3965,1.3965,1.4101,1.3961,1.39,1.39,1.39,1.39,1.39,1.39,1.39,1.39,1.39,1.4028,1.4202,1.4241,1.4444,1.472,1.4857,1.4934,1.5382,0.8765,0.8877,0.8767,0.7863,0.8682,0.9604,0.9994,1.0236,1.0469,1.0704,1.0482,1.04,1.0664,1.0729,1.0952,1.1438,1.1603,1.1537,1.1194,1.074,1.0389,1.0174,0.9128,0.8598,0.8722,0.7837,0.718,0.6772,0.6249,0.61,0.6306,0.5969,0.6237,0.7021,0.7575,0.8459,0.9559,1.0007,1.0627,1.1306,1.1512,1.1922,1.2446,1.2694,1.2726,1.2633,0.0,1.2803,1.2803,1.2803,1.2572,1.2313,1.2527,1.2182,1.1621,1.1205,1.0878,1.0444,0.944,0.8696,0.0,0.6706,0.5948,0.5283,0.4466,0.4391,0.4444,0.4316,0.4331,0.4383,0.4418,0.4212,0.4032,0.4018,0.3916,0.3813,0.0,0.4532,0.5526,0.665,0.8172,0.9255,0.9571,0.9977,1.0681,1.1799,1.1732,1.2158,0.0,1.3529,1.3662,1.3789,1.385,1.3957,1.4097,1.4044,1.4044,1.4097,1.4026,1.3965,1.39,1.39,1.39,1.39,1.39,1.39,1.3904,1.3973,1.4107,1.4274,1.4343,1.4542,1.4806,1.4873,1.5671,1.6993,0.9854,0.9305,0.9125,0.9676,1.0141,1.05,1.0668,1.0393,1.0495,1.1401,1.0544,1.0194,1.1145,1.1368,1.1599,1.1977,1.2021,1.1899,1.1573,1.1226,1.1108,1.1266,1.0404,1.0083,1.0412,0.923,0.8348,0.7841,0.7076,0.6704,0.6717,0.6384,0.6506,0.7025,0.7366,0.8226,0.9441,0.9975,1.0825,1.1848,1.2178,1.2426,1.2604,1.2747,1.2584,1.2337,1.2678,1.2803,1.2803,1.2803,1.2803,1.2775,1.2649,1.2608,1.2576,1.2381,1.2458,1.2266,1.0747,1.0373,0.9836,0.7414,0.6666,0.6246,0.5162,0.5009,0.5049,0.4863,0.4773,0.4832,0.5121,0.4704,0.4333,0.4349,0.4075,0.3931,0.4149,0.4305,0.4876,0.6165,0.7476,0.8593,0.9397,0.9114,0.9712,1.1736,1.1366,1.1733,1.3333,1.3497,1.3577,1.3604,1.3797,1.3904,1.3912,1.4109,1.4113,1.3928,1.4117,1.4109,1.3924,1.3908,1.3904,1.3912,1.3904,1.39,1.3916,1.4121,1.4278,1.443,1.471,1.4981,1.5193,1.4838,1.6869,1.9793,1.0145,1.0588,1.1028,1.078,1.0149,0.9894,1.053,1.1675,1.2276,1.1793,1.261,1.2928,1.2103,1.2041,1.2106,1.2211,1.2369,1.2405,1.2328,1.1852,1.1794,1.2214,1.0984,1.0451,1.084,0.9368,0.8532,0.8393,0.7263,0.683,0.7064,0.673,0.6779,0.7162,0.7548,0.8407,0.9571,1.0015,1.0954,1.219,1.2426,1.2462,1.2406,0.0,1.2584,1.2337,1.2678,1.2803,1.2803,1.2803,1.2803,1.2795,1.2767,1.2751,1.2743,1.2698,1.2637,1.2528,1.2223,1.1437,1.0532,0.9826,0.8981,0.8002,0.0,0.0,0.6277,0.5305,0.5199,0.5195,0.4891,0.474,0.4454,0.3771,0.3415,0.3392,0.3843,0.4151,0.4532,0.507,0.6831,0.7915,0.7686,0.9076,1.0048,1.0197,1.1072,1.2174,1.3485,1.3108,1.3149,1.3797,1.3876,1.3969,1.4125,1.4174,1.4217,1.4276,1.4217,1.4239,1.4267,1.4004,1.3977,1.4117,1.3961,1.39,1.3916,1.4121,1.4278,1.4541,1.5948,1.734,1.8276,1.5824,1.6989,1.9793,1.1033,1.1839,1.251,1.2085,1.1921,1.1826,1.1786,1.2468,1.3051,1.3218,1.4153,1.4505,1.3735,1.4435,1.4525,1.3395,1.3407,1.3143,1.2388,1.2214,1.2181,1.225,1.1598,1.1295,1.1431,1.0268,0.9449,0.9031,0.7941,0.7334,0.7188,0.6765,0.6789,0.7212,0.7536,0.8258,0.9312,1.0241,1.1228,1.2191,1.2478,1.2572,0.0,1.2726,1.2678,1.2532,1.273,1.2803,1.2803,1.2803,1.2803,1.2803,1.2803,1.2803,1.2803,1.2803,1.2747,1.2686,1.271,1.2161,1.1468,1.0951,1.0304,0.9468,0.8234,0.7613,0.7074,0.6359,0.5833,0.5475,0.5371,0.5054,0.4488,0.3551,0.3056,0.2874,0.3155,0.3552,0.4025,0.4588,0.564,0.6413,0.6626,0.8918,1.0128,0.9431,1.0333,1.1531,1.2965,1.2487,1.2703,1.3858,1.3767,1.3812,1.4072,1.3981,1.4053,1.43,1.4298,1.4339,1.4387,1.4148,1.4119,1.4274,1.4014,1.3949,1.4034,1.4217,1.4328,1.4586,1.6487,1.8289,1.9585,1.7768,1.8692,2.0845,1.2143,1.2913,1.359,1.3363,1.4279,1.4775,1.3945,1.349,1.375,1.5147,1.5488,1.5603,1.5615,1.7173,1.7327,1.5107,1.4912,1.4192,1.2493,1.2709,1.2612,1.1965,1.2186,1.2255,1.2038,1.136,1.0551,0.9636,0.8767,0.7951,0.7188,0.6748,0.678,0.7208,0.7456,0.8101,0.9105,1.0638,1.1591,1.2114,1.2483,1.2694,1.2807,1.2827,1.2823,1.2807,1.2827,1.2823,1.2803,1.2803,1.2803,1.2803,1.2803,1.2803,1.2803,1.2803,1.2803,1.2767,1.2661,1.2633,1.2402,1.1463,1.1143,1.0779,0.9702,0.8702,0.7935,0.7799,0.6666,0.5805,0.6142,0.5461,0.4616,0.3925,0.3248,0.2892,0.3152,0.3361,0.3796,0.4616,0.0,0.0,0.0,0.8428,0.9732,0.8995,0.9431,1.0475,1.2209,1.1796,1.2246,1.3858,1.3569,1.3544,1.3863,1.3695,1.38,1.4198,1.4332,1.4438,1.4478,1.4302,1.4306,1.4411,1.4073,1.4048,1.4211,1.4345,1.4553,1.4995,1.6958,1.8702,2.0131,2.0357,2.132,2.2484,1.2747,1.338,1.3995,1.3952,1.4714,1.5608,1.6403,1.6625,1.6664,1.6522,1.7191,1.7432,1.6795,1.7038,1.7076,1.6625,1.6577,1.596,1.4493,1.4461,1.3936,1.2686,1.2584,1.2454,1.2248,1.1425,1.0626,0.9852,0.8973,0.8087,0.7196,0.7273,0.7273,0.7221,0.7702,0.874,1.0191,1.1244,1.1999,1.2503,1.2686,1.2775,1.2819,1.2978,1.2945,1.2823,1.2999,1.2941,1.2803,1.2803,1.2803,1.2803,1.2803,1.2803,1.2803,1.2803,1.2803,1.2799,1.2763,1.2755,1.2722,1.2525,1.2468,1.2175,1.1086,1.0695,1.0299,0.9339,0.7862,0.6651,0.6335,0.5609,0.5268,0.5937,0.5113,0.5092,0.7076,0.5999,0.5092,0.5313,0.0,0.6452,0.0,0.0,0.0,0.0,0.0,1.022,1.2123,1.1466,1.1917,1.3834,1.3519,1.343,0.0,0.0,1.3803,1.4198,1.4332,1.4568,1.4881,1.4533,1.447,1.462,1.4286,1.4166,1.4211,1.4345,1.5388,1.7033,1.8729,2.0357,2.1943,2.3277,2.3939,2.3994,1.4314,1.4696,1.5072,1.5391,1.6046,1.6745,1.7314,1.805,1.8381,1.7943,1.8555,1.8885,1.8495,1.8858,1.8828,1.8101,1.8037,1.7136,1.5038,1.4891,1.4263,1.2869,1.2661,1.2515,1.2296,1.1792,1.0984,0.9897,0.931,0.8444,0.7358,0.7275,0.7225,0.7237,0.816,0.9259,1.0453,1.1395,0.0,1.2621,1.286,1.3027,1.3124,1.3223,1.3202,1.3124,1.3227,1.3185,1.3084,1.2864,1.2803,1.2803,1.2803,1.2803,1.2803,1.2803,1.2803,1.2803,1.2803,1.2803,1.2803,1.2803,1.2803,1.2655,1.2149,1.16,1.0994,1.0264,0.9032,0.7907,0.7296,0.6293,0.0,0.6531,0.555,0.5277,0.6928,0.6566,0.6202,0.6413,0.6259,0.0,0.0,0.0,0.0,0.0,0.0,0.9094,1.1856,1.0439,1.0839,1.366,1.3186,0.0,1.3438,0.0,1.3278,1.4053,1.4114,1.445,1.4994,1.4692,1.4672,1.4822,1.4464,1.4363,1.446,1.4523,1.5686,1.7555,1.917,2.077,2.239,2.4013,2.4599,2.4488,1.5563,1.5736,1.5908,1.6279,1.6933,1.7455,1.7575,1.8718,1.948,1.9203,1.9625,1.9987,2.0067,2.0695,2.0652,1.9537,1.9457,1.854,1.6365,1.5668,1.4735,1.3376,1.2877,1.2576,1.2406,1.2223,1.1496,1.0181,0.9775,0.8919,0.7666,0.7358,0.7377,0.7718,0.8832,0.9851,1.079,0.0,1.2198,1.2792,1.3011,1.3223,1.3393,1.3434,1.3422,1.3393,1.3434,1.3422,1.3345,1.3031,1.2933,1.2933,1.2933,1.2933,1.2933,1.2933,1.2933,1.2933,1.2933,1.2933,1.2933,1.2933,1.2933,1.2921,1.2868,1.218,1.1459,1.1144,1.0078,0.8935,0.8068,0.7281,0.0,0.7253,0.632,0.592,0.6977,0.7136,0.7257,0.7604,0.6081,0.0,0.6241,0.0,0.0,0.0,0.0,0.804,1.0896,0.9382,0.9791,1.2766,1.224,1.2135,1.2589,0.0,1.2719,1.371,1.3838,1.4243,1.4868,1.4807,1.4857,1.4986,1.4627,1.4555,1.4708,1.4708,1.5564,1.7079,1.9043,2.0564,2.1924,2.3883,2.4599,2.4599,1.537,1.555,1.5655,1.5233,1.6064,1.6967,1.7515,1.9045,2.011,2.0084,2.0284,2.0573,2.0933,2.104,2.1046,2.0912,2.0897,2.0786,2.0541,1.8187,1.6258,1.5023,1.3575,1.2771,1.2755,1.2625,1.2064,1.1084,1.0447,0.9466,0.8221,0.8008,0.8368,0.9217,0.9828,0.0,0.0,1.194,1.2503,1.3317,1.3166,1.3223,1.3406,1.3537,1.3514,1.3427,1.3542,1.3493,1.3385,1.3366,1.334,1.334,1.334,1.334,1.334,1.334,1.334,1.334,1.334,1.334,1.334,1.334,1.334,1.3296,1.3108,1.2859,1.2589,1.2375,1.0849,0.9166,0.7865,0.8523,0.9279,0.9328,0.8966,0.9169,1.0597,0.9326,0.8373,0.8709,0.71,0.5921,0.0,0.4011,0.0,0.0,0.753,0.7774,0.8582,0.8768,0.9325,1.0392,1.0123,1.0065,1.0318,1.1573,1.25,1.3083,1.3636,1.4097,1.4476,1.4817,1.499,1.4994,1.4765,1.4673,1.4708,1.4708,1.4905,1.5535,1.8603,1.9887,2.04,2.3469,2.4599,2.4599,1.7375,1.7389,1.7355,1.7147,1.7481,1.7976,1.8592,1.9273,1.9967,2.0653,2.0813,2.092,2.1073,2.1093,2.1093,2.1093,2.1093,2.1209,2.1443,1.9605,1.7588,1.5534,1.471,1.3828,1.2824,1.2674,1.2194,1.1372,1.0676,0.9892,0.9076,0.8917,0.9319,1.0215,0.0,1.1543,1.2207,1.2653,1.3104,1.3509,1.3436,1.3513,1.3715,1.3752,1.3754,1.3719,1.3756,1.3754,1.3706,1.3706,1.3564,1.3406,1.3406,1.3406,1.3406,1.3406,1.3406,1.3406,1.3406,1.3406,1.3406,1.3406,1.3406,1.3386,1.3296,1.3025,1.2713,1.2443,1.1469,1.0483,0.9874,0.9777,0.9957,1.0488,0.9945,0.9877,1.1067,1.0564,1.0095,1.0096,0.8684,0.7609,0.0,0.0,0.0,0.5258,0.4977,0.5839,0.8348,0.7074,0.6966,0.8487,0.9263,0.9695,0.9823,1.1245,1.2243,1.2823,1.3147,1.3532,1.3995,1.4438,1.4761,1.4998,1.491,1.4881,1.4881,1.4881,1.5491,1.6659,1.8924,2.0395,2.1507,2.3766,2.4599,2.4599,1.8437,1.833,1.8444,1.9138,1.9259,1.9413,1.9828,1.9895,2.0316,2.1486,2.1623,2.149,2.1149,2.1093,2.1093,2.1093,2.1323,2.155,2.1764,2.0434,1.8621,1.6374,1.5704,1.463,1.3011,1.2885,1.2544,1.1967,1.1224,1.0628,1.0142,0.9844,1.0189,0.0,1.1694,1.2219,1.2714,1.3198,1.3506,1.3678,1.3612,1.371,1.39,1.39,1.39,1.39,1.39,1.39,1.39,1.39,1.3734,1.3544,1.3544,1.3544,1.3544,1.3544,1.3544,1.3544,1.3544,1.3544,1.3544,1.3544,1.3544,1.3532,1.3465,1.3195,1.281,1.2361,1.1839,1.1423,1.1335,1.0814,1.0563,1.1036,1.06,1.0397,1.0972,1.105,1.0995,1.0796,0.9422,0.8456,0.8402,0.6005,0.0,0.5036,0.4383,0.5114,0.7755,0.5758,0.535,0.7114,0.8215,0.8831,0.8938,1.0848,1.2061,1.2582,1.2797,1.3119,1.3548,1.3995,1.4361,1.4622,1.4757,1.4814,1.4838,1.4949,1.5956,1.7555,1.917,2.077,2.239,2.4013,2.4599,2.4599,1.7769,1.7608,1.8344,2.0653,2.1076,2.1066,2.1089,2.1089,2.151,2.2719,2.2873,2.2415,2.1236,2.1093,2.1093,2.1093,2.1833,2.2201,2.2007,2.068,1.9298,1.7928,1.6416,1.4906,1.3415,1.3398,1.3284,1.3076,1.2345,1.1814,1.1459,1.0725,1.0964,1.1989,1.2199,1.2763,1.3581,1.3445,1.3593,1.3884,1.3678,1.371,1.39,1.39,1.39,1.39,1.39,1.39,1.39,1.39,1.39,1.3896,1.3896,1.3896,1.3896,1.3896,1.3896,1.3896,1.3896,1.3896,1.3896,1.3896,1.3896,1.3834,1.3646,1.3434,1.3089,1.2348,1.1885,1.1598,1.1595,1.1591,1.1428,1.0971,1.1175,1.1226,1.0772,1.0708,1.0653,1.0514,0.8851,0.7901,0.835,0.6815,0.0,0.7925,0.706,0.6393,0.6242,0.5192,0.5157,0.6376,0.6682,0.0,0.7124,1.0248,1.1967,1.2307,1.2714,1.2966,1.3123,1.3528,1.3702,1.374,1.4211,1.4403,1.4442,1.4834,1.5956,1.7555,1.917,2.077,2.239,2.4013,2.4599,2.4599,2.004,1.9987,2.0227,2.096,2.1787,2.2338,2.2338,2.2338,2.2455,2.2847,2.2893,2.2753,2.2378,2.2338,2.2338,2.2338,2.2566,2.2686,2.2619,2.194,2.0992,1.979,1.8171,1.6615,1.514,1.3976,1.3374,1.33,0.0,0.0,0.0,1.2007,1.2279,1.2966,1.312,1.3342,1.3613,1.3709,1.3798,1.3896,1.3825,1.3834,1.39,1.39,1.39,1.39,1.39,1.39,1.39,1.39,1.39,1.39,1.39,1.39,1.39,1.39,1.39,1.39,1.39,1.39,1.39,1.39,1.39,1.3888,1.3813,1.3379,1.2739,1.1943,1.1691,1.1602,1.1602,1.1602,1.1554,1.1394,1.1466,1.148,1.1334,1.1317,1.1259,1.1124,1.0592,1.0195,0.0,0.865,0.0,0.6913,0.5496,0.5468,0.7332,0.6445,0.5606,0.4992,0.7175,0.0,0.7111,1.0359,1.211,1.2291,1.2517,1.2785,1.31,1.3239,1.3432,1.3721,1.4211,1.423,1.3972,1.4699,1.5784,1.7183,1.9057,2.077,2.239,2.4013,2.4599,2.4562,2.1683,2.1787,2.1787,2.1787,2.2405,2.2893,2.2893,2.2893,2.2893,2.2893,2.2893,2.2893,2.2893,2.2893,2.2893,2.2893,2.2893,2.2893,2.2893,2.2666,2.2209,2.1493,1.9916,1.8057,1.596,1.4913,0.0,1.3474,1.3133,1.295,1.2902,1.2902,1.3117,1.3478,1.3561,1.3646,1.371,1.3855,1.39,1.39,1.39,1.39,1.39,1.39,1.39,1.39,1.39,1.39,1.39,1.39,1.39,1.39,1.39,1.39,1.39,1.39,1.39,1.39,1.39,1.39,1.39,1.39,1.39,1.3864,1.3704,1.3218,1.2613,1.1961,1.1709,1.1602,1.1602,1.1602,1.1602,1.1602,1.1602,1.1602,1.1602,1.1602,1.1503,1.1239,1.1209,0.0,0.0,1.0032,0.9144,0.0,0.7314,0.749,0.9265,0.7019,0.5499,0.5142,0.7807,0.8604,0.7233,1.0515,1.2242,1.2372,1.2461,1.2637,1.2868,1.2868,1.3004,1.3278,1.3721,1.3744,1.3528,1.4237,1.532,1.6703,1.7953,1.9801,2.1881,2.2874,2.3636,2.4112,2.2679,2.2893,2.2893,2.2893,2.2893,2.2893,2.2893,2.2893,2.2893,2.2893,2.2893,2.2893,2.2893,2.2893,2.2893,2.2893,0.0,0.0,2.2893,2.2893,2.2893,2.2893,2.1413,1.9173,1.6139,1.6086,1.5291,1.3625,1.3625,1.3558,1.3426,1.3426,1.3498,1.3625,1.3625,1.3714,1.39,1.39,1.39,1.39,1.39,1.39,1.39,1.39,1.39,1.39,1.39,1.39,1.39,1.39,1.39,1.39,1.39,1.39,1.39,1.39,1.39,1.39,1.39,1.39,1.39,1.39,1.39,1.3793,1.3361,1.3021,1.2685,1.2248,1.1853,1.1602,1.1602,1.1602,1.1602,1.1602,1.1602,1.1602,1.1602,1.1602,1.1446,1.0995,0.0,0.0,1.0948,1.0928,1.1072,0.0,1.1412,1.1412,1.1412,0.7103,0.5229,0.65,0.8444,0.8807,0.7413,1.0656,1.2368,1.2501,1.2501,1.2501,1.2501,1.2501,1.2501,1.2521,1.2926,1.3081,1.31,1.3644,1.4783,1.6164,1.6317,1.8204,2.0834,2.0834,2.1843,2.3234,2.284,2.2893,2.2893,2.2893,2.2893,2.2893,2.2893,2.2893,2.2893,2.2893,2.2893,2.2893,2.2893,2.2893,2.2893,2.2893,2.2893,2.2893,2.2893,2.2893,2.2893,2.2893,2.1413,1.9721,1.7846,1.6685,1.5358,1.3825,1.3825,1.3819,1.3774,1.3774,1.3798,1.3825,1.3825,1.3863,1.39,1.39,1.39,1.39,1.39,1.39,1.39,1.39,1.39,1.39,1.39,1.39,1.39,1.39,1.39,1.39,1.39,1.39,1.39,1.39,1.39,1.39,1.39,1.39,1.39,1.39,1.39,1.3722,1.3075,1.286,1.2595,1.1889,1.1673,1.1602,1.1602,1.1602,1.1602,1.1602,1.1602,1.1602,1.1602,1.1602,1.1564,1.1456,1.1425,1.1398,1.1297,1.1287,1.0801,0.0,0.0,0.9533,0.9533,0.858,0.7683,0.6914,0.839,0.8612,0.7411,1.0564,1.2266,1.2501,1.2501,1.2501,1.2501,1.2501,1.2501,1.2521,1.2926,1.2926,1.2811,1.4787,1.5665,1.5886,1.744,1.8498,1.9178,1.9163,2.0185,2.152,2.2893,2.2893,2.2893,2.2893,2.2893,2.2893,2.2893,2.2893,2.2893,2.2893,2.2893,2.2893,2.2893,2.2893,2.2893,2.2893,2.2893,2.2893,2.2893,2.2893,2.2893,2.2893,2.2091,2.0623,1.8455,1.7579,1.6075,1.39,1.39,1.39,1.39,1.39,1.39,1.39,1.39,1.39,1.39,1.39,1.39,1.39,1.39,1.39,1.39,1.39,1.39,1.39,1.39,1.39,1.39,1.39,1.39,1.39,1.39,1.39,1.39,1.39,1.39,1.39,1.39,1.39,1.39,1.39,1.39,1.3704,1.2968,1.2807,1.2578,1.176,1.1602,1.1602,1.1602,1.1602,1.1602,1.1602,1.1602,1.1602,1.1602,1.1602,1.1602,1.1602,1.1602,1.1595,1.1574,1.1574,1.1233,1.0425,1.036,0.0,1.036,0.9771,0.8978,0.7983,0.959,0.9818,0.8462,1.0994,1.2361,1.2501,1.2501,1.2501,1.2501,1.2501,1.2501,1.2501,1.2733,1.2695,1.2652,1.4741,1.5484,1.5461,1.7322,1.8498,1.9146,1.9154,2.0196,2.1556,2.2893,2.2893,2.2893,2.2893,2.2893,2.2893,2.2893,2.2893,2.2893,2.2893,2.2893,2.2893,2.2893,2.2893,2.2893,2.2893,2.2893,2.2893,2.2893,2.2893,2.2893,2.2893,2.2619,2.1183,1.8467,1.7947,1.6476,1.39,1.39,1.39,1.39,1.39,1.39,1.39,1.39,1.39,1.39,1.39,1.39,1.39,1.39,1.39,1.3904,1.3932,1.3945,1.3945,1.3973,1.3981,1.3981,1.3981,1.3965,1.3949,1.3973,1.3945,1.3908,1.3937,1.3945,1.3937,1.3908,1.39,1.39,1.39,1.39,1.3704,1.2968,1.2807,1.2578,1.176,1.1602,1.1602,1.1602,1.1602,1.1585,1.1558,1.1571,1.1585,1.1555,1.1591,1.1632,1.1632,1.1656,1.1717,1.1835,1.1849,1.1921,1.2087,1.2098,1.2098,1.2098,1.0794,0.9911,0.9558,1.0969,1.1201,1.0103,1.1686,1.2501,1.2501,1.2501,1.2501,1.2501,1.2501,1.2501,1.2501,1.2501,1.2501,1.2617,1.4237,1.5055,1.5418,1.6846,1.8384,1.9774,1.9529,2.0481,2.1916,2.2893,2.2893,2.2893,2.2893,2.2893,2.2893,2.2893,2.2893,2.2893,2.2893,2.2893,2.2893,2.2893,2.2893,2.2893,2.2893,2.2893,2.2893,2.2893,2.2893,2.2893,2.2893,2.1275,1.975,1.8432,1.5898,1.4373,1.39,1.39,1.39,1.39,1.39,1.39,1.39,1.39,1.39,1.39,1.39,1.39,1.39,1.39,1.39,1.3916,1.4093,1.4154,1.4174,1.428,1.431,1.431,1.431,1.4253,1.416,1.4288,1.4126,1.3932,1.4105,1.4154,1.4121,1.3945,1.39,1.39,1.39,1.39,1.3704,1.2968,1.2807,1.2578,1.176,1.1602,1.1602,1.1602,1.1602,1.1535,1.1291,1.145,1.1513,1.1288,1.1541,1.1778,1.1778,1.1911,1.204,1.2042,1.2045,1.2074,1.2098,1.2098,1.2098,1.2098,1.1852,1.1707,1.1641,1.0627,1.066,1.1887,1.2301,1.2501,1.2501,1.2501,1.2501,1.2501,1.2501,1.2501,1.2501,1.2501,1.2501,1.2617,1.4237,1.572,1.7036,1.7303,1.8384,1.9642,1.8271,1.8806,2.0193,2.2893,2.2893,2.2893,2.2893,2.2893,2.2893,2.2893,2.2893,2.2893,2.2893,2.2893,2.2893,2.2893,2.2893,2.2893,2.2893,2.2893,2.2893,2.2893,2.2893,2.2893,2.2893,2.0975,1.9036,1.7198,1.5026,1.39,1.39,1.39,1.39,1.39,1.39,1.39,1.39,1.39,1.39,1.39,1.39,1.3957,1.4068,1.4068,1.4103,1.4178,1.4263,1.4314,1.4322,1.4385,1.4395,1.4395,1.4395,1.4361,1.4326,1.4389,1.4282,1.4186,1.4272,1.4268,1.4198,1.4166,1.417,1.4146,1.4075,1.4119,1.3996,1.3362,1.3121,1.286,1.2315,1.2022,1.1875,1.1875,1.1875,1.1828,1.1706,1.1784,1.1828,1.1703,1.1845,1.1955,1.1955,1.2038,1.2132,1.2195,1.2205,1.2235,1.231,1.2317,1.2317,1.2317,1.2317,1.2317,1.2317,1.1532,1.1523,1.2403,1.2467,1.2501,1.2501,1.2501,1.2501,1.2501,1.2501,1.2501,1.2501,1.2501,1.2501,1.2617,1.4237,1.5361,1.6236,1.8005,1.9146,1.9817,1.9986,2.0505,2.115,2.2893,2.2893,2.2893,2.2893,2.2893,2.2893,2.2893,2.2893,2.2893,2.2893,2.2893,2.2893,2.2893,2.2893,2.2893,2.2893,2.2893,2.2893,2.2893,2.2893,2.2893,2.2893,2.0744,1.832,1.5642,1.4484,1.39,1.39,1.39,1.39,1.39,1.3945,1.3965,1.3969,1.4006,1.4026,1.4026,1.4026,1.4107,1.4255,1.4255,1.4314,1.4418,1.4444,1.4478,1.4482,1.4523,1.4535,1.4535,1.4535,1.4511,1.4482,1.4523,1.4478,1.4403,1.4462,1.4404,1.4341,1.4371,1.4395,1.4381,1.427,1.4316,1.4248,1.3643,1.3347,1.3085,1.2642,1.2303,1.2098,1.2098,1.2098,1.2077,1.2006,1.2053,1.2074,1.1987,1.2087,1.2152,1.2152,1.2164,1.2228,1.2347,1.2358,1.2386,1.2491,1.2501,1.2501,1.2501,1.2501,1.2501,1.2501,1.2396,1.2393,1.2501,1.2501,1.2501,1.2501,1.2501,1.2501,1.2501,1.2501,1.2501,1.2501,1.2501,1.2501,1.2598,1.3837,1.456,1.5189,1.81,1.9472,2.0005,2.1686,2.2296,2.2296,2.2893,2.2893,2.2893,2.2893,2.2893,2.2893,2.2893,2.2893,2.2893,2.2893,2.2893,2.2893,2.2893,2.2893,2.2893,2.2893,2.2893,2.2893,2.2893,2.2893,2.2893,2.2893,2.008,1.7105,1.4132,1.3953,1.39,1.39,1.39,1.39,1.3904,1.4097,1.4174,1.4182,1.4304,1.4354,1.4354,1.4354,1.4363,1.4393,1.4393,1.4383,1.4415,1.4604,1.4688,1.4708,1.489,1.4966,1.4966,1.4966,1.4841,1.4716,1.4894,1.47,1.4446,1.462,1.468,1.4616,1.4454,1.4395,1.4391,1.4397,1.4387,1.4187,1.3404,1.3208,1.2996,1.2288,1.212,1.2098,1.2098,1.2098,1.2009,1.1697,1.1902,1.1984,1.1673,1.2013,1.2293,1.2293,1.2389,1.2474,1.2484,1.2484,1.2491,1.2501,1.2501,1.2501,1.2501,1.2501,1.2501,1.2501,1.2491,1.2491,1.2501,1.2501,1.2501,1.2501,1.2501,1.2501,1.2501,1.2501,1.2501,1.2501,1.2501,1.2501,1.2501,1.2637,1.3552,1.5074,1.6884,1.8484,2.0005,2.1686,2.2296,2.2296,2.2893,2.2893,2.2893,2.2893,2.2893,2.2893,2.2893,2.2893,2.2893,2.2893,2.2893,2.2893,2.2893,2.2893,2.2893,2.2893,2.2893,2.2893,2.2893,2.2893,2.2057,2.0196,1.8408,1.6407,1.4143,1.4093,1.4123,1.4211,1.4211,1.4211,1.4215,1.4284,1.4316,1.4339,1.4385,1.4395,1.4395,1.4395,1.4478,1.4584,1.4584,1.4667,1.4769,1.4861,1.4886,1.4894,1.4963,1.5002,1.5002,1.5002,1.4942,1.4898,1.4982,1.489,1.4796,1.4865,1.4886,1.4869,1.4781,1.4761,1.4737,1.4612,1.4684,1.4581,1.3913,1.3635,1.3368,1.2831,1.2526,1.2354,1.2354,1.2354,1.2317,1.2182,1.226,1.2294,1.2182,1.2311,1.242,1.242,1.2467,1.2501,1.2501,1.2501,1.2501,1.2501,1.2501,1.2501,1.2501,1.2501,1.2501,1.2501,1.2501,1.2501,1.2501,1.2501,1.2501,1.2501,1.2501,1.2501,1.2501,1.2501,1.2501,1.2501,1.2501,1.2501,1.2501,1.2501,1.2865,1.3683,1.635,1.7778,1.8635,2.1305,2.2296,2.2296,2.2893,2.2893,2.2893,2.2893,2.2893,2.2893,2.2893,2.2893,2.2893,2.2893,2.2893,2.2893,2.2893,2.2893,2.2893,2.2893,2.2893,2.2893,2.2893,2.3021,2.1532,1.8075,1.7162,1.5945,1.4249,1.4233,1.4314,1.4395,1.4395,1.4395,1.4395,1.4452,1.448,1.4503,1.4555,1.458,1.458,1.458,1.4672,1.4789,1.4789,1.4881,1.5002,1.5002,1.5002,1.5002,1.5002,1.5002,1.5002,1.5002,1.5002,1.5002,1.5002,1.5002,1.5002,1.5002,1.5002,1.5002,1.5002,1.5002,1.4978,1.4837,1.4898,1.4859,1.4323,1.3946,1.3586,1.3181,1.2772,1.2501,1.2501,1.2501,1.2501,1.2501,1.2501,1.2501,1.2501,1.2501,1.2501,1.2501,1.2501,1.2501,1.2501,1.2501,1.2501,1.2501,1.2501,1.2501,1.2501,1.2501,1.2501,1.2501,1.2501,1.2501,1.2501,1.2501,1.2501,1.2501,1.2501,1.2501,1.2501,1.2501,1.2501,1.2501,1.2501,1.2501,1.2501,1.2501,1.2501,1.2768,1.5533,1.6941,1.7721,2.05,2.186,2.2296,2.2893,2.2893,2.2893,2.2893,2.2893,2.2893,2.2893,2.2893,2.2893,2.2893,2.2893,2.2893,2.2893,2.2893,2.2893,2.2893,2.2893,2.2893,2.29,2.3264,2.1515,1.7105,1.6599,1.5714,1.4239,1.4328,1.4395,1.4399,1.4399,1.4399,1.4403,1.4604,1.4693,1.4716,1.4906,1.5002,1.5002,1.5002,1.5002,1.5002,1.5002,1.5002,1.5002,1.5002,1.5002,1.5002,1.5002,1.5002,1.5002,1.5002,1.5002,1.5002,1.5002,1.5002,1.5002,1.5002,1.5002,1.5002,1.5002,1.5002,1.5002,1.5002,1.5002,1.4891,1.4499,1.4033,1.3586,1.3181,1.2772,1.2501,1.2501,1.2501,1.2501,1.2501,1.2501,1.2501,1.2501,1.2501,1.2501,1.2501,1.2501,1.2501,1.2501,1.2501,1.2501,1.2501,1.2501,1.2501,1.2501,1.2501,1.2501,1.2501,1.2501,1.2501,1.2501,1.2501,1.2501,1.2501,1.2501,1.2501,1.2501,1.2501,1.2501,1.2501,1.2501,1.2501,1.2501,1.2501,1.2501,1.2652,1.4276,1.5916,1.7569,1.9202,2.0844,2.2278,2.3106,2.2893,2.2893,2.2893,2.2893,2.2893,2.2893,2.2893,2.2893,2.2893,2.2893,2.2893,2.2893,2.2893,2.2893,2.2893,2.2893,2.3021,2.3291,2.2164,2.0556,1.8539,1.7762,1.6494,1.4587,1.458,1.4684,1.4825,1.4825,1.4825,1.4825,1.4881,1.4906,1.491,1.4963,1.5002,1.5002,1.5002,1.5002,1.5002,1.5002,1.5002,1.5117,1.6243,1.5976,1.5156,1.6281,1.5956,1.5002,1.5002,1.5002,1.5002,1.5002,1.5002,1.5002,1.5002,1.5002,1.5002,1.5002,1.5002,1.5002,1.5002,1.5002,1.4891,1.4499,1.4288,1.3975,1.3258,1.3007,1.283,1.2559,1.2501,1.2501,1.2501,1.2501,1.2501,1.2501,1.2501,1.2501,1.2501,1.2501,1.2501,1.2501,1.2501,1.2501,1.2501,1.2501,1.2501,1.2501,1.2501,1.2501,1.2501,1.2501,1.2501,1.2501,1.2501,1.2501,1.2501,1.2501,1.2501,1.2501,1.2501,1.2501,1.2501,1.2501,1.2501,1.2501,1.2501,1.2501,1.2652,1.4276,1.5208,1.5988,1.8763,2.0118,2.0712,2.3088,2.2893,2.2893,2.2893,2.2893,2.2893,2.2893,2.2893,2.2893,2.2893,2.2893,2.2893,2.2893,2.2893,2.2893,2.2893,2.3047,2.3275,2.3592,2.2626,2.1174,1.9303,1.8827,1.7381,1.4765,1.4773,1.4881,1.5002,1.5002,1.5002,1.5002,1.5002,1.5002,1.5002,1.5002,1.5002,1.5002,1.5002,1.5002,1.5002,1.5002,1.5382,1.5995,1.632,1.6635,1.6936,1.7288,1.7169,1.6898,1.6898,1.6898,1.6788,1.6143,1.5956,1.5956,1.5956,1.5956,1.6086,1.6731,1.6898,1.6898,1.6898,1.5933,1.4949,1.4684,1.4515,1.4211,1.347,1.322,1.2984,1.2579,1.2501,1.2501,1.2501,1.2501,1.2501,1.2501,1.2501,1.2501,1.2501,1.2501,1.2501,1.2501,1.2501,1.2501,1.2501,1.2501,1.2501,1.2501,1.2501,1.2501,1.2501,1.2501,1.2501,1.2501,1.2501,1.2501,1.2501,1.2501,1.2501,1.2501,1.2501,1.2501,1.2501,1.2501,1.2501,1.2501,1.2501,1.2501,1.2598,1.3568,1.4333,1.5227,1.7872,1.9245,2.0043,2.2893,2.2893,2.2893,2.2893,2.2893,2.2893,2.2893,2.2893,2.2893,2.2893,2.2893,2.2893,2.2893,2.2893,2.2893,2.2893,2.3324,2.3665,2.3837,2.4035,2.2744,1.9568,1.9645,1.819,1.4808,1.4906,1.5002,1.5002,1.5002,1.5002,1.5002,1.5002,1.5002,1.5002,1.5002,1.5002,1.5002,1.5002,1.5002,1.5002,1.5002,1.5956,1.725,1.5937,1.726,1.9623,1.8309,1.8683,1.9793,1.9793,1.9793,1.9547,1.8082,1.7612,1.7612,1.7612,1.7612,1.793,1.9402,1.9793,1.9793,1.9793,1.7602,1.5382,1.5252,1.4895,1.4476,1.4029,1.3717,1.3367,1.2826,1.271,1.2675,1.2521,1.2501,1.2501,1.2501,1.2501,1.2501,1.2501,1.2501,1.2501,1.2501,1.2501,1.2501,1.2501,1.2501,1.2501,1.2501,1.2501,1.2501,1.2501,1.2501,1.2501,1.2501,1.2501,1.2501,1.2501,1.2501,1.2501,1.2501,1.2501,1.2501,1.2501,1.2501,1.2501,1.2501,1.2501,1.2501,1.2501,1.2501,1.3398,1.4882,1.656,1.8195,1.9854,2.2893,2.2893,2.2893,2.2893,2.2893,2.2893,2.2893,2.2893,2.2893,2.2893,2.2893,2.2893,2.2893,2.2893,2.2893,2.2893,2.3794,2.4291,2.4122,2.3973,2.2649,1.9832,1.9575,1.8068,1.5003,1.4986,1.5002,1.5002,1.5002,1.5002,1.5002,1.5002,1.5002,1.5002,1.5002,1.5002,1.5002,1.5002,1.5002,1.5002,1.5002,1.5956,1.7497,1.8418,1.9189,1.993,2.0827,2.0564,1.9793,1.9793,1.9793,1.9736,1.9397,1.9283,1.9283,1.9283,1.9283,1.9364,1.9704,1.9793,1.9793,1.9793,1.9283,1.8432,1.7174,1.6573,1.6156,1.5746,1.6349,1.6416,1.4694,1.4387,1.3968,1.2691,1.2501,1.2501,1.2501,1.2501,1.2501,1.2501,1.2501,1.2501,1.2501,1.2501,1.2501,1.2501,1.2501,1.2501,1.2501,1.2501,1.2501,1.2501,1.2501,1.2501,1.2501,1.2501,1.2501,1.2501,1.2501,1.2501,1.2501,1.2501,1.2501,1.2501,1.2501,1.2501,1.2501,1.2501,1.2501,1.2501,1.2501,1.271,1.3228,1.4848,1.6484,1.8332,2.2893,2.2893,2.2893,2.2893,2.2893,2.2893,2.2893,2.2893,2.2893,2.2893,2.2893,2.2893,2.2893,2.2893,2.3014,2.3302,2.393,2.4339,2.4391,2.4269,2.32,2.1046,2.0073,1.8505,1.6201,1.5386,1.5002,1.5002,1.5002,1.5002,1.5002,1.5002,1.5002,1.5002,1.5002,1.5002,1.5002,1.5002,1.5444,1.6148,1.6148,1.7564,1.9698,1.9774,2.0752,2.2092,2.2167,2.2148,2.2092,2.2092,2.2092,2.1961,2.1189,2.0945,2.0945,2.0945,2.0945,2.1114,2.1881,2.2092,2.2092,2.2092,2.1507,2.0526,1.891,1.7645,1.6697,1.6273,1.5905,1.5274,1.3991,1.376,1.3475,1.2637,1.2501,1.2501,1.2501,1.2501,1.2501,1.2501,1.2501,1.2501,1.2501,1.2501,1.2501,1.2501,1.2501,1.2501,1.2501,1.2501,1.2501,1.2501,1.2501,1.2501,1.2501,1.2501,1.2501,1.2501,1.2501,1.2501,1.2501,1.2501,1.2501,1.2501,1.2501,1.2501,1.2501,1.2501,1.2501,1.2501,1.2501,1.2501,1.2691,1.4314,1.6446,1.89,2.3003,2.2969,2.2911,2.2979,2.2945,2.2911,2.2979,2.2934,2.2893,2.2893,2.2893,2.2893,2.2893,2.2893,2.3181,2.3872,2.4044,2.4234,2.4579,2.4599,2.3883,2.2279,2.092,1.9326,1.744,1.609,1.5271,1.5002,1.5002,1.5002,1.5002,1.5002,1.5002,1.5002,1.5002,1.5002,1.5026,1.529,1.6182,1.7421,1.7702,1.9572,2.2055,2.0714,2.2036,2.4426,2.3091,2.3469,2.4599,2.4599,2.4599,2.4371,2.3036,2.262,2.262,2.262,2.262,2.2899,2.4241,2.4599,2.4599,2.4599,2.3599,2.226,2.092,1.9014,1.7426,1.7093,1.5767,1.4472,1.3857,1.3514,1.3247,1.2962,1.2675,1.2501,1.2501,1.2501,1.2501,1.2501,1.2501,1.2501,1.2501,1.2501,1.2501,1.2501,1.2501,1.2501,1.2501,1.2501,1.2501,1.2501,1.2501,1.2501,1.2501,1.2501,1.2501,1.2501,1.2501,1.2501,1.2501,1.2501,1.2501,1.2501,1.2501,1.2501,1.2501,1.2501,1.2501,1.2501,1.2501,1.2501,1.273,1.4637,1.7055,1.9661,2.3427,2.3181,2.2996,2.3287,2.3082,2.2996,2.3287,2.3082,2.2893,2.2893,2.2893,2.2893,2.2893,2.2893,2.3331,2.4404,2.4506,2.4546,2.4599,2.4599,2.3883,2.2279,2.1999,2.047,1.7478,1.7193,1.6392,1.5002,1.5002,1.5002,1.5002,1.5002,1.5002,1.5002,1.5002,1.5002,1.5079,1.6487,1.7193,1.7516,1.8929,2.0569,2.2185,2.1961,2.3011,2.4562,2.4352,2.4426,2.4599,2.4599,2.4599,2.4562,2.4334,2.4278,2.4278,2.4278,2.4278,2.4315,2.4544,2.4599,2.4599,2.4599,2.4451,2.4223,2.3994,2.2135,2.0425,2.0363,2.0731,2.0599,1.9089,1.7683,1.6255,1.4805,1.3417,1.2501,1.2501,1.2501,1.2501,1.2501,1.2501,1.2501,1.2501,1.2501,1.2501,1.2501,1.2501,1.2501,1.2501,1.2501,1.2501,1.2501,1.2501,1.2501,1.2501,1.2501,1.2501,1.2501,1.2501,1.2501,1.2501,1.2501,1.2501,1.2501,1.2501,1.2501,1.2501,1.2501,1.2501,1.2501,1.2501,1.2501,1.2865,1.5935,1.7341,1.8157,2.3482,2.3328,2.3236,2.3372,2.3345,2.3335,2.3488,2.3157,2.2893,2.2893,2.2893,2.2893,2.2893,2.3471,2.4044,2.4552,2.4599,2.4599,2.4599,2.4599,2.4278,2.358,2.2676,2.1114,1.8797,1.7854,1.6606,1.5002,1.5002,1.5002,1.5002,1.5002,1.5482,1.6296,1.5405,1.6009,1.7678,1.7474,1.8442,2.0131,2.0845,2.2092,2.3543,2.3543,2.3976,2.4599,2.4599,2.4599,2.4599,2.4599,2.4599,2.4599,2.4599,2.4599,2.4599,2.4599,2.4599,2.4599,2.4599,2.4599,2.4599,2.4599,2.4599,2.4599,2.4599,2.3605,2.2359,2.1226,2.0226,1.934,1.8598,1.7112,1.5758,1.5016,1.3552,1.2501,1.2501,1.2501,1.2501,1.2501,1.2501,1.2501,1.2501,1.2501,1.2501,1.2501,1.2501,1.2501,1.2501,1.2501,1.2501,1.2501,1.2501,1.2501,1.2501,1.2501,1.2501,1.2501,1.2501,1.2501,1.2501,1.2501,1.2501,1.2501,1.2501,1.2501,1.2501,1.2501,1.2501,1.2501,1.2501,1.2501,1.2904,1.6183,1.7398,1.7872]}]]